GFSSW_250_rhum_000.txt.gz
RH
27 20 27 38 64 70 72 77 73 69 100 100 100 100 100 98 57 67 62 65 63 56 40 37 32 30 25 23 24 22 22 28 26 22 17 12 10 11 12 12 12 14 17 20 22
19 16 19 27 37 70 78 85 80 63 72 100 100 100 100 100 94 80 63 76 76 72 52 45 36 34 34 33 27 24 26 29 27 24 22 15 13 14 13 15 15 14 14 17 19
23 15 22 27 33 44 84 82 91 75 63 63 97 100 100 100 100 92 69 69 73 77 68 48 42 36 44 37 33 29 30 31 31 25 25 25 22 15 19 16 16 14 12 15 18
16 16 22 30 35 39 75 85 86 82 80 81 73 83 100 100 100 100 72 73 68 95 85 62 56 42 37 44 39 35 32 32 38 28 22 20 22 23 22 24 17 14 14 15 18
15 17 19 27 37 44 77 88 89 89 84 77 82 83 88 100 100 100 99 81 79 78 92 81 67 43 45 44 45 42 38 35 44 40 28 20 18 24 27 27 23 19 14 14 16
14 18 21 29 40 54 88 96 86 76 67 69 72 79 94 100 100 100 100 89 77 77 100 100 88 67 54 45 43 45 50 51 39 45 42 28 20 16 25 30 26 22 17 15 14
14 16 28 43 66 80 93 91 79 70 67 73 83 89 100 100 100 100 100 100 83 77 100 100 100 79 62 64 59 48 40 47 53 48 40 35 29 25 24 21 29 24 20 16 15
16 19 36 56 84 82 86 74 50 41 54 72 91 100 100 100 100 100 100 100 100 86 100 100 100 100 87 78 76 50 46 44 47 45 40 34 37 34 28 20 24 27 22 20 17
24 23 40 57 89 98 83 71 27 14 16 40 86 100 100 100 100 100 100 100 100 99 92 97 97 99 100 99 87 75 57 54 44 42 40 35 33 37 27 25 23 27 26 23 20
38 32 44 68 88 98 86 74 26 14 25 65 100 100 100 100 100 100 100 100 100 100 100 100 94 100 100 98 84 86 60 52 50 52 43 38 35 42 34 25 26 23 25 27 26
66 53 46 77 90 100 98 79 33 17 55 78 100 100 100 100 100 100 100 100 100 100 100 100 100 100 100 100 82 75 75 58 64 55 55 38 32 43 40 28 27 27 22 24 26
65 82 67 63 85 100 100 100 54 30 57 82 100 100 100 100 100 100 100 100 100 100 100 100 100 100 99 98 85 71 61 50 54 54 52 48 36 38 42 41 35 36 27 23 24
52 74 86 78 75 100 100 99 81 46 54 85 100 100 100 100 100 100 100 100 100 100 92 71 71 84 70 56 54 68 75 79 65 56 51 47 40 35 49 42 40 42 36 33 28
37 49 84 91 83 80 99 100 95 84 51 62 91 91 87 88 82 80 72 70 80 82 81 83 97 64 52 50 57 66 86 81 70 63 56 50 35 44 47 48 57 56 45 37 38
28 38 51 81 79 100 97 100 100 97 76 68 60 82 91 95 94 98 89 81 72 69 61 63 72 69 54 67 59 54 59 60 75 67 56 57 28 42 47 53 64 72 53 46 47
11 27 38 49 78 97 90 79 100 95 88 95 91 88 91 87 85 87 91 91 90 86 87 89 70 60 62 58 46 43 48 47 48 46 29 46 26 34 62 53 71 76 62 61 78
7 13 29 41 56 97 100 91 84 90 100 100 100 100 99 97 99 100 100 99 97 100 99 91 85 64 54 50 40 32 33 27 23 22 13 32 26 37 58 98 74 86 70 62 67
6 7 16 39 51 82 95 79 85 100 100 100 100 100 100 100 100 100 100 100 87 86 84 66 43 35 28 21 19 16 15 13 14 13 13 21 18 28 40 80 99 98 80 70 80
4 7 10 32 44 81 80 89 100 100 100 100 100 100 100 100 100 100 100 100 96 77 56 41 27 23 20 17 14 9 14 21 14 13 12 16 21 29 34 48 85 100 88 76 75
4 6 8 33 46 58 72 92 99 100 100 100 100 100 100 100 100 100 90 95 69 56 44 37 24 7 7 6 4 4 7 10 11 13 13 17 23 24 42 53 59 100 91 82 78
4 6 8 19 42 53 71 100 100 100 100 100 100 100 100 100 100 100 97 69 66 53 61 46 36 20 6 4 3 3 3 4 6 7 9 12 17 25 40 50 65 90 91 79 75
4 7 10 18 32 42 78 99 94 92 96 100 100 100 100 100 100 86 72 70 99 100 100 99 69 35 22 7 5 4 3 4 5 6 4 5 11 30 33 40 53 78 84 74 79
5 8 9 15 28 34 64 95 91 100 100 100 100 100 100 100 87 70 95 100 100 100 100 97 58 34 26 18 8 4 4 4 6 8 10 8 6 8 19 28 44 50 65 70 77
7 9 10 11 15 23 56 97 97 100 100 100 100 100 100 100 72 73 100 100 100 100 98 89 61 46 30 33 22 16 23 16 11 12 11 11 11 9 10 15 26 39 56 79 90
8 13 15 13 14 21 46 72 86 97 100 100 100 100 100 84 67 100 98 100 100 100 100 79 99 95 81 91 91 76 75 61 32 21 16 17 18 17 17 18 26 35 57 90 100
8 13 17 17 21 32 45 66 83 95 100 100 100 100 100 70 84 100 100 100 100 94 92 100 93 100 100 100 100 94 77 84 57 40 41 34 35 47 50 50 50 51 66 95 97
9 10 12 13 18 26 39 55 76 97 100 100 100 100 84 63 97 100 100 100 89 66 82 100 70 100 100 100 100 100 98 99 94 95 95 91 100 100 100 100 88 74 68 73 79

GFSSW_250_rhum_003.txt.gz
RH
37 59 65 79 70 48 39 47 65 70 71 64 74 89 98 93 95 94 89 64 55 59 65 54 41 35 39 34 24 21 23 28 21 17 16 10 11 13 14 15 11 11 14 15 14
39 56 58 55 72 57 42 43 48 68 72 69 66 72 82 100 100 100 92 100 87 56 60 66 56 51 47 44 32 25 22 29 27 22 20 16 13 13 18 18 15 12 12 13 14
36 62 74 87 69 66 59 34 38 47 73 76 70 70 77 100 100 99 100 100 100 69 61 69 71 68 55 45 38 35 31 34 36 28 24 18 19 16 19 20 16 13 12 13 13
21 49 63 65 60 47 38 25 26 34 51 76 80 72 75 81 100 100 100 100 100 96 72 60 76 64 60 57 56 41 36 37 42 33 24 21 21 22 22 27 17 14 13 13 12
20 31 42 45 50 36 30 24 27 25 42 75 88 81 80 78 81 100 100 100 100 100 99 80 64 67 60 60 73 38 40 44 45 43 34 27 23 22 27 24 18 17 15 15 15
20 23 34 30 35 30 30 24 26 36 40 59 96 97 98 89 67 72 100 100 100 100 100 96 71 69 69 73 84 92 50 44 45 51 45 34 30 26 31 26 20 17 16 16 19
16 16 17 24 24 24 28 24 28 37 49 63 100 100 100 94 84 76 71 77 100 100 100 100 100 72 65 72 99 100 84 55 43 42 45 45 43 37 29 30 28 20 17 18 19
26 18 16 17 18 20 24 24 30 46 52 76 100 100 100 100 93 92 89 90 88 97 100 100 100 98 77 62 84 100 100 67 57 42 39 39 40 41 38 34 37 29 20 17 19
45 35 26 20 18 18 21 24 32 52 69 96 100 100 100 100 100 100 98 94 99 99 100 100 100 98 90 64 60 100 100 100 79 77 57 47 39 40 38 37 36 38 36 28 23
44 52 46 36 25 20 19 24 38 73 100 100 100 100 100 99 95 91 99 100 100 100 100 100 100 100 100 98 81 99 100 100 98 97 82 66 47 59 47 47 38 32 37 36 30
44 52 55 53 46 31 20 39 59 90 100 93 92 81 76 86 90 100 100 100 100 100 100 100 100 100 100 98 89 84 71 95 100 96 93 64 47 45 55 49 46 36 36 35 32
36 44 52 52 53 38 30 54 86 96 93 86 94 52 34 47 79 97 98 100 100 100 100 100 100 100 100 98 94 74 59 85 100 100 86 74 60 66 60 64 56 45 38 41 38
13 30 46 48 50 48 51 78 84 96 86 91 65 24 18 21 48 86 92 100 100 100 100 100 100 100 100 100 100 100 100 86 73 79 74 78 82 74 83 64 58 59 59 48 43
7 8 33 47 50 58 53 86 92 85 93 84 48 24 20 25 45 78 100 100 100 100 100 100 100 100 100 97 100 94 79 64 64 64 69 75 57 58 61 79 61 64 68 67 51
4 7 13 44 48 49 73 94 87 96 83 79 51 45 41 46 91 83 92 100 95 99 100 100 98 78 76 74 60 52 56 50 45 41 38 42 37 50 87 99 84 74 75 65 60
3 5 7 30 46 52 80 92 78 68 90 82 68 58 58 68 100 100 93 86 91 94 80 69 65 77 88 71 53 48 42 35 34 32 24 34 32 38 78 100 96 88 80 73 61
2 3 7 12 42 51 75 75 52 71 100 100 96 88 79 87 100 99 90 86 87 86 91 99 98 87 76 58 52 45 37 31 32 34 31 39 36 37 51 63 86 92 83 83 73
2 3 6 10 34 47 69 57 49 95 98 100 100 96 92 93 98 97 100 100 100 100 100 100 94 83 70 56 46 39 25 23 20 17 14 25 25 47 52 76 76 100 70 62 72
2 3 6 9 23 38 58 49 78 100 100 100 100 100 89 96 100 100 100 100 100 100 92 97 87 68 50 42 33 21 12 8 6 6 7 10 17 29 40 52 77 81 100 67 67
2 3 5 8 16 33 54 58 93 100 100 100 100 100 100 100 100 100 100 100 100 100 100 90 64 48 35 26 16 6 5 4 3 3 5 10 16 26 23 25 42 72 100 95 70
3 3 6 10 16 30 51 71 100 100 99 100 100 100 100 100 100 100 100 100 100 100 89 64 59 57 81 67 42 22 7 2 2 2 3 6 12 20 15 16 28 61 96 100 72
3 4 7 9 12 24 56 74 100 100 100 100 100 100 100 100 100 100 100 100 99 81 78 77 87 76 57 63 43 19 8 5 2 2 2 5 11 14 13 12 20 38 73 100 86
4 5 8 10 10 30 68 71 100 98 100 100 98 100 100 100 100 100 100 99 78 85 93 90 74 65 66 58 22 18 14 10 6 4 4 4 8 8 12 14 19 29 50 100 85
4 6 7 9 12 32 66 65 96 99 100 100 99 100 100 100 100 100 100 88 89 80 75 86 70 58 44 62 54 46 32 18 16 10 7 7 7 10 14 17 18 24 33 60 84
4 6 9 10 13 24 41 61 92 100 100 100 100 100 100 100 100 100 99 88 85 71 75 78 70 79 68 85 85 94 87 77 57 32 15 12 9 8 9 17 19 23 31 43 64
6 7 9 9 11 15 32 57 76 100 100 100 100 100 100 100 100 100 97 84 87 80 89 79 76 100 91 100 100 95 98 82 74 58 34 20 15 12 11 9 14 22 30 39 46
7 7 9 10 13 21 27 52 70 100 100 100 100 100 100 100 100 92 92 87 80 65 100 66 92 100 100 86 100 100 100 94 98 77 65 36 30 29 22 18 21 24 31 41 48

GFSSW_250_rhum_006.txt.gz
RH
14 18 27 38 56 54 97 99 88 78 61 67 63 64 72 99 100 100 100 100 100 100 100 85 80 90 68 59 46 47 26 15 18 16 14 14 13 10 10 11 11 11 12 12 12
12 18 24 34 57 74 76 100 90 84 71 58 78 74 67 68 91 100 100 100 100 100 100 84 75 62 61 49 39 35 26 22 17 18 17 14 12 11 13 13 13 13 13 12 10
13 16 24 33 49 68 79 76 100 95 80 68 53 74 80 75 71 90 97 100 100 100 100 95 74 55 54 64 53 43 40 40 43 34 24 18 18 16 17 17 14 12 12 16 15
13 15 18 27 44 55 69 80 76 97 87 81 59 50 59 81 78 77 98 100 100 100 97 100 92 71 65 57 62 61 57 49 49 42 35 25 21 20 18 22 16 17 13 13 17
13 15 18 22 31 52 65 75 84 91 98 87 72 65 71 79 85 82 78 99 100 100 100 100 100 98 82 58 61 70 75 57 58 58 43 31 27 23 27 23 22 21 16 18 19
15 18 22 29 32 46 51 67 75 95 100 100 79 57 70 90 96 85 81 85 94 100 100 100 100 97 95 84 65 62 72 67 62 80 78 50 32 29 28 28 28 26 25 23 24
18 25 23 29 36 48 51 61 64 67 73 67 59 40 32 46 83 96 86 88 83 96 100 100 100 100 100 100 82 73 58 62 66 71 99 76 49 38 38 33 39 33 30 27 28
27 31 29 32 30 28 40 56 55 68 67 62 60 43 30 38 60 100 94 89 92 91 99 100 100 100 100 100 100 83 78 53 58 65 87 94 78 53 36 37 41 40 37 31 34
29 40 39 42 40 36 27 25 31 42 53 62 61 43 43 44 54 98 100 96 94 93 82 86 100 100 100 100 100 100 93 90 87 61 82 100 91 74 59 44 35 35 36 38 36
29 30 42 43 46 42 40 21 18 27 40 62 57 36 48 58 60 96 100 100 100 100 97 78 74 89 98 100 100 100 91 72 81 95 56 53 100 100 80 77 61 44 40 36 38
9 13 28 36 46 57 40 24 21 27 55 56 43 36 57 66 74 90 100 100 100 100 100 86 85 93 89 90 91 94 98 93 86 92 86 64 96 100 100 100 100 97 66 40 38
5 6 9 25 33 40 38 31 47 25 27 33 37 52 72 82 98 100 100 100 100 100 100 100 100 100 100 100 97 99 100 100 94 96 92 84 70 86 100 100 100 94 74 57 56
3 4 6 9 27 41 47 72 60 32 30 50 41 62 83 98 100 100 100 100 100 100 100 100 100 100 100 100 100 99 93 90 84 77 81 80 63 73 78 98 100 100 99 88 80
2 2 4 6 15 25 48 83 69 43 31 61 74 96 100 100 100 100 100 100 100 100 100 100 95 99 100 100 92 88 93 87 93 97 89 83 63 86 87 97 97 100 100 100 82
2 2 3 5 10 26 54 75 71 53 33 60 82 100 100 96 99 99 98 92 95 99 97 92 87 89 95 100 99 93 99 97 98 82 72 85 52 42 70 90 99 82 87 96 88
2 2 2 5 9 25 50 65 68 51 34 54 92 99 100 96 82 61 39 34 47 61 85 89 92 94 85 90 93 84 78 76 65 56 40 47 34 28 49 54 64 61 70 80 78
2 2 2 5 9 25 49 52 62 37 51 81 100 100 99 71 48 34 31 38 37 42 52 52 65 78 86 78 70 63 57 56 52 48 42 34 29 26 36 41 44 62 73 65 63
2 2 3 4 9 21 37 44 41 48 66 94 100 97 80 51 45 41 47 54 60 52 70 87 99 92 92 87 76 82 73 58 44 44 38 26 22 24 32 38 46 46 50 50 52
2 2 3 5 9 20 33 36 48 71 87 100 96 93 71 51 51 51 72 68 72 92 94 100 100 100 99 74 60 53 53 46 35 27 18 14 11 9 15 26 27 40 49 57 46
3 3 3 4 7 18 34 43 61 90 91 100 88 78 62 53 63 77 91 97 94 96 100 100 100 95 76 59 57 49 56 44 27 9 6 6 5 5 6 9 15 15 33 57 59
2 3 3 5 8 20 41 52 76 90 86 100 95 73 68 77 94 100 100 100 100 100 100 94 84 71 70 66 61 72 77 66 33 12 5 3 2 2 3 5 8 11 20 44 65
3 3 4 6 9 20 43 57 84 88 85 100 99 83 88 100 94 96 100 100 100 96 92 69 63 63 75 75 89 79 48 31 24 14 5 2 1 2 2 2 5 8 14 37 65
3 3 5 8 11 20 42 56 99 99 95 98 97 100 100 100 97 88 99 99 100 88 69 70 73 73 81 76 92 91 82 39 22 14 7 4 2 2 2 3 4 5 13 24 56
4 4 6 9 14 29 58 80 100 100 94 88 99 100 100 100 97 98 100 100 93 74 76 81 76 74 68 98 100 92 83 71 41 21 14 10 6 4 4 4 10 12 13 18 35
6 5 7 10 15 40 59 99 100 95 96 96 100 100 100 100 96 100 100 98 82 88 83 89 85 85 67 83 100 100 98 74 65 51 24 14 11 7 5 6 8 13 16 19 23
8 7 7 11 20 33 56 97 99 97 94 100 100 100 100 100 100 100 100 76 90 84 89 92 90 81 95 76 100 100 100 100 63 66 50 26 16 13 7 8 11 17 16 18 24
8 9 8 10 17 31 56 88 100 100 100 100 100 100 100 100 96 100 98 92 94 80 98 98 89 90 78 92 94 100 100 100 100 63 62 62 56 19 16 13 18 24 20 21 27

GFSSW_250_rhum_009.txt.gz
RH
8 9 9 8 7 22 52 62 90 82 74 57 54 50 57 68 74 100 100 100 100 100 100 100 100 100 100 88 80 73 75 99 88 72 75 61 57 47 50 41 33 30 28 21 21
9 9 10 11 9 14 35 58 68 67 96 80 71 61 65 64 68 81 100 100 100 100 100 100 100 100 100 99 80 80 80 95 78 69 67 63 58 50 42 36 28 21 20 18 16
9 10 11 11 11 12 24 52 78 93 97 100 88 81 72 74 74 62 76 100 100 100 100 100 100 100 100 100 84 78 88 80 80 66 58 52 46 44 34 20 16 14 13 12 11
8 9 11 13 13 13 16 46 56 86 100 100 100 93 92 74 77 73 75 66 99 100 100 100 100 100 100 100 94 69 75 76 65 60 51 44 36 30 24 17 13 14 13 12 12
8 9 9 11 15 16 18 22 68 71 96 100 100 100 97 96 98 94 73 73 74 90 100 100 100 100 100 100 100 77 74 69 61 60 56 46 42 37 33 28 19 20 18 18 16
9 11 11 11 12 15 18 22 29 48 71 100 100 100 100 98 100 89 79 78 72 72 91 100 100 100 100 100 100 91 77 70 60 66 63 57 56 52 45 37 30 29 28 21 19
12 13 15 14 16 14 16 21 31 41 61 88 100 100 98 100 98 96 92 93 88 81 78 91 100 100 100 100 100 87 85 80 79 58 64 63 67 61 59 53 54 42 32 27 28
20 20 20 21 20 22 20 19 30 46 60 78 92 100 100 100 100 100 90 79 89 99 90 85 96 100 100 100 100 97 93 94 94 78 62 63 66 68 66 86 80 62 59 46 38
20 23 26 26 27 26 25 24 24 41 60 86 82 96 100 100 96 100 95 80 82 80 100 100 90 94 100 100 100 99 100 100 100 98 85 73 59 54 58 66 93 76 73 60 53
13 11 14 26 36 32 33 35 30 31 39 61 83 96 100 100 100 100 81 64 67 80 86 97 98 96 93 100 100 100 100 100 100 100 99 89 81 88 64 55 70 100 98 76 71
4 5 5 8 24 42 41 44 34 25 24 46 78 67 95 92 94 79 74 72 57 45 67 100 100 100 95 100 100 100 100 100 100 100 99 100 99 97 94 77 70 54 57 100 84
2 2 3 4 8 27 41 43 41 59 69 42 43 53 87 81 85 88 86 67 51 42 53 100 100 100 100 99 96 98 98 99 100 100 100 100 100 99 89 70 68 82 91 100 100
2 2 2 3 6 11 35 50 55 86 66 57 27 28 51 59 69 64 65 53 54 57 78 97 100 100 100 99 94 90 82 79 74 84 93 91 95 94 89 95 89 90 85 93 100
2 2 2 3 4 8 20 44 64 84 74 64 42 31 36 52 67 52 54 57 74 72 87 100 100 100 100 100 100 97 96 86 72 71 74 83 78 90 97 100 90 92 99 90 80
3 2 2 2 4 6 10 34 62 80 73 55 41 35 30 40 62 58 54 76 90 92 91 98 100 100 100 100 100 100 100 95 98 93 86 92 79 83 95 100 96 93 79 78 69
2 2 2 2 3 5 11 31 62 64 56 44 42 34 47 59 64 74 88 99 100 100 98 100 100 100 100 100 100 100 100 100 91 86 77 97 72 62 92 95 91 92 71 68 59
2 2 2 2 3 5 10 27 53 55 40 57 50 51 54 79 82 94 100 100 99 100 100 100 100 100 100 100 100 100 92 91 94 98 88 76 59 54 80 52 41 44 46 48 41
2 2 2 3 3 4 9 18 35 36 51 69 64 58 74 90 93 98 99 98 100 97 94 96 100 99 100 98 94 100 100 84 50 43 41 44 43 47 43 39 30 27 28 32 35
2 2 2 3 4 6 9 20 28 52 84 73 55 70 96 100 100 96 97 97 91 86 65 40 43 47 59 61 52 47 56 84 100 85 57 48 40 28 33 21 20 19 18 23 26
2 2 2 3 4 7 9 18 43 69 92 75 88 97 100 100 95 96 86 59 36 33 50 72 70 88 64 58 80 100 100 95 82 60 47 31 17 14 15 13 10 8 8 11 18
3 2 3 4 5 9 14 39 70 79 81 78 87 99 99 99 84 57 46 48 55 66 76 79 74 83 99 100 100 90 71 63 75 64 42 30 34 4 6 7 8 5 3 5 8
4 3 3 5 7 11 24 52 64 88 87 92 100 100 100 90 64 50 55 69 77 91 87 90 100 100 92 82 65 66 75 77 80 71 38 27 21 12 5 4 2 2 2 2 4
4 4 4 6 7 18 37 56 78 92 85 90 95 99 100 84 65 61 60 75 86 90 99 100 94 83 73 69 78 85 93 79 73 85 73 34 15 10 5 4 3 2 1 2 3
6 6 6 7 10 19 39 57 70 81 92 90 92 100 100 89 71 60 72 79 91 100 99 90 77 81 70 68 91 95 100 96 80 96 88 52 22 10 6 4 3 2 2 2 6
8 9 7 10 13 28 57 64 63 83 90 91 99 100 100 89 74 71 73 80 100 99 86 77 87 94 85 77 76 99 80 94 72 83 97 77 39 10 8 5 4 3 3 3 5
10 11 12 9 15 27 52 71 84 91 94 95 98 100 96 76 77 72 81 100 100 90 75 90 96 85 98 89 84 85 82 100 97 100 86 99 58 24 10 8 6 6 8 6 6
11 13 12 13 16 35 61 84 87 96 100 99 97 100 97 91 89 90 97 100 98 73 86 93 83 84 100 91 78 81 100 100 100 100 100 99 83 38 20 15 13 15 14 13 14

GFSSW_250_rhum_012.txt.gz
RH
8 8 8 9 9 8 5 5 28 36 44 43 37 51 46 46 51 99 100 100 100 100 100 100 100 100 100 94 92 83 63 80 81 63 69 44 37 38 48 38 38 35 38 26 24
8 8 8 9 9 10 8 5 16 52 44 65 49 53 52 49 49 61 96 100 100 100 100 100 100 100 100 100 99 94 87 100 83 62 64 64 56 54 58 52 53 56 50 35 39
8 7 8 8 9 10 10 7 5 19 44 62 70 69 60 53 54 57 60 76 94 100 100 100 100 100 100 100 100 100 100 98 85 74 68 68 60 55 50 53 60 55 65 54 55
8 7 7 8 8 10 11 10 7 7 39 60 72 76 69 78 68 64 62 56 63 94 100 100 100 100 100 100 100 100 100 100 97 82 77 70 55 63 60 59 54 59 58 51 47
11 9 7 8 8 9 12 13 12 8 11 52 81 70 69 58 82 81 76 66 60 64 80 100 100 100 100 100 100 100 100 100 100 98 100 76 69 63 58 52 56 53 45 37 31
9 12 11 8 8 10 10 13 14 12 12 27 60 90 96 89 87 91 85 78 74 63 77 77 100 100 100 100 100 100 100 100 100 100 96 80 79 61 56 57 49 44 43 40 34
9 10 14 14 9 10 12 12 16 16 13 15 36 64 100 99 100 100 93 97 95 76 73 78 77 100 100 100 100 100 100 100 100 100 99 66 58 71 70 59 58 52 49 47 45
11 12 10 15 16 12 13 14 14 18 18 14 23 50 97 100 100 100 98 100 99 92 82 78 77 78 95 100 100 100 100 100 100 100 100 85 65 57 62 63 59 60 56 59 55
8 10 11 7 13 17 13 18 16 18 20 19 19 24 60 99 100 100 99 100 100 100 95 94 79 76 79 82 99 100 100 100 100 100 100 100 87 67 63 60 60 66 61 62 67
5 4 4 4 4 10 15 17 22 19 22 19 22 24 30 63 97 100 100 100 100 95 86 84 97 91 74 72 91 89 100 100 100 100 100 100 90 81 72 67 69 68 74 56 56
2 2 2 2 2 4 11 19 21 24 20 30 35 30 32 41 61 94 100 100 98 97 100 98 94 89 87 78 77 78 83 98 100 100 100 99 84 92 84 80 90 88 78 80 84
2 2 2 3 3 3 7 17 25 30 36 36 35 34 47 41 54 76 100 100 100 100 100 93 100 92 92 90 96 91 88 87 88 100 100 100 100 97 92 88 96 100 100 100 88
2 2 3 3 3 3 5 12 26 32 39 52 37 44 66 65 69 81 96 96 100 100 100 99 98 95 87 87 71 78 88 87 84 83 98 97 100 99 100 100 100 100 100 100 100
2 2 2 3 3 3 5 11 28 41 48 64 45 52 67 76 83 91 97 100 100 100 100 95 94 96 96 72 57 64 82 90 85 83 80 83 82 100 100 100 100 100 100 99 97
2 2 2 2 2 3 5 7 21 51 46 54 52 61 43 59 75 82 91 100 100 100 100 98 96 89 63 41 40 53 90 98 92 85 82 85 72 76 96 92 96 89 76 79 74
3 2 2 2 2 3 4 5 12 44 45 50 61 57 59 65 54 70 84 88 98 96 95 92 91 67 46 47 65 84 96 89 97 93 96 92 85 78 100 100 100 81 69 65 72
2 2 2 2 2 3 3 5 9 39 55 65 62 68 70 58 33 40 59 73 73 82 81 69 67 60 71 81 80 88 94 100 96 94 100 94 89 100 100 100 91 74 78 72 60
2 2 2 2 2 3 4 5 9 42 65 56 71 72 72 53 36 38 46 53 67 78 75 87 90 95 96 96 95 96 100 100 100 100 100 100 99 100 99 74 66 52 47 47 48
2 2 2 2 2 3 6 9 13 47 75 64 84 92 75 52 47 56 68 72 77 89 83 99 100 95 99 100 100 100 100 100 100 100 100 99 99 91 69 56 49 36 18 12 12
3 2 2 3 3 4 6 13 27 56 62 70 92 98 87 76 78 89 88 85 93 100 100 100 100 100 99 100 100 100 99 94 86 80 88 96 79 53 44 34 26 21 15 15 17
3 3 2 3 4 5 8 16 38 64 71 78 90 84 64 74 84 88 96 99 100 100 99 96 100 92 85 74 71 85 88 100 96 77 59 59 50 41 28 24 19 16 9 8 10
4 4 3 4 5 8 11 16 36 60 77 98 90 82 97 92 95 98 99 98 93 90 83 67 57 54 76 80 96 100 86 61 72 51 66 70 73 64 40 20 14 9 5 5 6
4 5 5 6 9 12 18 30 57 76 93 93 78 91 98 100 100 100 96 79 66 53 53 61 70 83 88 100 99 67 57 74 50 89 99 81 83 48 32 14 10 7 6 3 2
5 7 7 9 9 14 24 45 67 88 85 84 97 97 96 100 96 75 54 57 59 60 74 87 88 97 100 92 72 57 59 65 100 89 82 93 79 65 19 17 10 7 5 3 3
7 8 10 12 12 16 32 58 69 78 79 93 97 95 90 92 70 54 60 56 64 81 90 90 92 88 75 66 67 79 100 99 78 98 94 81 75 46 35 22 11 7 5 4 3
11 10 12 16 20 22 37 44 71 80 97 100 99 96 97 92 79 61 54 63 81 89 84 86 80 77 85 90 77 99 100 91 100 97 94 86 82 79 52 32 22 13 8 5 4
12 14 16 18 31 47 61 77 91 86 89 99 98 99 100 99 84 71 72 74 88 79 65 83 99 81 84 100 100 100 100 100 100 91 81 85 96 98 65 44 32 24 20 14 9

GFSSW_250_rhum_015.txt.gz
RH
6 7 7 8 8 9 10 7 4 8 36 40 40 34 43 43 41 50 100 100 100 100 100 100 100 96 85 85 78 79 54 86 100 97 83 40 40 44 37 38 24 26 32 21 23
7 7 7 8 8 9 9 10 8 4 13 35 37 39 45 54 45 44 45 100 100 100 100 100 97 94 97 98 86 93 97 100 100 86 88 61 51 45 36 36 24 29 31 35 22
7 7 7 7 8 8 9 10 10 8 6 24 22 44 47 60 65 55 46 75 100 100 100 100 100 100 100 95 100 99 100 100 100 92 77 79 68 65 52 57 69 72 59 51 48
7 7 8 7 7 8 8 9 10 10 9 7 18 33 41 52 78 78 52 64 67 97 100 100 100 100 100 100 95 92 100 100 100 94 85 92 93 69 65 60 65 66 54 52 48
7 7 7 7 7 7 8 8 10 11 10 9 13 29 56 60 80 81 77 61 57 61 80 100 100 100 100 100 100 100 99 100 100 100 98 94 95 85 78 72 69 64 59 52 44
8 7 6 7 7 7 7 8 8 10 11 10 10 21 28 61 77 84 95 88 64 62 68 74 100 100 100 100 100 100 100 100 100 100 100 100 99 84 80 82 64 58 57 52 42
6 8 7 5 7 8 8 8 9 9 11 12 9 10 14 60 100 99 95 100 94 76 59 66 73 99 100 100 100 100 100 100 100 100 100 100 100 92 97 80 79 75 72 60 55
5 5 4 4 3 6 8 9 11 10 10 11 12 8 21 28 100 100 92 100 96 98 79 55 58 59 61 86 100 100 100 100 100 100 100 100 100 100 86 80 85 86 97 75 55
4 3 2 2 2 3 6 9 12 14 11 10 12 14 8 26 100 100 100 100 100 82 79 81 59 56 58 63 77 100 100 100 100 100 100 100 100 100 100 94 95 84 72 71 65
4 2 2 2 2 2 3 8 11 16 14 11 10 15 15 30 76 100 90 98 100 94 82 88 90 78 70 67 68 74 93 100 100 100 100 100 100 100 100 100 100 95 79 69 63
2 2 2 2 3 3 3 5 9 12 17 14 16 20 16 16 20 100 98 88 98 93 100 88 96 100 85 87 73 67 78 93 100 100 100 100 100 100 100 100 100 100 100 97 87
2 2 2 2 2 3 4 4 6 8 20 19 19 15 24 15 15 43 81 100 100 100 100 100 100 89 90 91 96 92 78 75 70 84 99 100 100 100 100 100 100 100 100 100 100
2 2 2 2 2 3 4 4 5 7 20 28 27 25 25 24 19 46 66 92 100 100 100 100 99 93 99 98 89 83 81 73 69 69 76 80 94 100 100 100 100 100 100 98 83
2 2 2 2 2 3 3 4 4 7 21 30 29 32 25 25 24 28 47 70 98 100 100 100 100 100 100 99 81 74 75 78 80 72 62 62 65 82 82 89 98 100 100 99 100
2 2 2 2 2 2 3 4 4 6 20 33 35 40 38 36 35 29 43 68 71 88 97 100 100 100 95 100 100 88 83 82 75 67 61 58 47 89 89 98 100 100 95 87 83
2 2 2 2 2 2 2 3 3 5 17 29 35 40 52 52 52 56 48 44 55 74 89 100 100 100 100 100 100 100 90 74 78 64 56 58 46 67 100 100 100 79 74 86 96
3 2 2 2 2 2 2 4 4 5 25 46 59 63 61 56 57 80 73 67 67 78 90 98 97 100 100 100 100 95 86 75 66 60 46 50 52 82 100 97 100 100 98 90 74
3 2 2 2 2 2 3 4 5 23 39 57 65 54 64 73 81 67 68 79 84 95 98 95 97 95 94 91 80 69 73 66 50 54 70 77 88 100 100 100 67 64 73 77 72
3 3 2 2 2 3 3 5 10 25 64 72 65 79 86 95 85 81 77 63 81 80 85 93 88 84 85 80 72 71 74 81 85 96 96 100 100 100 100 100 100 98 84 64 57
3 3 3 3 3 3 4 8 13 39 44 51 84 96 98 99 90 79 59 62 73 74 90 88 78 80 79 78 80 93 98 96 96 100 96 99 100 100 100 96 87 74 56 45 31
3 4 4 4 4 4 6 9 25 49 57 60 80 79 75 81 77 67 58 59 71 78 76 75 76 74 78 95 100 99 100 98 100 99 96 85 81 72 65 59 55 43 32 25 22
4 5 5 6 6 6 6 12 23 50 69 72 71 76 83 80 55 55 69 84 84 86 94 100 91 83 100 100 100 100 96 94 86 84 72 63 65 55 54 49 37 33 34 22 12
4 6 6 9 7 8 9 16 30 53 63 73 75 93 87 88 98 100 96 89 100 99 100 100 100 100 100 100 97 89 87 67 69 68 75 65 66 54 48 41 43 40 30 17 8
4 6 8 10 11 10 12 22 49 53 64 72 92 89 85 94 95 90 100 97 98 98 100 98 95 94 94 99 89 76 79 66 70 67 98 86 88 71 52 56 50 37 22 12 7
7 7 10 15 16 13 19 26 43 55 73 87 88 86 94 98 86 89 100 100 100 95 86 73 82 93 100 96 83 73 70 62 83 99 78 88 73 57 53 53 37 29 16 9 6
12 8 12 23 29 35 46 54 61 80 87 94 91 91 99 97 88 86 78 61 66 68 73 76 98 100 94 79 76 73 62 100 100 67 66 70 81 57 63 66 37 31 18 10 6
18 13 13 29 43 48 56 73 88 98 96 96 100 94 91 84 74 63 62 67 75 69 69 89 88 77 71 67 79 82 84 100 78 77 71 94 69 68 66 77 40 40 36 31 25

GFSSW_250_rhum_018.txt.gz
RH
8 8 6 6 7 7 8 9 11 11 6 6 16 38 40 44 44 40 40 100 100 100 100 100 100 99 84 70 77 79 82 96 95 71 83 46 38 34 33 38 39 62 74 68 48
7 7 7 6 6 8 8 8 9 11 11 5 10 38 41 46 54 52 43 63 100 100 100 100 100 100 100 100 91 80 87 100 100 99 84 55 50 39 41 45 51 34 58 62 57
7 6 6 6 7 6 9 10 9 10 12 10 5 19 43 41 58 77 46 59 59 100 100 100 100 100 100 100 97 93 99 100 100 100 95 81 58 56 54 60 70 41 41 53 50
7 6 5 7 6 6 7 9 10 9 10 12 7 10 25 44 61 76 66 61 70 91 100 100 100 100 100 100 100 100 100 100 100 98 100 98 88 76 63 78 71 57 36 48 43
6 5 6 4 5 4 6 8 9 10 10 12 12 6 14 44 81 80 84 73 57 72 100 100 100 100 100 100 100 100 100 100 100 94 92 100 100 100 91 80 95 91 65 67 70
5 5 4 3 2 3 3 6 9 9 10 10 13 10 8 51 61 80 73 83 71 56 100 100 100 100 100 100 100 100 100 100 100 100 100 100 100 100 99 76 78 88 79 68 86
4 4 3 2 2 2 2 3 7 9 10 10 11 14 8 23 65 77 90 80 85 82 64 59 97 100 100 100 100 100 100 100 100 100 100 100 100 100 100 100 98 82 85 87 75
4 4 2 2 2 2 3 2 5 10 10 11 10 13 14 13 58 86 89 75 84 93 92 59 56 61 100 100 100 100 100 100 100 100 100 96 100 100 100 100 98 100 92 86 92
4 2 3 3 3 3 3 2 3 8 11 11 10 13 15 13 41 98 98 89 92 97 84 86 59 48 86 100 100 100 100 100 100 100 100 100 100 100 100 100 100 100 100 99 89
4 2 3 3 2 2 3 3 3 6 10 11 11 12 18 16 13 92 96 91 90 96 94 78 86 76 61 71 79 99 100 100 100 100 100 100 100 100 100 100 100 100 100 100 100
3 2 3 2 2 2 3 3 3 4 10 13 17 16 16 17 13 34 100 100 100 84 92 92 95 98 100 69 55 60 80 100 100 100 100 100 100 100 100 100 100 100 100 100 100
3 2 3 2 2 2 3 4 3 4 9 15 21 20 17 19 14 16 89 86 80 99 100 100 99 96 83 76 70 64 59 65 79 92 94 100 100 100 100 100 100 100 100 100 100
3 2 3 2 2 2 3 4 4 4 9 24 30 25 19 20 17 13 40 98 86 79 93 100 100 94 98 90 91 84 68 57 57 61 60 65 87 100 100 100 100 100 100 100 100
3 3 3 2 2 2 3 4 4 4 10 27 34 32 20 18 21 17 17 38 75 96 94 100 100 100 100 96 92 91 98 91 83 62 66 68 64 79 88 98 100 100 100 100 100
2 3 3 2 2 2 2 3 4 4 8 21 37 36 23 26 25 22 15 17 38 86 100 100 100 98 100 98 92 95 93 90 86 86 80 86 80 100 86 87 84 81 85 92 97
2 4 3 2 2 2 2 4 4 5 7 18 34 31 32 32 28 29 19 21 38 70 77 100 100 96 95 98 100 98 88 88 96 89 87 82 68 80 86 83 71 74 78 70 72
3 3 3 2 2 2 2 4 4 4 13 25 40 40 41 43 43 42 28 17 26 46 61 97 100 92 91 100 100 100 93 88 95 94 86 86 71 79 91 91 86 70 57 56 59
3 3 3 2 2 2 2 3 4 10 21 36 55 66 66 65 45 33 43 33 25 23 28 51 71 88 100 99 100 98 97 99 98 92 90 87 84 97 100 78 60 61 60 52 49
3 4 3 3 3 3 3 4 8 15 28 51 64 57 83 91 78 66 51 46 44 32 48 74 79 86 94 94 94 94 100 100 100 100 88 77 79 90 74 57 36 37 42 52 61
4 4 4 4 5 4 3 5 13 30 55 67 86 92 91 98 94 88 80 81 68 56 56 70 86 87 78 89 97 100 100 100 89 72 69 79 80 73 63 73 89 85 63 59 58
5 4 5 5 6 6 5 9 20 39 64 73 72 70 75 89 81 80 80 72 77 89 83 75 80 97 96 99 100 99 90 83 77 74 73 86 98 99 100 99 88 73 60 50 44
6 5 6 6 8 8 7 10 28 48 74 86 81 85 83 78 82 81 83 82 87 72 71 88 95 100 99 94 92 85 78 86 93 90 99 100 100 100 89 79 63 50 44 38 33
5 7 6 9 11 11 13 22 39 53 64 77 84 77 85 92 96 88 74 77 75 83 91 85 98 99 96 97 80 86 99 92 100 100 95 84 76 80 68 58 50 35 32 28 29
8 8 8 13 16 14 16 33 50 57 58 70 75 92 97 78 75 85 93 91 86 85 85 88 97 93 92 93 95 99 96 100 90 85 73 65 80 64 55 44 40 48 55 35 22
10 11 13 18 24 22 25 28 40 58 63 68 83 96 89 81 92 98 97 95 93 95 93 98 98 98 97 97 88 96 96 78 77 89 98 78 62 54 42 45 56 55 55 35 25
12 14 16 20 34 38 39 41 50 63 72 78 96 92 81 87 88 94 91 88 86 91 97 100 100 100 94 91 98 82 81 77 82 97 75 72 57 44 51 56 68 75 83 49 22
13 16 16 21 31 50 58 63 69 85 95 95 82 86 86 81 81 86 92 89 96 93 100 100 100 99 92 85 81 80 77 89 70 51 79 52 58 54 68 65 78 92 98 59 45

GFSSW_250_rhum_021.txt.gz
RH
8 8 7 6 6 6 6 7 6 7 8 9 8 4 2 7 32 34 92 100 100 100 100 100 100 99 95 100 100 92 78 75 78 81 83 64 56 54 46 44 47 46 47 49 67
8 8 8 7 7 6 6 7 8 7 8 9 9 7 4 3 17 40 45 76 100 100 100 100 100 100 97 100 100 100 100 100 97 89 70 59 55 54 51 49 48 47 47 40 39
8 8 7 7 5 5 5 6 8 8 7 9 10 9 6 5 7 67 54 39 54 92 100 100 100 100 100 100 100 100 100 100 100 100 91 66 59 50 54 56 59 55 45 44 36
7 7 6 5 4 3 4 4 6 8 7 9 10 10 7 9 18 44 59 59 40 41 54 100 100 100 100 100 100 100 100 100 100 100 92 82 72 66 65 76 64 60 59 46 49
6 6 5 4 3 2 3 3 4 7 8 8 10 11 9 9 21 49 66 86 61 51 56 97 100 100 100 100 100 100 100 100 100 100 100 100 93 87 82 71 66 75 63 43 48
6 5 4 3 2 3 3 4 2 6 8 8 10 11 12 10 15 41 63 83 92 66 61 64 100 100 100 100 100 100 100 100 100 100 100 100 100 100 100 91 77 72 76 62 46
5 4 4 3 3 3 3 4 3 4 8 8 10 11 12 11 16 34 62 100 83 95 68 62 58 100 100 100 100 100 100 100 100 100 100 100 100 100 100 90 87 90 89 89 84
5 4 3 3 2 2 2 3 3 3 7 8 9 11 15 13 15 47 82 95 87 92 92 70 56 88 100 100 100 100 100 100 100 100 100 100 100 100 100 96 89 83 100 100 100
5 4 3 3 2 2 2 2 3 3 4 9 10 10 14 16 16 39 70 88 87 76 99 88 65 73 98 100 100 100 100 100 100 100 100 100 100 100 100 100 100 100 100 100 100
4 4 3 3 2 2 2 2 3 3 3 8 10 11 14 17 14 17 61 90 100 68 94 98 86 64 85 100 100 100 100 100 100 100 100 100 100 100 100 100 100 100 100 100 100
4 3 2 3 2 2 2 2 3 3 3 7 15 17 13 14 15 15 36 82 99 89 85 96 91 95 92 92 99 100 100 100 100 100 100 100 100 100 100 100 100 100 100 100 100
4 3 2 2 2 2 2 2 3 4 3 6 17 17 14 14 18 19 27 76 96 80 79 75 95 100 92 74 73 100 100 100 100 100 100 100 100 100 100 100 100 100 100 100 100
4 3 2 3 2 2 2 2 3 4 4 8 17 17 16 16 19 21 24 51 100 100 90 90 89 99 88 95 86 78 69 67 84 98 100 100 100 100 100 100 100 100 100 100 100
4 3 3 3 2 2 2 2 4 4 5 9 18 20 18 17 19 21 22 22 74 100 100 100 99 99 83 100 94 93 91 78 68 62 97 98 100 100 100 100 100 100 100 100 100
4 3 3 3 2 2 2 3 4 5 5 12 21 23 22 22 24 22 23 19 32 78 100 100 97 93 96 94 96 98 100 94 85 64 62 63 59 94 82 92 94 97 97 100 100
4 3 3 3 2 2 2 3 4 5 6 15 23 29 28 26 24 21 26 21 17 56 95 100 100 96 82 88 98 92 96 96 97 94 91 94 86 100 90 68 66 70 70 68 64
4 3 4 3 3 2 2 3 3 5 12 22 36 36 34 39 37 28 27 25 20 17 35 100 100 100 100 100 100 99 91 99 89 90 96 93 90 100 100 99 86 63 57 58 59
4 4 4 3 3 3 2 3 5 8 19 28 40 46 44 50 42 33 38 30 21 19 20 57 100 100 100 100 100 100 100 100 97 95 93 93 85 86 91 95 84 74 75 70 61
5 4 4 4 4 4 3 3 6 16 31 46 49 52 72 62 54 70 41 40 31 19 19 34 88 100 100 100 100 99 97 97 100 96 93 97 100 88 86 78 68 73 78 70 67
6 4 5 5 6 5 4 6 16 30 48 58 86 90 69 51 60 67 54 47 38 29 24 31 41 52 82 98 100 100 100 95 92 90 89 95 95 84 76 78 80 69 65 81 71
7 5 7 7 7 8 9 18 30 43 70 82 73 58 74 55 40 37 55 60 58 42 36 33 38 55 59 80 95 100 87 83 90 93 94 98 94 85 83 94 92 89 69 56 52
8 7 9 10 10 14 16 24 35 50 83 78 78 80 79 81 74 61 68 77 80 67 53 46 41 48 58 69 77 91 96 87 86 96 98 96 91 94 97 85 78 72 60 54 45
9 9 9 14 14 17 28 33 45 52 66 73 72 84 95 94 97 97 96 82 78 87 92 85 99 100 100 97 96 89 82 82 92 90 84 94 91 100 97 87 60 65 63 50 38
10 11 10 15 21 19 24 36 42 56 58 69 76 88 90 87 77 93 97 93 93 95 100 100 100 100 96 84 76 76 84 90 97 97 94 100 99 99 89 78 69 56 40 39 48
11 12 12 18 23 32 30 35 41 48 55 59 72 86 88 84 83 81 84 90 90 95 98 97 100 100 98 90 96 100 100 100 99 99 100 100 91 78 68 52 45 47 57 60 49
13 14 14 15 27 34 42 44 46 52 60 70 80 91 94 82 71 70 76 78 78 73 81 89 99 99 94 90 100 99 100 100 100 100 93 81 78 65 58 50 52 66 64 56 66
16 15 16 16 20 40 48 51 60 76 77 76 82 89 86 86 71 68 72 75 75 80 75 89 100 100 93 100 100 100 100 100 100 94 79 64 58 62 51 59 69 67 66 81 100

GFSSW_250_rhum_024.txt.gz
RH
10 9 9 8 8 6 5 6 5 5 6 6 6 7 7 7 3 11 18 100 100 100 100 100 100 100 100 100 91 80 56 53 93 88 82 58 51 52 57 71 79 85 91 97 98
8 8 8 7 7 6 6 5 5 5 6 6 6 6 7 8 7 2 19 44 100 100 100 100 100 100 100 100 100 95 97 92 96 100 88 74 70 56 58 67 71 74 75 73 74
7 7 7 6 6 5 4 4 3 4 5 5 5 6 7 8 8 3 4 19 55 100 100 100 100 100 100 98 100 100 100 100 100 100 96 72 68 70 55 62 71 73 71 65 62
7 7 6 5 4 4 3 3 3 3 3 5 5 6 7 8 9 5 1 7 24 50 100 100 100 100 100 100 100 100 100 100 100 100 100 80 74 79 66 73 73 72 72 66 58
6 6 6 4 4 3 3 4 3 3 3 3 5 6 7 8 12 6 4 2 13 27 66 100 100 100 100 100 100 100 100 100 100 100 100 97 91 85 88 73 57 63 62 62 57
5 5 5 4 3 3 3 3 3 3 4 3 5 6 7 10 10 9 5 2 8 22 38 100 100 100 100 100 100 100 100 100 100 100 100 100 100 93 100 78 56 56 70 66 66
5 4 4 3 2 3 3 2 2 3 4 4 4 7 8 12 10 12 5 4 11 18 47 61 100 100 100 100 100 100 100 100 100 100 100 100 100 100 99 87 77 74 74 82 89
5 4 3 2 2 3 2 2 2 2 3 4 3 8 10 11 12 14 7 8 33 23 58 58 84 100 100 100 100 100 100 100 100 100 100 100 100 100 100 100 100 87 95 96 100
4 4 3 2 3 2 2 2 2 2 3 4 4 10 12 13 12 13 12 9 73 45 65 83 68 78 99 100 100 100 100 100 100 100 100 100 100 100 100 100 100 100 100 100 100
5 3 2 2 2 2 2 1 2 2 3 4 4 11 11 14 11 14 13 13 100 81 54 79 78 65 68 70 100 100 100 100 97 97 98 91 100 100 100 100 100 100 100 100 100
4 3 2 2 2 2 1 1 2 2 3 5 6 13 12 13 13 15 16 19 100 100 83 80 82 98 100 83 55 76 100 100 100 100 100 100 100 100 100 100 100 100 100 100 100
4 3 2 2 2 2 1 2 2 3 4 5 6 12 13 14 16 15 19 27 95 100 67 45 85 88 86 99 78 58 88 100 100 100 100 100 100 100 100 100 100 100 100 100 100
3 3 2 2 2 2 1 2 3 4 5 6 7 12 14 15 15 17 20 29 98 100 90 51 93 100 98 100 100 99 83 86 100 100 100 100 100 100 100 100 100 100 100 100 100
3 3 2 3 2 2 2 2 3 4 5 6 7 13 16 18 17 19 27 34 68 86 75 67 86 100 96 98 100 100 97 80 94 100 100 100 100 100 100 100 100 100 100 100 100
3 3 3 3 2 2 2 2 3 4 4 5 10 16 17 19 17 23 30 26 67 75 99 51 64 87 86 96 100 100 98 93 94 98 100 100 100 100 100 100 100 100 100 100 100
4 3 3 3 3 2 3 3 4 4 4 6 11 24 24 22 20 23 30 23 33 56 72 44 80 75 80 95 100 100 100 98 93 95 100 99 100 100 100 98 100 100 100 99 100
4 4 3 3 3 3 3 3 4 4 6 12 24 27 26 24 22 26 30 26 32 39 55 34 66 71 79 89 100 99 100 100 100 100 100 98 96 95 98 71 71 69 72 90 92
6 4 3 3 3 3 3 3 5 9 19 24 27 30 33 34 25 32 36 28 27 35 52 45 36 72 93 98 97 97 100 100 100 100 100 100 100 94 99 84 78 75 66 64 66
7 5 5 5 5 4 4 5 16 27 32 36 40 39 38 38 30 37 34 28 30 29 33 43 54 82 86 96 100 100 99 86 86 96 99 100 98 91 88 92 88 88 84 75 68
9 7 7 8 10 7 8 14 23 32 40 44 46 50 47 44 44 36 30 34 29 30 31 34 49 57 94 100 100 100 100 97 95 98 98 94 95 87 78 75 74 74 74 76 82
10 8 8 12 13 14 12 19 24 28 36 38 44 40 38 35 31 28 33 37 38 37 37 33 28 39 58 88 100 100 100 100 100 100 100 100 84 72 73 79 82 83 85 78 73
12 10 8 13 15 20 21 25 37 50 49 54 57 64 77 76 61 42 54 56 48 48 39 33 27 30 40 72 100 100 100 100 97 100 99 91 81 75 79 84 96 95 80 68 60
13 10 10 12 19 23 26 36 41 54 63 71 77 74 65 58 70 75 72 56 56 54 48 41 39 46 55 66 77 85 99 100 100 98 100 96 97 84 87 98 94 92 74 62 59
14 12 11 12 16 30 34 34 46 54 68 74 78 81 89 85 68 68 70 72 77 76 77 68 50 50 67 66 66 71 73 82 91 94 85 89 93 100 97 94 86 77 66 62 66
14 12 11 12 14 25 39 44 44 46 53 59 71 86 90 90 80 80 66 75 80 83 79 77 81 73 64 54 57 58 60 69 82 87 95 100 100 100 94 90 76 66 72 56 51
13 13 13 12 14 17 27 44 56 57 59 58 69 80 81 79 72 69 76 81 84 84 83 87 87 86 86 94 97 100 100 93 86 87 95 100 100 90 80 91 81 72 48 64 62
13 12 13 13 14 15 20 26 41 55 71 76 75 77 87 78 76 72 73 70 74 85 93 96 94 90 86 89 92 99 100 100 100 100 100 100 78 78 100 94 58 45 58 67 55

GFSSW_250_rhum_027.txt.gz
RH
9 7 6 7 7 8 8 7 6 5 5 5 5 6 6 6 6 9 14 91 100 100 100 100 100 100 100 100 76 57 41 72 100 86 54 42 40 63 100 100 100 100 100 100 98
8 7 6 6 7 7 6 6 6 5 4 5 5 5 5 6 6 8 13 19 73 100 100 100 100 100 100 100 100 74 52 74 100 100 74 39 40 46 56 68 84 94 96 98 100
8 6 5 5 5 5 5 4 4 4 3 4 4 5 6 6 6 9 9 12 22 85 100 100 100 100 100 100 100 100 79 92 100 100 88 45 41 41 54 57 48 55 60 70 78
6 4 4 4 4 4 3 3 3 3 3 3 3 4 6 6 6 7 8 10 13 42 100 100 100 100 100 100 100 100 100 94 100 100 100 80 48 43 48 63 50 57 66 57 50
5 4 4 4 4 3 2 3 3 2 3 4 3 3 5 5 6 7 7 8 10 14 70 100 100 100 100 100 100 100 100 100 100 100 100 98 77 63 58 58 76 74 83 85 67
4 4 3 3 3 2 2 3 3 2 3 3 3 4 4 6 8 7 8 9 8 12 17 100 100 100 100 100 100 100 100 100 100 100 100 100 87 78 97 71 78 79 84 78 86
4 3 3 3 2 2 2 2 2 2 2 2 3 3 4 8 8 8 8 9 8 6 16 46 100 100 100 100 99 100 97 100 100 100 100 100 100 97 91 82 84 95 90 85 100
3 3 3 3 2 2 2 2 2 2 2 2 2 3 5 7 10 11 7 10 10 6 8 17 64 100 100 100 99 100 94 100 100 100 100 100 100 100 91 91 95 100 100 100 100
3 3 3 2 2 2 2 1 1 1 2 2 3 4 5 8 11 10 11 11 13 11 7 9 24 56 100 100 100 93 100 100 100 100 99 90 89 100 100 100 100 100 100 100 100
3 3 2 2 2 2 2 1 1 1 2 2 4 5 6 8 12 13 13 13 16 14 10 6 14 26 92 100 100 100 100 100 100 100 100 100 98 100 100 100 100 100 100 94 98
3 2 2 2 2 2 1 1 2 2 2 3 5 6 6 9 13 14 14 16 17 11 6 14 8 27 46 100 100 100 100 100 100 100 100 100 100 100 100 100 100 100 93 85 100
3 2 2 2 2 2 1 1 2 2 2 3 5 6 9 14 14 14 16 18 19 12 7 16 14 24 38 51 99 100 100 100 100 100 98 90 100 100 100 100 99 90 89 96 94
3 3 2 2 2 2 2 2 2 2 3 4 5 6 9 16 16 17 24 24 28 21 16 14 20 15 26 42 54 100 100 100 100 100 99 90 90 100 100 100 96 99 100 100 98
3 3 3 2 2 2 2 2 3 3 3 6 7 8 11 16 18 20 29 33 27 29 17 18 18 22 19 47 65 79 100 100 100 100 100 100 100 100 98 90 92 87 91 100 100
3 3 3 3 2 2 2 3 4 4 5 6 7 10 14 18 18 22 25 27 35 30 30 32 13 21 28 52 64 99 94 100 100 100 100 100 100 100 100 100 100 100 97 96 94
4 4 4 3 3 3 2 3 4 5 5 6 8 17 21 20 23 26 27 37 35 45 41 36 20 21 41 57 80 90 94 98 99 100 100 100 100 100 100 100 100 100 100 100 100
5 5 4 4 4 4 4 3 4 6 8 12 15 23 21 21 25 23 22 27 32 37 35 30 16 27 50 78 82 97 98 96 96 95 100 99 99 98 100 100 100 100 100 100 100
7 7 5 4 6 6 6 5 6 8 18 20 26 27 27 31 27 29 23 36 33 33 30 29 17 26 34 65 80 85 99 97 100 100 100 96 91 93 99 98 100 100 100 100 100
8 8 7 6 8 10 10 12 13 15 19 24 26 28 28 26 32 37 28 27 53 37 40 27 21 29 58 66 72 84 93 98 98 95 98 100 94 96 95 88 82 88 94 87 82
8 9 9 7 10 15 15 16 25 24 25 25 28 27 28 26 29 28 24 29 38 51 55 43 27 30 44 80 76 80 82 92 90 98 98 97 94 91 94 97 98 96 86 80 82
8 10 9 9 10 16 19 19 25 30 35 37 37 37 38 40 40 32 33 31 30 44 56 66 32 34 39 57 82 85 82 96 88 96 100 96 94 92 97 97 96 91 87 83 78
8 10 10 10 12 17 21 29 31 33 36 40 45 48 39 37 37 35 33 37 38 39 41 42 33 36 38 46 72 90 91 98 97 95 92 94 98 100 98 90 85 88 84 77 69
8 9 10 12 11 14 23 30 36 41 40 46 56 61 61 58 38 38 46 40 39 43 44 40 37 40 44 49 49 73 91 96 99 94 93 94 90 86 89 86 81 79 82 92 72
8 9 10 13 13 12 19 33 42 46 51 55 58 60 69 68 67 66 46 48 52 52 51 45 40 42 44 47 46 60 63 83 97 95 100 86 99 92 89 91 93 98 97 71 52
8 9 9 10 12 14 15 25 38 51 57 61 66 76 81 83 79 76 78 63 53 58 61 61 52 47 48 51 47 43 47 53 69 81 96 100 100 100 99 99 100 90 69 60 60
8 9 9 10 12 13 14 17 26 38 51 66 69 68 72 77 76 78 85 88 86 74 75 72 66 57 55 52 68 68 76 94 100 100 100 100 100 100 100 95 87 92 74 61 63
8 8 10 10 10 13 14 16 18 24 40 50 59 79 83 76 65 65 72 98 92 83 87 85 77 75 62 54 53 62 66 80 86 81 87 95 99 100 98 99 96 87 73 56 45

GFSSW_250_rhum_030.txt.gz
RH
6 5 5 5 6 6 6 6 6 6 7 7 8 8 7 7 7 7 11 14 20 63 100 100 97 100 100 100 75 61 73 92 99 93 88 67 60 79 100 100 100 80 63 42 36
5 5 5 5 5 5 5 4 4 4 5 5 5 6 7 6 7 6 8 11 11 21 96 100 100 100 82 100 85 66 69 100 100 100 100 74 63 62 62 92 100 100 90 61 50
5 4 4 4 4 4 3 3 3 4 4 4 4 4 6 6 6 7 7 8 12 16 34 100 100 100 100 100 100 78 67 69 100 100 100 81 61 62 60 55 64 100 100 100 98
4 4 3 4 3 3 3 3 3 3 3 3 3 3 4 6 5 6 7 6 9 13 19 63 98 100 100 100 100 100 96 88 80 100 98 82 77 80 82 65 52 50 92 100 100
4 3 3 3 3 2 2 2 3 3 3 3 3 3 4 5 7 8 7 6 7 12 17 44 97 100 100 100 100 100 100 100 100 96 90 79 75 74 81 80 61 52 50 49 74
3 3 3 2 2 2 2 2 2 2 2 2 3 3 3 4 7 7 7 7 7 9 14 26 89 100 100 100 100 100 100 100 100 100 88 66 66 69 73 68 81 64 47 49 46
3 3 3 2 2 2 2 2 2 2 2 2 2 3 4 5 6 6 8 8 8 10 12 18 66 100 100 100 100 100 100 100 100 100 100 98 83 86 68 66 76 80 60 54 55
3 3 2 2 2 2 2 1 1 1 1 2 2 3 4 5 6 8 8 7 8 9 10 17 25 97 100 100 100 99 100 100 100 100 100 100 100 95 80 80 100 100 100 93 77
2 3 2 2 2 2 1 1 1 1 1 1 2 2 4 5 5 6 8 8 9 10 11 15 17 61 100 100 100 100 100 100 100 100 100 100 98 100 100 86 82 100 100 100 100
3 3 2 2 2 2 1 1 1 1 1 1 2 2 4 5 7 7 10 10 10 10 11 14 19 42 92 100 100 100 100 100 100 100 100 100 100 100 100 100 100 100 100 100 100
3 3 2 2 2 2 1 1 2 2 2 2 2 3 4 6 8 10 12 12 12 11 13 12 15 20 90 100 100 100 100 100 100 97 100 100 100 100 100 100 100 100 100 100 100
3 3 2 2 2 2 2 2 2 2 2 2 2 3 6 7 8 11 11 15 14 14 13 15 10 14 22 91 100 100 100 100 100 100 97 99 100 100 100 100 100 100 91 100 97
3 3 2 2 2 2 2 2 2 3 2 2 4 6 7 9 11 13 21 28 40 25 18 17 15 10 13 23 84 100 100 100 100 100 100 99 100 100 100 91 100 94 93 85 74
4 3 3 3 3 2 2 2 3 4 4 4 5 7 8 11 12 22 24 31 29 26 20 21 17 12 9 17 25 92 100 100 100 100 100 100 98 89 87 87 97 90 95 99 82
4 4 3 3 4 3 2 2 3 4 6 5 5 6 8 12 23 28 26 24 26 24 19 20 20 12 8 10 31 39 100 100 100 100 100 100 93 92 86 85 92 85 82 88 100
5 5 4 4 4 4 4 3 3 5 7 7 7 10 16 23 30 25 24 29 35 28 21 20 19 17 14 11 25 38 58 100 100 100 100 100 100 96 82 79 88 88 79 81 89
6 6 6 5 5 7 6 6 5 8 10 11 14 17 21 28 23 22 23 19 19 25 22 17 16 16 18 15 20 18 26 59 96 100 100 100 100 100 97 96 91 86 78 84 88
8 7 6 6 6 8 11 9 11 13 13 17 20 23 27 28 23 19 20 23 22 21 19 16 15 15 12 8 9 20 27 41 67 100 100 100 100 100 100 100 100 100 100 100 100
9 7 7 8 8 10 14 12 17 22 23 21 22 24 23 26 28 28 28 24 23 21 20 17 18 19 16 14 12 26 42 55 55 84 100 100 100 100 100 100 100 100 100 100 100
9 8 8 8 8 9 14 17 18 23 24 24 30 27 28 27 28 31 29 31 38 38 29 24 21 21 20 18 20 47 42 28 54 74 98 100 100 100 100 100 100 100 100 99 91
10 9 8 8 9 9 13 20 28 28 28 31 30 30 29 27 26 25 29 31 30 36 35 32 27 26 30 30 42 64 70 65 86 79 97 100 97 97 100 100 100 100 100 94 87
10 10 9 8 9 10 11 17 27 38 37 38 43 40 36 36 34 31 29 41 50 38 39 38 30 37 36 38 62 59 89 100 96 94 95 94 94 99 100 100 99 94 78 74 80
9 9 10 9 9 11 12 15 21 34 42 48 51 54 51 48 49 47 41 44 50 57 55 46 45 32 45 53 60 95 96 95 96 100 94 92 99 100 97 92 91 84 84 93 99
7 7 10 9 9 10 12 12 19 25 41 53 59 62 61 64 58 54 45 47 46 46 50 50 47 45 34 43 54 67 97 98 99 94 93 98 99 100 97 96 96 94 100 100 99
6 6 8 10 9 10 12 14 15 24 33 49 66 69 73 72 67 67 61 59 48 49 50 55 55 46 42 42 40 38 52 76 91 89 90 97 97 91 100 100 100 100 98 100 98
5 6 6 9 10 9 11 14 15 16 23 39 55 81 91 94 77 64 71 67 68 52 56 58 59 58 52 51 52 52 39 43 70 82 88 92 92 97 100 95 100 100 92 90 76
5 5 5 7 10 10 9 12 15 16 19 24 35 49 78 92 79 70 72 75 82 82 71 66 64 68 66 57 56 58 54 50 48 49 58 68 76 88 91 99 100 100 94 98 75

GFSSW_250_rhum_033.txt.gz
RH
4 4 4 4 4 4 4 4 4 5 6 7 9 9 8 7 8 7 7 10 11 18 77 100 100 100 100 84 100 53 85 69 60 99 100 85 100 95 57 56 50 44 46 47 36
4 4 4 4 4 4 3 3 3 3 4 5 7 9 9 8 7 8 7 8 10 11 36 100 100 100 100 100 98 86 95 78 89 100 98 84 80 100 100 90 60 59 57 54 43
3 3 3 3 3 3 3 3 3 2 3 4 5 6 8 9 7 9 8 7 8 11 13 70 100 100 100 100 100 99 100 98 81 93 99 93 75 69 100 100 100 97 72 67 63
3 3 3 3 3 3 2 2 2 2 2 3 4 5 6 7 8 8 8 8 7 10 12 20 86 100 100 100 100 100 100 100 89 100 100 96 83 78 78 100 100 100 100 100 99
3 3 2 2 2 2 2 2 2 2 2 2 3 4 4 6 8 8 8 8 7 8 11 13 31 100 100 100 100 100 100 100 97 100 100 100 92 86 84 87 84 79 94 100 100
3 2 2 2 2 2 2 2 2 2 2 2 3 3 3 4 5 8 7 8 8 8 9 12 21 95 100 100 100 100 100 100 100 100 100 100 96 87 95 82 78 76 73 74 82
3 2 2 2 2 1 1 1 1 1 2 2 2 3 3 4 5 6 7 8 8 8 8 12 14 38 100 100 100 100 100 100 100 100 100 100 100 99 94 100 97 88 88 77 74
3 2 2 2 2 2 1 1 1 1 1 1 2 2 3 3 4 7 9 8 8 7 8 9 13 28 100 100 100 100 100 100 100 100 100 100 100 100 98 99 100 98 94 90 83
3 3 2 2 2 2 1 1 1 1 1 1 1 2 3 4 5 6 9 9 9 9 8 9 10 13 46 100 97 99 100 100 100 100 100 100 100 100 100 95 98 99 99 96 87
3 3 3 2 2 2 1 1 1 2 1 2 1 2 3 5 6 8 10 13 13 10 9 9 10 12 16 57 100 100 100 100 100 100 100 100 100 100 100 100 93 92 95 78 70
3 3 3 3 2 2 2 2 2 2 1 2 2 3 4 4 5 8 12 12 12 10 11 10 11 12 17 53 83 100 100 100 100 100 100 100 100 100 100 100 100 100 100 91 94
3 3 3 3 3 2 2 1 2 2 2 2 2 3 5 6 6 7 8 12 9 9 9 10 11 13 16 21 44 99 100 100 100 100 100 100 100 100 100 100 100 100 100 100 100
3 3 3 3 3 3 2 2 2 2 2 2 3 3 5 6 6 7 9 20 14 14 14 12 11 12 14 18 26 61 100 100 100 100 99 100 100 100 100 100 100 100 100 100 100
4 4 4 3 4 4 3 2 2 3 4 3 3 4 6 8 9 13 17 18 15 16 16 15 13 13 14 16 26 43 82 100 100 100 93 94 100 100 100 100 100 100 100 100 98
6 5 4 4 4 4 5 4 2 3 5 5 6 6 9 12 19 22 26 28 23 22 18 17 15 16 15 15 19 34 49 96 100 100 100 95 86 100 100 100 100 100 100 100 100
7 6 6 5 5 4 6 5 3 4 5 7 9 10 12 14 18 25 27 24 23 20 18 18 17 17 17 14 16 29 43 67 100 100 100 100 89 78 86 98 100 100 100 98 98
8 7 6 6 7 6 7 9 8 9 8 9 11 12 12 13 18 20 20 23 20 19 18 18 19 17 16 14 13 16 34 39 60 100 100 100 100 92 82 76 86 92 91 90 90
8 7 7 7 8 7 8 14 10 15 14 14 12 14 15 14 16 20 21 20 19 20 16 16 15 15 13 14 15 12 21 36 48 98 100 100 100 100 100 94 88 83 81 83 84
8 7 7 7 8 9 9 15 14 18 20 19 20 18 19 23 23 24 21 19 18 16 15 14 15 15 14 14 14 15 12 18 42 76 99 100 100 100 100 100 99 96 96 86 78
8 8 8 8 7 9 9 12 17 20 23 25 22 23 24 25 26 28 29 29 28 26 20 17 16 15 15 17 17 16 15 12 14 36 46 77 100 100 100 100 100 98 95 88 87
7 7 7 8 8 8 10 11 16 28 30 26 29 28 27 26 26 27 29 31 32 32 29 24 22 20 19 20 21 22 20 15 14 22 26 31 46 100 100 100 100 100 100 99 100
6 7 6 8 8 9 10 12 13 19 33 37 40 36 42 35 29 27 24 26 36 31 25 26 22 32 32 30 25 24 19 20 24 34 34 40 46 90 100 100 100 100 100 100 100
6 7 6 7 7 9 10 12 12 16 26 39 47 48 48 40 40 49 47 37 30 29 28 25 26 29 32 43 45 34 30 21 19 29 39 42 56 56 94 100 100 100 100 100 100
5 6 6 6 8 8 9 11 13 14 22 34 51 57 60 60 54 42 42 48 49 44 40 39 32 32 32 44 82 82 67 67 48 52 57 82 100 100 99 100 100 100 100 100 100
6 5 6 6 7 8 9 10 12 14 14 23 37 52 56 59 62 64 56 50 52 52 53 45 39 41 36 39 54 73 94 100 100 100 98 97 100 99 100 92 95 100 100 96 91
6 5 6 6 6 8 8 9 10 13 15 16 26 40 56 54 52 55 56 60 57 51 43 39 42 41 41 46 47 62 70 83 97 100 100 100 100 99 100 100 100 100 100 99 97
5 5 5 6 6 7 8 9 9 12 14 17 19 28 45 58 57 45 52 60 59 56 60 54 45 43 49 40 47 53 58 70 88 88 100 100 100 100 100 100 100 98 96 98 100

GFSSW_250_rhum_036.txt.gz
RH
4 3 3 3 3 3 3 3 3 3 4 4 5 8 7 6 7 8 8 8 9 10 12 64 100 100 94 100 93 85 69 64 74 99 100 92 68 87 85 55 52 49 38 51 62
3 3 3 3 3 3 3 3 3 2 3 4 4 5 8 6 6 8 9 8 8 10 11 17 100 100 85 100 84 81 59 75 94 83 88 100 91 77 90 82 63 55 51 47 47
3 3 3 3 3 3 3 2 2 2 2 3 4 6 6 7 6 9 10 9 8 8 11 14 49 100 100 98 96 69 58 100 100 83 96 89 90 99 80 87 79 59 57 60 58
3 3 3 3 2 2 2 2 2 2 2 2 3 5 6 7 7 7 8 8 8 8 9 12 16 100 100 100 100 84 74 76 95 82 86 81 81 90 100 91 97 70 58 65 62
3 3 2 2 2 2 2 2 2 2 2 2 2 3 5 7 7 9 9 10 9 8 8 11 15 65 100 100 100 93 91 99 94 83 78 77 88 78 97 99 100 100 85 62 61
3 3 2 2 2 2 1 1 1 2 2 2 2 2 4 7 6 8 8 9 10 9 9 10 14 24 100 100 100 100 100 100 75 100 97 82 77 76 92 99 100 100 100 100 100
3 3 2 2 2 2 1 1 1 1 1 1 2 2 3 5 7 9 9 9 10 10 9 10 12 17 57 100 100 100 99 100 80 100 100 89 65 80 97 89 97 100 100 100 100
3 3 2 2 2 2 1 1 1 1 1 1 1 2 3 3 5 7 8 8 10 11 10 9 10 16 20 90 100 94 91 94 82 100 100 100 99 91 89 93 96 100 100 96 94
3 3 2 2 2 2 2 1 1 1 2 2 2 2 2 4 6 8 8 8 9 11 11 10 10 12 17 37 99 100 87 89 100 100 100 100 100 99 100 96 97 100 100 100 100
2 2 2 2 2 2 2 2 1 1 1 2 2 2 2 4 6 9 9 9 10 12 12 10 9 10 12 14 40 100 100 100 100 86 100 100 100 100 100 100 100 100 100 100 100
3 2 2 2 2 2 2 2 1 1 1 1 2 2 2 3 5 8 11 13 12 12 12 11 9 9 10 16 21 77 100 100 100 100 94 100 100 100 100 100 100 100 100 100 100
3 3 3 2 2 3 3 2 2 2 2 2 2 2 2 3 5 7 9 11 15 14 12 10 9 9 9 12 14 20 100 100 100 100 91 100 100 100 100 100 100 100 100 100 100
4 4 4 3 2 3 3 3 2 2 2 2 2 2 3 4 5 7 11 14 19 17 12 13 12 11 9 10 13 15 31 90 100 100 100 100 100 100 100 100 100 100 100 100 100
4 4 4 3 3 3 4 4 3 2 4 3 3 4 4 5 5 7 11 13 17 19 17 15 13 12 12 10 12 17 18 25 90 100 100 99 100 100 100 100 96 100 100 100 100
5 5 5 4 3 4 4 5 4 4 4 4 4 6 8 9 9 8 11 14 18 19 14 12 11 11 12 12 12 14 18 21 51 100 100 100 94 100 100 100 100 100 100 100 100
5 6 5 5 4 4 5 6 5 6 6 6 6 6 6 9 12 13 13 14 14 12 12 18 16 13 12 13 13 14 18 20 26 76 86 100 100 99 100 100 100 100 100 99 99
5 6 6 6 5 5 6 7 7 10 9 10 9 8 9 8 10 14 18 16 16 18 16 16 15 15 15 16 16 14 17 18 21 25 95 100 100 100 100 92 100 100 100 100 100
6 6 6 6 6 5 6 7 8 11 12 11 15 18 16 14 11 14 16 18 18 20 19 19 17 16 18 17 16 14 14 17 19 22 21 75 100 100 100 100 97 98 100 100 100
5 7 7 6 6 6 6 8 8 11 14 16 16 19 23 24 20 21 18 16 16 17 17 17 17 16 16 15 14 12 13 15 17 24 26 36 65 100 100 100 100 100 90 87 87
6 6 7 6 6 6 7 9 9 11 15 19 22 23 22 24 26 27 27 30 24 21 20 20 18 18 17 15 13 13 14 13 15 18 23 27 39 50 99 100 100 100 100 100 95
6 6 7 6 6 6 6 8 10 11 14 18 21 27 27 25 24 26 32 39 35 31 27 27 25 25 23 20 17 15 15 15 15 16 20 25 29 52 88 100 100 100 100 100 100
5 6 7 7 6 6 6 7 9 12 14 19 24 29 28 30 30 27 27 27 32 34 24 24 27 30 30 26 24 20 18 18 17 15 16 19 28 54 64 94 100 100 100 100 100
5 6 6 6 6 6 6 6 8 11 12 17 25 34 40 43 34 32 32 32 34 34 29 28 25 26 27 34 32 29 22 20 21 21 16 14 18 42 58 72 99 100 100 100 100
5 6 6 6 6 6 6 7 7 10 11 13 22 30 43 52 50 48 34 38 38 36 36 37 27 31 34 43 35 29 28 26 24 24 23 21 19 29 56 88 98 100 100 100 100
5 5 6 6 6 6 7 7 7 8 11 12 12 17 30 46 55 58 55 45 36 37 42 44 39 29 39 41 43 46 41 37 33 25 26 23 23 24 32 48 72 75 85 94 100
5 5 5 5 5 6 7 7 8 8 10 12 14 16 16 24 38 53 55 55 54 42 36 38 36 40 37 40 41 52 54 55 43 42 28 23 30 50 32 43 49 53 58 75 77
4 4 4 5 5 6 7 7 8 8 9 12 12 13 16 18 24 34 44 53 64 56 46 36 35 36 39 36 46 58 57 54 65 81 81 89 39 83 62 57 64 89 100 100 100

GFSSW_250_rhum_039.txt.gz
RH
3 3 3 3 3 3 3 3 3 2 2 3 4 4 6 5 5 6 9 10 8 8 8 12 14 53 92 99 100 100 100 99 100 100 100 87 65 70 100 81 56 41 56 57 62
3 3 3 3 2 2 3 3 3 2 2 2 3 4 5 5 5 7 10 10 9 8 8 11 13 34 99 100 100 100 100 100 100 100 100 100 76 69 98 89 66 55 54 58 62
3 3 3 2 2 2 2 2 2 2 2 2 2 4 5 5 6 7 7 11 9 8 8 10 12 15 98 100 100 100 100 94 98 100 100 100 100 82 95 79 81 67 65 62 49
3 3 2 2 2 2 2 2 2 2 2 2 2 2 4 6 6 6 8 10 10 9 8 9 11 12 67 100 100 100 99 76 93 100 100 100 100 94 100 79 74 89 73 76 64
3 3 2 2 2 2 2 2 1 1 2 1 2 2 4 7 5 6 8 9 11 10 8 9 11 14 22 100 100 100 100 98 74 96 100 100 100 100 100 100 92 83 93 86 74
2 2 2 2 2 2 2 2 1 1 2 2 2 2 4 6 7 7 8 10 12 12 9 9 10 14 16 78 100 100 100 100 81 91 100 100 100 97 98 100 100 100 93 88 91
2 2 2 2 2 2 2 2 1 1 1 2 2 2 3 4 7 9 6 9 11 12 10 10 10 12 15 34 100 100 100 100 71 97 100 100 100 94 85 100 100 100 100 100 96
2 2 2 2 2 2 2 2 1 1 1 2 2 2 2 3 5 8 7 8 10 12 12 10 9 10 15 18 100 100 100 90 74 82 100 99 100 94 89 99 94 100 100 100 100
2 2 2 2 2 2 2 2 1 2 1 1 2 2 2 3 4 6 7 7 10 12 12 10 9 10 12 18 41 100 100 99 88 78 94 99 92 100 86 86 100 100 100 100 100
2 2 2 2 3 2 2 2 1 2 2 1 2 2 2 3 3 4 7 8 8 12 11 11 10 9 10 16 21 100 100 100 100 91 72 82 84 88 91 76 97 100 100 100 100
3 2 2 2 3 2 2 2 2 2 2 1 2 2 2 2 3 4 6 8 8 8 12 12 11 10 12 13 18 43 100 100 100 100 70 66 80 75 90 93 89 98 100 100 100
3 3 3 2 3 3 3 3 3 2 2 2 2 2 2 3 3 4 7 10 10 11 13 12 12 12 11 11 14 19 84 100 100 95 64 73 76 65 74 93 95 96 90 88 100
4 3 3 3 3 3 3 3 3 2 2 3 2 2 2 3 4 5 7 13 16 13 13 14 14 13 11 10 10 14 23 97 100 100 86 95 91 79 74 90 100 91 94 95 94
4 4 3 4 4 4 3 4 4 4 3 4 3 3 3 2 4 6 7 11 18 18 12 12 14 13 12 11 10 12 17 20 95 100 93 82 94 83 77 84 83 78 95 94 95
6 4 4 5 4 4 4 4 5 4 6 4 5 4 4 4 4 5 7 11 17 18 17 17 14 13 13 12 10 11 12 17 25 84 99 75 80 100 82 81 90 90 87 92 97
6 4 4 5 6 5 4 4 6 5 6 5 5 7 7 6 6 7 7 9 16 20 19 19 15 13 14 13 12 10 10 14 19 24 62 66 67 98 92 87 82 86 85 87 85
6 5 4 5 7 5 5 4 6 6 8 9 6 6 10 8 9 9 9 12 14 15 16 20 19 15 14 14 15 15 13 13 15 18 24 38 52 100 95 97 92 86 91 97 97
6 5 5 5 6 6 6 5 5 7 7 10 10 9 10 14 13 12 13 14 15 15 17 23 20 16 13 12 12 17 18 17 16 21 27 32 22 49 100 100 100 97 92 95 100
7 6 5 5 6 6 6 6 5 6 8 8 13 14 13 17 20 22 21 16 18 19 22 24 22 21 18 16 14 14 17 18 18 16 17 22 25 30 58 79 96 100 100 100 100
7 6 4 5 5 6 6 6 6 7 8 9 10 15 16 16 20 24 25 27 29 29 30 27 26 23 22 19 18 19 17 18 17 16 14 16 19 23 26 57 83 84 93 100 100
10 6 5 4 5 6 6 7 6 7 8 10 10 13 19 18 19 21 23 31 31 29 31 28 24 24 23 22 19 17 15 15 16 15 14 15 15 18 24 47 90 91 79 99 100
12 6 5 4 5 5 6 6 7 6 9 11 16 18 22 23 22 21 25 25 29 28 29 30 34 34 29 22 20 18 16 16 15 14 14 14 16 18 27 31 64 99 99 100 100
12 6 5 4 4 5 5 6 7 7 7 10 11 17 26 32 31 27 26 28 26 27 28 31 27 28 36 36 33 26 20 18 16 15 14 13 15 18 21 34 36 51 93 100 100
18 6 5 4 4 4 5 5 6 7 7 9 11 14 15 23 38 43 38 34 30 26 26 26 31 37 34 33 30 26 25 24 20 19 17 15 16 16 19 23 31 43 66 94 100
14 8 6 4 4 4 4 5 6 7 7 8 10 13 15 14 20 37 44 41 37 36 32 28 25 25 31 40 39 39 31 27 24 20 20 17 18 18 18 21 25 36 54 75 91
12 7 6 5 4 4 4 4 6 7 8 8 9 13 15 16 18 18 35 47 47 44 41 44 40 30 29 37 40 36 42 46 27 25 21 19 21 20 17 18 23 36 48 62 80
11 6 6 5 4 4 4 4 6 7 7 8 9 10 14 17 18 23 24 34 43 45 45 40 41 43 39 27 40 47 43 41 38 28 24 24 22 22 23 20 20 30 52 92 100

GFSSW_250_rhum_042.txt.gz
RH
4 3 3 2 3 2 2 2 2 3 2 2 3 3 4 4 4 4 7 8 8 8 8 9 10 13 20 65 58 60 73 100 100 100 100 100 100 100 99 86 53 45 51 65 65
5 3 3 2 3 2 2 2 2 2 2 2 2 3 4 4 4 5 7 7 7 8 8 9 10 13 14 49 72 56 47 100 100 100 100 93 100 100 100 99 64 62 55 50 61
4 2 3 2 2 2 2 2 2 2 2 2 2 3 4 5 5 6 6 8 8 8 9 9 8 10 14 17 64 72 64 95 100 100 100 100 91 100 100 100 85 62 74 68 72
3 2 2 2 2 2 1 2 2 2 2 1 1 2 3 5 6 5 6 8 9 8 9 10 8 9 13 15 25 86 75 76 95 100 100 100 94 98 96 100 100 90 77 82 74
3 2 2 2 2 2 1 2 1 1 1 1 1 1 2 4 6 6 6 8 9 10 10 11 9 9 12 16 20 82 86 89 90 100 100 100 100 97 93 100 100 97 79 74 80
3 2 2 2 2 2 2 2 1 1 1 1 2 2 2 3 6 8 7 8 10 12 10 11 10 8 10 17 20 72 91 86 100 88 100 100 100 89 98 100 100 100 93 89 85
2 2 2 2 2 2 2 2 2 1 1 1 2 2 2 2 5 8 7 8 11 12 11 11 11 9 9 14 20 27 100 78 100 94 100 100 100 81 95 100 100 100 100 92 100
2 2 2 2 2 2 2 2 2 1 1 1 1 2 3 3 4 6 8 9 12 11 11 10 11 10 9 11 18 24 90 77 100 100 100 100 100 94 81 100 100 100 100 100 99
3 2 2 2 2 2 2 2 2 2 1 1 1 2 3 3 3 4 7 9 11 12 12 10 11 10 9 10 15 21 70 100 100 97 100 100 100 93 83 83 100 100 100 100 97
3 2 2 2 2 2 3 2 2 2 2 2 2 2 2 3 4 5 9 10 10 13 13 11 11 11 10 10 13 21 70 100 100 99 100 100 100 91 73 79 95 100 100 100 100
4 3 2 3 3 3 3 3 3 2 2 2 2 2 2 3 3 6 10 12 13 11 13 14 10 13 12 11 13 20 78 85 100 100 98 93 100 87 76 71 81 93 100 100 100
5 4 2 3 3 3 4 3 3 3 2 2 2 2 2 2 3 4 7 10 12 14 14 11 12 13 13 11 12 15 24 99 92 100 98 81 88 92 69 70 83 95 85 100 100
7 5 3 3 3 3 4 4 3 3 3 2 3 2 2 2 3 4 5 9 12 15 13 12 15 14 13 11 11 14 23 30 81 100 98 75 90 100 84 73 71 88 91 95 100
10 5 3 3 4 3 4 4 4 4 4 3 3 3 3 3 3 4 4 8 10 14 12 9 14 14 14 13 11 13 18 25 37 98 100 95 90 82 85 66 61 62 80 94 100
14 7 4 3 4 4 4 4 4 4 5 4 3 4 4 4 4 4 5 7 8 13 16 16 16 17 14 14 12 12 14 25 30 54 100 89 69 79 59 51 68 73 70 79 100
18 8 5 4 4 4 4 4 5 4 4 6 5 3 5 6 6 6 5 7 10 13 17 20 15 16 15 14 15 12 12 15 28 44 65 74 68 75 58 67 50 52 70 73 80
18 11 5 5 4 4 4 4 5 5 4 5 7 6 4 6 7 7 8 8 11 14 18 19 14 14 16 17 17 14 13 13 15 24 48 64 55 100 69 57 51 46 54 67 73
20 12 6 5 4 4 4 4 5 6 5 6 7 8 6 6 9 11 10 9 13 17 18 17 18 17 16 18 19 18 15 12 12 14 27 48 40 100 96 74 67 60 51 47 64
22 13 8 5 5 4 5 4 5 6 6 6 8 12 10 8 9 14 17 13 16 18 19 19 21 20 20 20 18 20 19 18 15 14 15 19 26 78 100 82 72 72 72 63 51
32 13 10 5 5 5 5 4 4 5 6 6 8 10 15 12 11 13 16 24 23 21 23 23 28 23 21 22 19 17 19 20 19 18 15 16 17 23 94 79 58 66 64 53 59
39 25 17 8 5 4 5 4 4 5 6 6 7 9 18 17 15 16 16 20 28 32 34 31 29 26 26 25 23 19 17 19 19 20 21 19 16 18 21 54 78 44 30 36 40
40 25 21 15 6 4 5 5 4 5 6 7 7 8 10 23 20 17 19 22 25 24 29 32 32 33 34 31 27 26 22 19 17 18 21 20 18 16 18 21 27 45 35 40 32
52 28 22 19 8 5 5 5 5 5 6 7 7 7 9 12 29 29 21 21 22 24 31 34 35 36 34 31 29 27 26 21 17 16 16 18 18 17 16 16 19 20 23 41 37
48 35 32 25 13 4 4 5 5 5 6 7 8 8 10 11 17 34 44 32 24 26 26 26 28 32 32 30 26 24 22 18 16 17 16 16 16 16 16 15 15 15 17 24 26
44 36 28 23 16 5 5 5 5 5 6 7 8 9 10 12 14 17 28 50 48 31 30 31 31 29 32 31 31 28 25 22 20 18 18 15 16 16 16 16 16 16 16 20 29
39 32 27 14 19 6 4 5 5 5 5 7 9 9 10 11 13 16 23 33 49 53 39 34 28 34 40 43 36 30 28 27 23 18 18 17 17 16 15 17 16 15 17 18 19
32 37 22 14 13 8 4 4 5 5 5 7 9 9 10 11 15 16 19 26 30 46 56 51 32 30 30 32 32 39 26 26 23 24 24 24 19 18 17 16 16 16 17 20 22

GFSSW_250_rhum_045.txt.gz
RH
5 3 3 3 2 2 2 2 2 2 2 2 2 3 3 4 4 4 5 6 7 7 7 7 9 11 12 11 15 16 45 76 61 59 46 87 94 91 100 100 100 88 78 72 71
3 2 2 2 2 2 2 2 2 2 2 2 2 2 3 3 4 5 5 5 7 7 8 7 8 11 12 11 12 14 29 85 85 99 87 82 97 99 100 100 100 100 93 83 75
4 2 2 2 2 2 2 2 1 2 2 1 1 2 3 3 4 5 5 5 6 7 7 7 7 10 10 11 13 15 20 89 84 100 100 66 73 100 100 100 100 100 100 90 82
4 2 2 2 2 2 2 2 1 2 1 1 1 1 2 3 4 5 5 6 6 7 8 7 7 10 12 11 12 16 17 47 73 78 100 100 74 83 100 100 100 100 100 100 84
4 2 2 2 2 2 2 2 2 2 1 1 2 2 2 2 4 6 6 6 7 7 8 10 9 11 13 13 13 17 17 37 82 64 100 100 100 66 94 100 100 100 100 100 95
4 2 2 2 2 2 2 2 2 2 1 2 1 2 2 2 2 5 7 7 8 9 8 10 10 12 14 13 14 17 18 24 80 80 100 100 100 82 98 100 100 100 100 100 100
5 3 2 2 2 2 2 2 2 2 2 2 1 1 2 3 3 5 7 7 9 9 10 10 12 12 15 14 13 15 20 18 81 82 100 100 95 88 88 100 100 100 100 100 100
6 3 2 2 2 2 2 2 2 2 2 2 1 1 2 2 3 4 7 9 9 10 12 11 11 12 14 15 13 14 19 18 63 94 96 100 97 84 87 97 100 100 100 98 100
6 3 3 2 2 2 2 2 2 3 2 2 1 2 2 2 3 3 5 11 12 13 15 13 11 12 13 15 13 12 17 18 38 97 95 100 100 100 71 92 100 100 100 100 100
6 4 3 3 2 2 2 3 2 3 2 2 2 2 2 2 3 3 7 14 16 16 18 11 10 12 13 14 14 14 17 21 30 86 95 100 100 100 92 69 99 100 100 100 100
7 5 4 3 3 3 2 3 3 3 2 2 2 2 2 3 4 3 6 13 17 14 12 10 10 13 15 16 15 14 16 29 26 51 62 100 94 100 100 78 60 90 100 100 100
9 5 5 3 3 3 3 3 3 3 3 3 3 2 2 3 4 4 5 9 13 14 12 10 13 15 15 17 16 14 15 19 28 48 44 72 83 100 100 99 68 54 82 96 97
15 6 6 4 3 3 3 3 3 3 3 4 3 2 2 3 4 4 5 9 12 15 11 9 14 15 16 17 16 15 14 17 24 32 74 45 43 97 100 100 83 72 63 76 91
23 8 8 4 4 3 3 3 4 4 3 4 3 3 2 3 4 4 5 7 10 14 15 10 15 15 18 19 18 16 14 15 19 30 96 70 49 81 100 100 84 73 72 69 74
30 10 11 4 5 4 3 3 3 4 4 4 5 3 4 3 4 4 5 8 7 15 14 12 12 16 18 19 18 17 14 15 18 26 47 76 60 77 91 100 100 79 61 68 67
36 15 12 9 6 4 4 4 3 4 4 4 5 4 4 4 5 5 6 7 7 14 17 15 12 15 16 18 20 17 16 14 16 18 34 43 49 89 65 98 97 77 59 53 61
39 22 15 14 6 5 4 4 4 4 5 5 5 6 5 5 6 6 7 8 7 10 13 14 16 15 18 21 19 20 18 15 14 16 21 35 31 94 77 88 86 80 58 54 59
41 39 13 16 10 7 5 4 4 4 5 5 5 7 7 6 6 7 7 7 7 10 19 23 22 20 18 20 26 24 23 18 15 15 19 27 28 97 66 58 73 74 66 39 42
39 52 19 18 20 8 5 5 4 4 5 6 6 6 8 8 6 6 9 10 9 11 20 22 25 23 20 21 21 24 22 21 17 15 15 18 29 74 97 66 75 68 58 63 38
38 54 42 16 21 12 6 4 5 4 5 6 7 7 9 11 9 8 8 14 13 14 20 23 22 22 27 25 22 21 26 24 21 18 16 16 18 24 58 82 82 68 64 43 33
38 49 59 27 26 14 8 4 4 5 5 6 8 8 9 15 14 12 12 14 23 24 26 28 25 25 28 31 30 29 25 26 27 23 21 18 17 18 29 36 35 58 65 52 37
33 39 60 38 22 21 10 4 4 5 5 5 8 8 10 17 22 18 16 18 20 24 24 23 24 28 31 34 34 31 30 22 21 26 27 27 24 22 22 47 51 35 41 42 45
26 37 64 59 17 14 9 5 3 4 5 5 6 8 9 11 23 29 20 22 23 26 28 29 32 27 31 28 28 26 24 22 21 22 24 28 32 25 21 21 24 41 45 28 28
24 36 57 66 24 13 10 5 3 4 5 6 6 8 9 10 14 24 38 28 26 26 27 27 26 26 22 26 20 18 18 19 20 21 20 22 24 23 21 20 17 16 17 25 31
20 30 46 60 37 10 9 5 4 4 4 6 6 8 10 10 12 16 23 41 40 32 34 34 31 28 29 27 21 20 22 23 22 19 19 18 20 20 20 19 20 19 17 16 16
18 28 40 47 52 10 9 6 4 4 4 6 7 8 10 11 12 14 19 26 43 52 42 32 32 39 41 38 43 40 34 32 26 21 20 18 18 16 17 17 17 17 16 16 15
17 29 35 40 46 18 8 7 4 4 4 5 6 8 10 12 14 15 19 22 26 37 54 60 48 36 36 31 34 49 35 37 32 28 23 24 18 18 16 15 14 15 16 17 18

GFSSW_250_rhum_048.txt.gz
RH
7 5 4 3 2 2 2 2 2 2 2 2 2 2 2 2 3 3 4 6 6 6 9 10 11 11 12 11 11 13 18 34 53 84 79 72 71 100 100 93 66 100 100 100 100
7 5 4 3 2 2 2 2 2 2 2 2 2 2 2 2 3 3 4 5 7 6 7 10 12 13 12 11 11 10 11 17 24 53 87 68 68 100 100 87 70 100 100 100 93
9 5 4 3 2 2 2 2 2 2 1 2 2 1 2 2 3 4 4 4 6 7 7 8 9 12 12 13 12 11 10 12 15 27 57 71 69 90 99 82 86 94 100 100 100
9 5 4 3 2 2 2 2 2 2 2 1 1 1 1 2 2 4 4 5 5 7 7 7 9 11 14 14 14 13 11 12 20 20 30 56 70 90 88 80 83 98 100 100 100
10 6 5 3 2 2 2 2 2 2 2 1 1 1 1 2 2 4 4 5 5 6 8 8 8 12 14 16 15 14 14 13 16 27 22 36 56 73 88 72 84 100 100 100 100
17 8 5 4 2 2 2 2 2 2 2 2 1 1 1 2 2 3 5 6 6 7 7 8 8 11 16 17 16 16 16 14 16 34 24 22 53 68 86 68 80 100 93 100 100
24 8 6 4 2 2 2 2 2 2 2 2 1 1 1 1 2 3 5 7 6 8 9 9 9 10 16 17 17 17 15 16 17 25 18 26 27 52 98 71 62 100 98 100 100
30 12 6 4 3 2 2 2 2 2 2 2 2 1 1 2 2 2 3 8 8 7 10 9 9 10 14 16 15 16 16 16 18 20 20 20 29 57 84 75 84 84 100 100 100
30 19 7 5 4 2 2 2 2 2 3 2 2 2 2 2 2 3 4 7 9 10 11 11 10 11 14 14 13 14 16 14 16 18 47 24 43 61 84 67 74 81 92 100 100
29 29 11 6 4 2 3 2 2 2 3 3 2 2 2 2 2 3 4 5 9 14 12 12 10 11 13 15 16 19 20 20 17 19 27 44 52 97 99 81 64 70 100 100 100
33 36 16 6 5 3 3 3 2 2 3 3 2 2 2 2 3 4 4 4 10 15 14 12 10 11 16 17 16 20 21 22 20 18 19 36 71 63 100 99 64 70 93 100 100
34 37 25 6 5 3 2 3 3 2 2 3 3 3 2 2 3 4 4 4 11 18 16 12 9 12 13 18 18 20 20 20 19 18 19 24 40 77 97 100 75 59 92 100 100
32 38 33 9 5 4 2 3 3 3 2 3 4 3 2 2 3 4 4 4 8 15 15 13 12 14 13 18 22 19 20 21 21 17 17 22 28 56 92 100 100 56 69 100 100
33 35 32 21 5 4 3 2 3 3 3 3 4 4 3 2 3 5 5 4 5 9 12 13 12 11 14 18 20 19 19 20 19 17 16 19 25 26 68 100 100 97 52 87 100
33 29 31 26 9 4 4 3 3 3 3 3 4 4 4 3 3 4 5 5 8 9 11 13 14 13 15 18 20 20 18 20 21 18 17 17 24 30 54 81 100 100 98 52 74
35 31 31 35 12 4 4 2 3 3 3 2 4 5 5 4 4 4 4 4 6 7 8 13 16 16 15 18 20 19 19 20 21 20 16 16 18 35 31 97 100 100 100 94 50
36 32 31 42 20 6 5 3 3 4 3 3 3 4 6 5 5 5 5 5 8 9 9 10 17 19 18 16 19 22 22 21 21 21 18 17 17 55 36 33 90 100 100 98 89
39 30 39 46 26 8 5 4 3 4 4 4 4 4 5 6 5 5 6 6 9 10 10 14 18 21 23 18 23 26 26 24 25 24 23 18 19 34 35 30 34 85 100 100 83
35 29 34 44 30 10 5 5 3 3 4 4 4 5 5 7 7 7 7 7 9 9 21 22 27 27 25 22 24 26 25 24 26 26 24 21 18 23 27 32 38 50 49 76 100
30 28 37 41 40 17 6 6 3 3 4 4 4 5 6 7 9 8 8 9 10 13 23 30 32 33 33 28 25 28 33 27 27 28 26 24 19 20 23 26 33 43 51 42 32
32 31 39 40 44 36 7 5 4 3 3 5 5 5 6 6 9 10 10 11 12 15 20 28 33 35 33 32 29 26 28 30 32 35 30 29 25 19 20 23 26 36 38 41 40
29 30 39 32 39 39 10 5 5 3 3 4 6 6 7 8 8 12 12 10 14 16 19 24 27 29 35 36 36 34 29 30 32 34 36 35 37 27 22 20 22 25 30 36 36
33 27 36 36 42 44 24 5 6 3 3 4 5 7 8 9 10 16 14 15 14 15 18 23 28 30 38 38 43 43 47 33 30 28 32 32 59 36 28 21 19 19 21 22 21
32 25 29 39 48 44 32 7 6 4 3 4 5 7 9 10 11 13 22 20 19 19 18 20 18 22 23 25 25 32 32 29 23 24 30 29 37 40 24 24 19 18 19 19 19
35 26 27 42 44 43 43 12 6 4 3 3 4 6 9 11 13 14 28 37 32 24 25 23 24 25 24 23 22 21 22 23 23 23 18 24 23 26 28 25 24 20 18 18 18
38 28 29 33 42 49 49 22 6 6 3 3 4 6 9 11 12 15 16 22 51 54 40 35 34 36 42 41 34 31 30 29 28 20 20 18 21 22 21 27 27 23 21 20 18
40 31 33 30 44 52 57 39 8 6 4 3 4 6 8 10 13 16 19 19 21 32 56 61 48 38 34 30 34 45 29 31 26 24 23 24 22 18 19 19 20 21 21 22 22

GFSSW_250_rhum_051.txt.gz
RH
17 11 9 6 5 4 3 2 2 2 2 2 2 2 2 2 2 2 3 4 5 5 6 8 9 7 10 11 11 13 17 63 100 100 100 100 100 100 100 100 100 100 100 100 100
19 15 8 7 4 4 3 2 2 2 2 2 2 2 2 2 2 3 3 4 5 5 6 6 10 10 9 12 12 12 14 28 82 100 100 100 100 100 100 100 100 100 100 100 100
24 16 9 7 4 4 3 2 2 2 2 2 2 2 2 2 2 3 3 4 4 5 6 6 7 10 9 12 14 12 14 18 43 83 81 88 100 100 100 100 100 100 100 100 100
27 16 12 6 4 4 4 2 2 2 2 2 2 2 2 2 2 3 4 4 4 5 6 7 6 9 11 12 14 11 13 15 18 40 75 79 94 94 88 100 100 100 100 100 100
28 17 14 8 4 4 4 3 2 2 2 2 2 2 1 2 2 2 3 4 4 4 6 7 8 9 12 14 17 16 14 14 16 18 32 56 82 89 77 90 100 100 100 100 100
26 15 18 10 5 4 4 3 2 2 2 2 2 1 2 1 2 2 3 4 5 5 5 8 9 9 12 14 16 20 14 15 14 16 18 28 52 75 82 78 99 100 100 100 100
24 16 16 21 7 5 4 3 2 2 2 2 2 2 2 1 1 2 2 4 5 5 6 8 9 9 11 14 17 19 17 16 15 16 16 17 20 43 64 75 75 100 100 100 100
31 17 22 20 10 7 4 3 2 2 2 2 2 2 1 1 1 2 2 4 7 6 8 8 9 10 11 14 19 20 19 17 16 17 16 17 19 18 30 45 67 99 100 100 100
27 17 21 23 11 8 4 3 2 2 2 2 2 2 2 2 2 2 3 3 7 8 8 8 8 10 11 14 16 18 20 20 18 17 16 16 20 22 21 23 45 64 100 100 100
29 21 20 26 22 8 4 3 3 2 2 2 2 2 2 2 2 2 3 3 6 10 8 8 8 11 12 12 16 20 24 24 21 20 20 19 19 19 18 15 19 33 85 100 100
31 21 26 32 21 11 4 3 3 2 2 2 2 2 2 2 2 2 3 4 5 11 10 8 10 12 12 14 18 21 22 22 23 22 23 19 19 20 18 15 14 19 52 90 100
33 29 28 34 26 11 5 4 3 3 2 2 2 3 2 2 2 2 3 4 5 12 13 10 11 12 13 14 17 19 22 19 18 19 20 21 19 19 19 17 12 14 24 79 100
38 32 27 35 24 12 6 4 3 2 3 2 2 3 2 2 2 2 3 4 6 10 14 12 12 13 14 12 13 18 20 20 20 19 19 18 16 21 28 24 17 14 20 51 92
41 40 37 35 25 16 7 3 3 2 2 2 2 3 3 3 2 3 3 5 7 9 12 15 16 14 14 12 12 16 18 19 18 18 20 17 18 26 27 22 22 24 29 57 86
52 43 34 41 29 21 9 4 3 2 2 3 3 3 4 3 3 3 5 6 7 9 11 15 17 16 14 14 15 14 17 17 18 19 17 17 19 23 24 30 46 50 35 50 93
58 38 46 38 30 23 10 4 3 2 2 3 3 3 4 4 4 4 5 6 7 7 6 12 15 15 15 14 16 17 18 18 18 18 17 18 18 28 24 26 44 31 62 70 54
55 42 42 42 33 22 12 5 3 2 2 3 3 3 3 4 4 4 4 6 6 6 7 10 13 16 17 19 18 17 17 18 17 17 19 20 18 33 24 26 28 81 64 84 71
51 54 51 40 42 24 13 5 3 2 2 3 3 3 4 4 4 5 5 6 9 10 12 13 20 23 23 21 20 20 21 22 21 22 21 22 23 30 26 23 23 27 99 85 57
53 52 46 41 40 28 13 6 3 2 2 2 3 3 4 4 6 5 6 6 8 10 14 19 26 30 31 26 23 25 24 27 24 23 24 22 24 31 27 22 20 22 25 93 97
63 51 40 45 44 47 16 6 4 3 2 2 3 4 4 4 6 7 7 6 7 12 18 26 32 38 37 34 30 25 26 30 30 26 27 27 25 29 31 28 25 22 24 31 72
74 51 39 42 46 52 30 8 5 4 3 3 4 3 4 5 6 8 8 7 8 11 20 31 40 41 40 46 42 31 27 29 35 34 33 36 30 31 32 32 29 24 21 24 36
83 54 39 36 43 51 52 11 5 4 3 3 4 4 4 6 6 9 10 9 10 12 18 29 37 45 56 58 51 43 36 38 36 40 38 44 38 34 35 34 30 27 23 20 21
80 51 36 31 48 51 53 37 7 6 4 3 4 4 5 5 7 8 11 13 12 14 17 23 28 31 44 46 51 45 42 35 36 40 39 40 53 46 43 31 30 28 25 22 21
75 57 35 29 41 51 56 57 11 8 5 4 4 5 6 6 7 8 9 13 16 16 18 20 24 30 33 41 47 50 45 41 37 47 45 49 50 54 32 24 26 28 25 23 20
72 53 35 30 36 52 55 56 38 9 6 4 4 5 6 7 8 9 10 12 18 21 19 20 21 23 26 27 30 35 37 37 36 37 26 72 29 37 21 18 19 22 24 22 20
67 56 35 30 33 44 52 52 61 22 11 6 5 5 6 8 10 11 12 14 17 25 27 24 22 21 22 24 24 27 26 25 27 27 28 30 29 30 25 22 23 20 19 19 22
64 54 28 28 31 40 46 58 60 47 13 9 6 5 6 8 10 12 14 18 20 24 29 34 40 30 27 24 25 24 21 25 26 25 26 28 28 21 23 24 26 26 26 25 23

GFSSW_250_rhum_054.txt.gz
RH
32 28 23 17 10 6 4 4 4 4 3 2 2 2 2 2 2 2 3 4 4 4 4 5 7 7 8 8 8 11 11 15 19 29 51 71 76 79 71 82 90 98 97 100 100
30 30 23 16 12 6 4 4 4 4 3 2 2 2 2 2 2 2 2 3 4 4 4 5 6 8 8 8 8 10 10 13 15 16 26 78 87 73 82 73 80 94 100 100 100
45 28 27 20 16 7 4 4 4 3 3 2 2 2 2 2 2 2 2 3 4 4 4 5 7 8 9 10 8 9 11 14 14 16 17 62 100 90 78 68 82 93 100 100 100
41 27 26 18 13 7 4 3 4 3 3 2 2 2 2 2 2 2 2 3 3 4 5 5 6 8 10 10 10 10 11 12 16 18 20 45 100 100 96 83 84 98 100 100 100
42 32 25 19 12 8 4 3 4 3 2 2 2 2 2 2 2 2 2 3 4 4 5 5 6 9 11 13 11 10 12 13 14 18 23 36 88 100 100 100 94 98 100 99 100
44 35 25 20 14 8 3 3 4 3 2 2 2 2 2 2 2 2 2 2 4 4 4 6 7 9 11 14 13 12 13 16 15 18 19 54 72 100 100 100 100 100 100 100 100
47 35 25 18 13 8 4 4 4 3 2 2 2 2 2 2 1 2 2 2 3 5 4 6 8 9 10 12 14 14 14 17 17 16 21 36 70 100 100 100 100 100 100 100 100
51 33 22 28 14 8 4 4 4 3 2 2 2 2 2 2 1 1 2 2 3 5 6 6 7 10 10 11 16 18 15 15 19 18 18 18 50 87 96 100 100 100 100 100 100
52 31 28 34 14 10 5 4 4 3 2 2 2 2 2 2 1 1 2 2 3 6 7 6 7 10 11 11 12 19 17 16 16 16 18 18 22 60 65 84 100 100 100 100 100
56 39 33 29 19 13 6 4 4 3 2 2 2 2 2 2 1 2 2 2 3 5 8 7 7 9 11 11 12 18 19 18 18 24 21 17 20 22 43 54 86 99 100 100 100
52 42 37 26 21 16 9 4 4 3 2 2 2 2 2 2 2 2 2 2 3 5 10 8 7 10 13 14 13 14 20 21 22 23 23 19 19 21 22 29 46 79 92 97 100
54 44 39 39 23 17 8 3 5 3 2 2 2 2 2 2 2 2 2 2 4 6 10 9 10 10 13 15 15 16 17 22 22 23 22 23 20 19 21 22 20 22 53 85 98
55 42 42 50 32 24 11 5 4 3 2 2 2 2 2 2 2 2 2 3 4 6 12 12 11 13 14 15 15 17 18 22 25 24 18 21 22 21 21 20 22 24 23 31 77
60 49 52 48 34 29 14 6 4 3 2 2 2 2 3 3 2 3 3 4 6 6 10 14 12 12 14 15 17 19 18 20 22 24 22 18 20 23 22 20 22 23 26 21 23
65 50 49 46 45 32 16 6 3 3 2 2 2 2 3 3 3 3 4 5 7 8 10 15 12 12 14 16 18 17 20 19 21 21 21 18 20 23 25 26 23 23 24 24 20
69 52 61 45 55 41 17 6 3 3 3 2 2 2 3 4 3 3 3 4 6 9 12 14 16 14 13 15 17 17 19 18 19 19 22 22 21 25 25 24 23 23 22 26 22
76 55 57 46 55 35 23 7 3 3 2 3 2 2 3 4 4 4 4 4 6 7 13 15 19 20 16 15 16 15 15 16 16 21 24 24 22 29 23 22 21 22 23 25 25
69 57 56 50 50 35 25 8 4 3 3 2 2 2 3 4 4 4 4 5 7 7 7 9 14 16 18 18 16 15 15 18 22 26 30 25 23 30 28 22 21 20 20 23 27
68 61 63 56 46 34 28 10 6 3 2 3 3 2 3 4 5 5 5 5 7 10 12 15 16 22 28 27 24 21 19 22 23 24 24 22 20 25 25 22 22 22 22 21 24
67 68 57 67 43 36 29 16 7 4 3 3 3 3 4 5 5 7 7 6 9 14 20 32 31 32 34 37 36 33 30 26 23 24 22 22 21 22 25 26 23 22 22 21 24
71 76 58 69 41 39 33 25 8 5 4 3 4 3 4 5 5 7 7 6 8 14 21 31 40 41 44 42 45 40 36 33 34 33 28 26 22 23 22 23 24 21 21 22 25
71 75 59 72 37 34 36 30 12 7 5 5 4 4 4 5 6 8 8 8 10 12 21 31 40 47 48 55 57 58 54 48 44 44 36 32 29 25 22 23 24 24 22 23 23
75 66 65 68 32 32 34 41 30 7 7 6 5 4 4 5 7 7 10 10 10 12 20 28 41 52 67 62 69 64 57 53 47 48 51 50 41 35 29 22 21 22 25 24 24
81 60 66 64 28 32 40 48 40 11 10 7 7 5 5 6 6 9 8 12 13 12 14 18 31 47 53 55 54 56 53 51 48 56 62 58 51 41 28 21 18 22 23 23 22
73 61 67 48 26 34 40 48 47 35 12 12 10 8 6 6 7 8 9 11 15 18 16 17 19 27 39 44 53 51 46 43 44 43 48 47 38 33 20 17 18 19 21 24 23
67 58 59 43 26 34 42 50 51 60 28 19 14 10 8 6 7 8 10 10 10 15 20 19 22 21 24 30 37 42 40 37 37 31 31 31 35 29 20 19 18 20 20 24 24
69 55 56 43 30 35 38 50 51 53 56 30 18 15 10 8 7 9 10 12 13 14 15 30 28 25 25 24 26 27 24 27 29 27 33 36 38 25 27 26 28 24 23 24 20

GFSSW_250_rhum_057.txt.gz
RH
45 29 20 16 22 16 9 5 4 3 3 4 3 2 2 2 2 2 2 2 3 3 3 4 5 6 8 8 11 10 10 10 13 12 10 20 23 55 88 84 79 91 100 100 89
43 30 22 15 20 20 8 4 4 3 3 4 3 2 2 2 2 2 2 2 3 3 3 3 4 6 7 9 10 11 10 11 14 12 11 15 21 59 84 85 82 72 91 100 100
44 45 21 16 21 17 9 5 4 3 3 3 3 2 2 2 2 2 2 2 2 3 3 4 4 5 7 10 11 11 12 13 13 12 13 19 31 64 74 65 69 85 96 96 100
47 46 26 20 25 17 10 6 4 3 3 3 3 2 2 2 2 2 2 2 2 3 4 4 5 6 6 9 13 13 14 13 13 14 17 16 28 51 62 71 77 78 90 97 100
49 50 24 25 24 21 11 6 4 2 3 3 3 2 2 2 2 2 2 2 3 3 4 4 5 7 8 11 14 13 13 14 13 15 19 16 17 30 81 100 100 100 100 100 100
58 51 28 26 22 29 17 6 4 2 3 3 3 2 2 2 2 2 2 2 2 3 4 4 5 7 9 10 13 15 14 15 16 15 17 20 16 18 29 98 100 100 100 100 100
68 50 31 32 34 25 14 6 4 2 3 3 3 2 2 2 2 2 2 2 2 3 4 4 5 6 8 12 12 13 13 13 15 16 17 19 19 18 30 58 100 100 100 100 100
70 54 40 37 35 29 14 6 3 3 3 3 2 2 2 2 2 1 1 2 2 3 5 5 5 8 9 11 14 14 17 14 16 19 17 17 22 28 20 31 48 96 100 100 100
69 56 46 40 39 37 14 7 3 3 3 3 2 2 2 2 2 2 2 2 2 3 5 6 6 7 9 10 14 16 17 14 15 18 19 17 20 21 22 22 50 51 59 67 99
73 61 52 45 51 42 21 7 4 4 4 2 2 2 2 2 2 2 2 2 2 4 6 6 6 7 10 11 13 17 15 12 16 18 22 20 20 20 28 21 30 75 80 72 86
74 63 57 48 47 47 25 6 4 5 5 3 2 2 2 2 2 2 2 2 2 3 4 7 7 7 9 14 16 20 21 20 22 21 21 23 21 20 21 40 24 36 89 100 91
71 67 56 55 53 51 26 6 6 6 4 2 2 2 2 2 2 2 2 2 2 3 6 6 9 9 10 12 14 17 18 21 22 21 24 26 25 20 21 26 64 43 80 100 100
68 73 58 52 60 50 32 7 7 7 4 2 2 2 2 2 2 2 2 2 2 4 6 6 11 11 11 13 16 16 19 23 22 23 23 27 26 23 21 22 25 83 78 94 100
71 69 64 71 60 49 36 8 8 8 4 2 2 2 2 2 2 2 2 2 3 4 6 8 14 13 13 14 15 16 16 17 20 23 24 24 23 28 24 23 24 24 95 85 94
74 78 73 77 59 44 46 7 9 8 5 3 2 2 2 3 3 2 2 2 3 6 6 6 14 15 14 16 16 17 17 17 22 21 24 23 24 27 29 27 23 23 23 79 97
80 84 80 78 56 55 46 9 10 8 6 3 2 2 2 3 3 3 3 3 4 5 7 10 15 17 14 14 16 17 19 18 19 18 21 24 24 26 25 27 25 24 23 25 51
81 85 85 71 56 58 50 12 10 9 6 4 2 2 2 3 4 3 3 4 5 6 6 10 17 18 15 16 17 18 18 17 17 20 24 25 25 25 24 26 28 26 24 24 25
85 88 82 66 57 74 46 20 10 9 6 4 3 2 3 4 4 4 4 4 6 9 12 12 16 18 15 15 17 18 19 21 22 24 26 27 23 24 25 22 22 25 28 25 24
94 85 82 62 63 45 36 25 12 8 6 5 4 3 3 4 5 5 4 5 6 8 10 17 23 24 19 17 16 19 19 20 24 26 29 33 26 30 24 21 20 23 23 27 27
99 86 76 60 68 66 40 26 12 8 6 4 4 3 3 4 5 7 6 6 8 8 10 19 28 28 31 24 21 21 22 23 23 24 29 34 29 28 29 24 27 25 24 24 27
99 87 68 60 68 66 37 27 14 8 6 6 4 4 4 4 5 8 7 7 9 13 17 22 26 34 38 35 30 24 22 23 24 29 28 26 24 26 29 26 27 26 23 21 23
99 89 59 65 66 50 39 29 20 9 7 6 6 5 4 5 6 7 8 7 9 14 22 26 35 37 39 43 45 44 40 32 27 32 28 27 26 26 26 24 21 21 19 18 18
99 85 61 61 66 55 39 35 27 13 8 7 7 6 6 5 6 8 10 10 8 10 17 23 30 40 50 53 56 58 58 51 43 38 33 30 30 30 24 21 18 17 18 18 19
100 79 64 67 63 50 38 38 40 28 7 9 8 7 8 7 6 8 10 12 12 12 14 20 26 35 46 51 55 62 63 63 60 63 57 51 43 30 24 20 17 18 19 19 20
99 77 69 72 60 48 36 39 44 45 17 9 11 10 9 7 7 7 10 12 15 14 15 17 21 26 39 48 53 64 66 72 73 56 46 45 35 28 26 22 23 20 21 19 18
92 88 78 70 65 36 32 40 48 49 34 25 14 12 12 11 10 8 8 12 13 18 18 18 21 20 29 38 41 49 58 56 58 56 53 51 43 38 33 31 24 21 17 18 18
89 93 80 65 71 44 31 37 43 53 58 45 28 21 17 16 16 13 9 9 13 15 20 25 22 24 26 28 28 32 30 33 37 42 40 43 43 38 34 30 24 19 18 19 23

GFSSW_250_rhum_060.txt.gz
RH
51 61 46 28 22 17 11 12 6 4 4 3 4 3 2 2 2 2 2 2 2 2 3 3 3 3 4 8 10 12 10 10 14 17 17 30 51 71 99 75 99 81 100 100 100
54 54 46 38 29 22 15 14 7 5 3 4 4 2 2 2 2 2 2 2 2 2 3 3 3 3 4 7 10 10 12 15 17 18 12 12 16 26 93 87 100 95 83 100 100
51 56 44 37 31 24 20 15 7 4 3 4 4 3 2 2 2 2 2 2 2 2 2 3 3 3 4 6 10 10 11 20 16 15 14 12 12 24 36 100 99 100 100 100 100
43 60 44 44 38 21 16 13 6 4 4 4 3 2 2 2 2 2 2 2 2 2 2 3 3 4 4 6 10 11 14 16 17 16 15 15 13 22 30 66 100 100 100 100 100
40 53 44 46 45 23 23 13 7 4 5 4 3 2 2 2 2 2 2 2 2 2 2 3 4 4 5 6 10 10 12 14 19 17 18 16 16 17 20 63 95 100 100 100 100
45 49 46 44 44 27 30 16 8 5 5 5 3 2 2 2 2 2 2 2 2 2 3 3 4 5 6 6 8 10 13 15 20 20 16 19 19 14 16 34 58 97 91 99 100
50 55 52 46 41 32 35 15 9 6 5 5 3 3 2 2 2 2 2 2 2 2 3 4 4 5 6 6 8 11 13 16 19 20 18 17 16 18 15 16 23 40 84 98 100
50 61 57 44 48 31 39 27 9 6 6 5 4 3 2 2 2 2 2 2 2 2 3 4 4 6 7 8 8 10 12 10 17 18 21 19 20 23 13 17 19 25 62 91 95
50 73 56 44 58 44 42 25 9 8 7 5 4 2 2 2 2 2 2 2 1 2 3 4 5 5 7 8 9 10 12 12 16 24 17 20 21 20 20 19 20 20 32 46 42
59 80 56 42 51 43 44 36 12 8 7 4 4 2 2 2 2 2 2 2 1 2 2 4 5 5 7 9 10 12 13 12 13 17 18 20 23 20 26 19 19 20 22 29 35
91 90 58 48 47 54 43 35 10 9 7 5 3 2 2 2 2 2 2 2 2 2 2 4 5 6 7 10 13 18 19 12 15 16 19 23 22 21 20 25 26 20 26 24 40
88 80 57 52 56 56 55 43 13 9 7 6 3 3 2 2 2 2 2 2 2 2 2 4 6 9 8 12 12 16 19 19 17 16 21 22 22 22 23 22 60 30 22 26 38
100 77 55 61 64 62 64 59 12 10 7 6 3 2 2 2 2 2 2 2 2 2 3 4 6 8 8 10 11 14 15 13 14 13 13 19 23 23 27 25 29 76 30 24 30
100 77 63 75 68 51 67 53 14 8 6 5 4 2 2 2 2 2 2 2 2 3 2 4 6 9 11 10 13 13 17 15 15 14 18 19 25 24 26 29 26 39 73 34 26
87 74 77 74 78 68 70 58 15 9 5 5 3 2 2 2 2 2 2 2 2 2 3 4 8 11 14 11 13 15 15 15 15 17 19 20 26 27 27 31 29 30 38 59 71
74 74 83 81 84 64 69 52 20 11 8 5 4 2 2 2 3 3 2 3 3 2 3 5 10 14 16 14 14 16 19 19 21 17 17 23 29 29 28 33 29 30 28 29 35
75 81 91 89 88 70 63 61 17 14 9 5 4 2 2 2 3 3 3 3 4 3 3 6 9 13 18 17 17 16 17 18 20 17 21 26 29 29 31 31 31 30 28 27 26
84 98 97 90 86 70 57 65 17 15 11 5 4 2 2 2 3 4 4 4 4 4 4 5 7 15 19 16 16 17 19 19 22 24 25 26 27 32 31 31 28 26 29 28 26
100 100 100 88 81 65 56 68 20 17 13 6 4 4 2 3 3 4 4 4 5 6 8 8 8 15 20 20 17 16 17 19 22 24 23 24 21 24 25 30 27 27 30 30 29
100 100 100 90 78 61 58 54 29 18 15 8 5 4 3 3 4 5 5 5 5 7 9 10 13 21 22 20 18 16 18 22 24 24 25 26 21 19 17 21 26 27 26 28 29
100 100 100 90 71 59 57 50 38 18 14 9 6 5 4 3 4 5 7 6 6 7 10 13 22 27 26 24 21 20 20 22 23 24 24 24 24 24 22 21 21 26 26 26 26
100 100 98 81 69 62 37 48 38 20 13 11 7 6 6 4 5 5 8 8 8 8 17 22 27 34 34 30 25 23 22 21 21 22 21 21 25 29 27 28 24 23 22 25 28
100 100 97 76 71 64 39 45 40 23 15 12 10 8 7 7 5 6 8 10 10 10 13 16 26 32 35 40 37 30 25 22 21 24 29 28 26 29 31 29 25 22 22 21 21
100 100 94 77 63 65 46 44 39 28 17 14 14 12 11 9 9 7 7 10 12 12 12 13 14 24 32 38 40 38 38 34 30 30 28 28 26 25 26 25 25 25 26 27 22
100 100 89 82 63 62 42 40 42 35 24 14 14 15 12 13 11 12 9 8 11 15 15 15 17 15 20 32 44 53 54 54 59 50 49 41 38 29 26 26 29 26 25 22 22
100 100 94 80 68 66 47 37 37 41 31 33 16 18 14 13 17 18 18 16 10 11 15 18 20 19 21 26 32 34 42 46 47 42 47 47 45 40 40 33 29 22 20 21 22
100 92 93 78 65 69 49 38 35 38 41 42 34 24 28 18 12 17 21 24 19 12 13 18 24 26 22 22 23 29 30 35 36 36 43 52 49 52 51 46 33 28 27 22 21

GFSSW_250_rhum_063.txt.gz
RH
46 44 40 63 44 46 38 34 30 11 6 6 6 4 4 3 2 2 2 2 2 2 2 2 2 3 3 3 4 5 7 11 16 21 16 17 50 87 73 75 100 100 100 100 99
51 45 46 66 48 40 42 38 31 12 6 6 5 4 3 3 3 2 2 2 2 2 2 2 2 3 3 4 4 5 6 15 19 20 16 20 50 76 46 79 100 100 100 100 100
54 52 47 58 60 43 40 42 31 12 7 7 6 4 3 4 2 1 1 2 2 2 2 2 2 3 4 4 4 6 9 16 20 18 18 29 59 76 59 96 100 100 100 100 100
72 52 47 52 67 50 41 48 34 14 8 8 6 4 3 3 2 2 1 2 2 2 2 2 2 3 3 4 4 6 8 14 15 17 19 21 21 28 99 100 100 100 100 94 100
58 62 54 56 68 56 48 64 31 14 9 7 5 4 3 2 2 2 1 2 2 2 2 2 2 3 4 4 5 6 9 11 14 17 23 22 19 16 21 100 100 100 100 100 96
53 60 57 62 66 54 55 64 32 20 10 8 5 4 3 2 2 2 1 2 2 2 2 2 2 3 4 4 6 8 8 9 15 18 24 24 22 17 16 29 100 100 100 100 100
63 59 61 76 69 65 63 52 38 12 12 7 6 4 3 2 2 2 1 2 2 2 2 2 3 3 4 4 6 8 13 10 16 25 21 20 24 22 18 23 50 100 100 100 100
72 71 67 91 75 75 69 49 35 16 9 7 5 4 2 2 2 1 1 2 2 2 2 3 3 4 4 5 5 7 12 8 14 19 21 18 26 24 21 21 34 99 100 100 100
82 83 82 87 69 78 66 51 39 16 9 7 5 3 2 2 2 1 2 2 2 2 2 3 4 4 4 5 6 6 8 7 16 22 18 18 26 26 25 21 21 34 54 88 100
96 94 88 97 94 69 64 64 43 15 9 8 5 2 2 2 2 2 2 2 2 2 2 2 4 5 5 6 6 7 8 13 15 19 12 16 29 26 25 29 20 20 26 40 64
100 100 100 100 99 79 63 71 50 11 10 7 4 2 2 2 1 2 2 2 2 2 2 2 4 6 8 8 8 10 11 15 19 15 14 16 22 23 26 26 25 20 19 29 42
100 100 100 95 90 87 67 61 32 14 10 7 4 3 3 2 1 2 2 2 2 2 2 3 4 7 8 7 9 10 11 17 16 17 18 17 22 24 25 27 26 21 20 22 30
100 100 100 95 100 93 63 56 39 15 10 8 4 4 3 2 2 2 2 2 2 2 2 3 4 5 9 8 10 9 13 16 19 18 15 16 16 26 28 29 26 26 22 20 22
100 100 100 100 100 99 55 51 47 14 10 8 5 4 3 2 2 2 2 2 2 2 2 3 3 5 8 8 11 13 15 20 21 18 17 16 18 18 28 28 27 27 26 22 20
99 100 100 92 100 92 56 57 50 16 9 8 4 4 3 2 2 2 2 2 2 2 3 4 5 10 11 14 11 15 18 20 22 26 20 15 17 15 19 25 32 33 28 27 25
100 100 100 87 97 84 51 67 56 17 11 9 5 3 3 2 2 3 2 2 2 3 3 4 6 7 10 12 12 13 19 20 27 20 12 11 12 16 19 21 30 33 33 31 34
100 91 99 100 88 80 56 82 51 14 11 10 6 3 3 2 2 3 3 2 3 3 4 4 5 7 9 13 13 14 18 24 20 14 16 15 12 16 19 26 32 34 33 31 32
100 97 94 98 96 78 64 69 49 14 10 10 6 4 4 2 2 3 3 3 3 3 4 5 5 8 11 17 17 17 16 17 16 14 14 18 21 21 23 26 27 31 35 35 35
100 97 99 100 100 73 75 62 54 20 11 10 6 3 3 3 2 3 4 3 4 4 5 5 7 13 17 24 21 18 18 20 18 16 18 18 20 20 28 33 33 32 35 37 32
100 92 95 100 100 67 75 63 50 28 12 10 8 4 4 3 3 3 5 5 4 5 6 8 11 13 15 20 24 21 22 26 22 22 23 21 18 19 23 30 30 28 26 32 34
100 94 95 100 90 90 68 56 43 28 16 11 10 6 5 5 4 4 5 6 6 6 8 9 13 15 19 21 24 24 21 20 23 25 24 20 20 22 20 20 23 30 29 31 33
100 93 100 90 86 97 62 52 47 30 18 14 11 6 5 6 6 5 5 8 8 8 8 11 12 17 19 24 25 25 23 22 21 24 26 28 29 27 23 21 21 25 30 32 32
100 100 100 84 98 90 60 46 45 31 18 15 11 10 6 6 7 8 6 8 10 11 11 12 15 22 23 28 28 27 24 22 22 22 26 28 29 30 26 22 20 21 25 28 31
100 100 99 86 100 93 60 43 44 33 22 15 14 14 9 8 8 9 10 8 10 13 14 14 14 17 21 22 27 27 26 25 23 24 24 25 25 24 25 25 24 23 23 21 21
100 100 94 100 100 88 62 48 44 33 25 17 18 17 15 10 9 11 13 13 10 10 15 18 18 16 19 23 28 30 32 29 28 24 26 25 25 24 28 32 31 29 24 22 22
100 100 100 100 98 85 66 42 43 38 32 26 25 23 23 16 14 13 15 18 18 15 12 15 20 24 23 21 25 39 42 42 37 32 32 28 29 28 38 37 30 25 25 25 25
100 100 98 100 100 82 65 45 43 36 34 35 38 35 40 28 20 21 17 18 23 23 20 17 14 16 21 26 31 30 27 42 45 49 55 54 49 45 37 29 26 26 22 21 22

GFSSW_250_rhum_066.txt.gz
RH
42 51 64 57 59 61 63 52 44 44 26 14 14 6 8 6 5 4 3 2 2 2 1 1 1 1 2 2 3 4 4 4 9 15 19 15 47 100 100 100 100 100 90 91 100
50 52 60 68 64 62 64 56 52 40 27 20 18 6 7 6 6 4 3 2 2 2 1 1 2 2 2 3 3 4 4 4 9 16 20 19 19 60 100 100 100 100 88 83 100
58 61 62 68 61 63 76 46 57 35 29 29 13 5 7 7 6 3 2 2 2 2 1 2 2 2 2 3 3 3 4 4 7 12 20 23 21 29 77 100 100 100 95 100 100
68 73 73 67 70 77 71 45 59 34 26 28 9 6 7 6 4 3 2 2 2 1 2 2 2 2 2 3 3 4 5 5 8 12 21 26 23 22 47 100 100 100 100 100 98
83 60 81 83 84 75 60 69 50 36 29 25 7 7 6 5 3 2 2 2 2 1 2 2 2 2 3 3 4 5 5 6 7 11 18 25 24 23 65 95 100 100 100 100 100
73 95 100 98 81 80 64 58 44 34 37 17 7 7 6 4 3 3 2 2 1 2 2 2 2 2 3 4 4 4 6 6 6 11 18 23 28 21 46 63 100 100 100 100 100
64 88 97 99 85 76 78 68 41 34 30 15 7 7 5 4 3 3 2 1 2 2 2 2 2 3 3 4 4 4 6 8 7 11 18 23 27 25 27 88 94 100 100 100 100
68 100 100 84 92 70 64 66 39 46 24 8 7 7 5 3 3 2 2 1 2 2 2 2 2 3 4 4 4 5 6 6 6 12 13 20 27 26 25 38 96 98 100 100 100
100 99 86 93 92 57 85 54 47 39 18 8 7 8 4 3 2 2 1 1 2 2 2 2 3 4 4 4 4 5 7 8 8 11 20 22 25 26 28 28 58 100 100 100 100
91 100 100 99 94 55 81 61 48 44 20 9 8 8 3 2 2 2 2 2 2 2 2 3 3 4 4 4 5 6 7 12 11 9 17 19 27 29 28 30 35 80 100 100 100
100 100 100 100 89 72 80 55 56 37 14 6 9 5 3 2 2 2 2 2 2 2 2 2 3 4 5 6 7 10 11 12 13 13 15 24 30 31 28 33 29 30 100 100 100
100 100 100 83 69 99 74 62 58 40 13 8 7 4 3 2 3 2 2 2 2 2 2 2 3 4 6 8 7 9 11 13 11 14 10 17 30 24 28 30 40 33 51 100 100
100 100 100 87 97 86 80 58 61 29 13 7 8 4 3 2 3 2 2 2 2 2 2 2 3 4 6 8 7 9 13 13 16 18 17 9 16 13 18 31 34 52 29 36 74
100 100 100 97 93 79 63 84 55 33 7 10 8 4 2 2 2 2 2 2 2 2 2 2 3 4 6 10 10 11 14 12 11 20 22 11 11 13 14 22 34 33 47 28 26
100 100 100 100 96 73 71 72 64 29 7 10 9 5 3 2 2 2 2 2 2 2 2 3 3 3 7 14 13 12 13 13 13 16 20 18 11 12 12 18 26 33 36 46 28
94 100 100 100 100 79 82 74 56 31 9 10 9 5 4 2 2 2 2 2 2 2 2 3 4 5 10 15 13 11 14 13 14 17 17 15 10 12 11 15 22 29 34 37 37
100 88 98 100 88 79 78 70 62 38 10 11 8 6 4 3 2 2 3 2 2 2 3 4 6 7 10 13 17 15 17 17 19 25 20 14 12 13 11 16 19 26 38 39 39
90 100 100 100 87 86 78 72 70 39 11 12 7 7 4 3 3 2 3 2 3 3 3 5 6 5 8 16 20 16 16 17 19 22 21 18 18 20 19 19 19 23 29 38 40
81 100 100 72 97 89 62 82 73 36 11 10 8 7 4 3 4 3 4 3 4 4 4 5 6 6 12 19 20 19 19 15 21 25 25 22 24 30 34 26 19 19 24 31 36
85 100 100 100 96 90 63 78 76 34 12 11 11 7 4 3 3 3 4 4 4 5 5 5 8 10 18 20 25 26 24 25 19 19 24 24 22 21 22 19 16 22 19 20 24
90 100 100 99 100 73 64 84 76 30 13 13 13 7 6 4 4 4 4 6 5 6 6 6 7 8 15 22 28 29 24 24 25 22 19 17 19 19 21 20 20 20 21 21 21
100 100 90 100 96 84 59 83 71 31 15 15 14 7 5 5 4 6 4 6 8 8 7 7 8 10 11 16 22 25 26 24 23 19 19 20 23 22 20 22 26 30 31 32 30
100 100 98 100 100 72 69 83 60 29 21 15 14 10 6 6 5 7 6 6 8 11 14 12 11 12 12 12 16 24 28 26 23 22 19 20 22 22 21 22 22 23 23 25 28
100 100 100 100 99 69 79 77 52 32 25 18 14 13 11 9 8 8 10 8 9 10 13 15 15 16 15 16 17 25 29 30 29 27 24 22 22 23 22 20 20 21 22 23 25
100 100 100 100 92 81 78 68 52 37 25 21 16 13 16 13 10 10 10 14 15 14 11 12 17 19 21 20 20 21 24 29 28 26 26 24 22 24 24 23 22 24 21 20 20
100 100 100 100 98 93 80 64 44 35 29 26 25 23 23 22 16 14 15 13 15 18 17 16 14 16 23 26 25 28 30 32 28 29 28 24 24 28 31 32 28 21 19 20 22
100 100 95 100 100 88 81 48 40 37 33 32 35 36 34 30 33 34 28 22 22 22 24 27 24 20 18 20 24 25 29 29 31 35 32 29 25 25 24 23 24 26 26 23 23

GFSSW_250_rhum_069.txt.gz
RH
74 76 76 64 55 44 47 51 43 72 72 43 38 16 21 13 12 12 7 5 4 3 3 2 2 1 1 1 1 2 2 2 2 3 5 10 12 21 33 100 100 100 79 100 100
93 84 62 62 55 50 54 58 58 59 60 42 31 16 14 10 10 10 7 6 3 2 2 2 1 1 1 2 2 1 2 2 3 5 5 11 12 24 56 100 100 100 85 100 100
76 52 43 49 52 55 53 59 58 57 63 49 25 17 10 10 11 8 7 5 3 2 2 1 1 1 1 2 1 2 2 3 3 5 6 10 14 22 94 100 100 100 100 100 100
75 46 51 50 70 60 58 59 61 69 48 51 37 13 11 10 10 9 7 4 3 2 2 1 1 1 1 2 2 2 3 3 4 5 5 11 14 19 89 100 100 100 100 100 96
51 52 74 73 73 57 59 65 71 90 57 42 30 13 10 10 8 8 6 3 2 2 2 2 1 1 2 2 2 2 3 4 6 7 8 11 16 23 57 100 100 100 100 100 86
60 81 77 55 53 69 69 83 59 71 44 40 18 11 8 10 9 6 4 3 2 2 2 1 1 2 2 2 3 3 4 5 6 7 8 13 16 29 49 100 100 100 100 100 100
57 47 56 75 75 84 85 81 61 48 51 26 16 8 7 9 8 5 3 2 2 2 1 2 2 2 2 3 3 4 5 7 6 7 9 11 18 39 62 100 100 100 100 100 98
57 70 78 76 87 85 76 86 68 56 56 19 13 7 9 8 6 3 2 2 2 1 2 2 2 2 3 3 4 4 4 4 4 7 9 12 20 36 76 89 100 100 100 100 100
61 67 80 86 93 73 59 73 62 60 40 21 10 7 9 7 4 3 2 2 2 1 2 2 2 3 3 3 4 4 5 7 7 6 10 11 18 52 90 86 100 100 100 100 100
69 82 97 92 83 70 72 80 72 48 34 22 8 8 10 6 3 2 2 2 1 1 2 2 3 3 3 3 4 4 4 7 11 8 16 29 18 29 100 99 99 100 100 100 100
21 43 100 83 92 88 71 100 60 42 35 19 6 9 9 5 3 2 2 2 1 2 2 2 3 4 4 4 4 4 5 6 10 16 12 18 18 25 94 100 97 100 100 100 100
15 24 45 98 88 75 99 79 48 40 28 10 7 10 6 4 3 2 2 1 2 2 2 2 3 4 4 5 5 5 7 9 8 16 8 20 18 24 34 100 100 100 100 100 100
16 21 39 67 56 92 100 66 53 35 21 9 9 8 4 3 3 2 2 2 2 2 2 2 3 4 5 6 6 5 8 10 10 17 12 39 16 22 39 48 100 100 100 100 100
16 16 37 66 76 100 91 63 44 28 14 7 12 8 4 3 2 2 2 2 2 2 2 2 3 4 6 9 9 8 12 10 11 15 15 22 23 11 23 44 100 100 100 100 100
15 21 55 51 85 100 70 59 46 30 8 13 12 6 4 3 3 2 2 2 2 2 2 2 4 5 6 6 11 10 16 27 17 17 22 18 34 20 20 27 52 100 100 100 100
17 32 79 62 87 78 64 62 49 32 17 14 11 7 4 3 3 2 2 2 2 2 2 2 4 5 6 12 13 16 17 26 24 21 22 16 24 29 22 18 26 39 71 77 82
21 50 42 77 98 67 75 72 49 28 16 14 10 6 5 5 3 2 2 2 2 2 2 3 3 4 6 10 12 14 21 23 27 25 37 21 12 21 30 26 17 28 39 50 60
30 61 40 93 87 76 88 85 45 19 13 14 10 6 5 5 3 3 2 2 2 2 2 4 5 6 10 15 19 16 15 18 27 29 30 30 18 13 22 32 13 12 23 39 47
70 42 91 100 89 89 99 72 52 31 12 13 9 7 5 4 3 3 3 3 3 3 3 4 6 9 15 16 19 22 21 14 18 22 28 23 19 22 19 16 12 12 13 22 37
58 78 100 100 98 98 98 94 72 28 14 11 8 7 5 4 3 3 3 3 4 4 4 4 6 9 12 15 22 18 24 23 20 21 20 18 18 15 14 12 12 13 13 14 18
52 97 100 100 100 92 100 100 66 18 13 12 10 7 5 5 4 4 4 4 4 5 5 4 7 10 18 22 28 32 25 22 28 33 31 24 23 22 22 20 19 19 22 24 20
100 100 100 100 99 100 100 100 58 23 13 14 11 8 6 6 4 6 6 5 6 6 7 7 6 8 10 16 21 23 28 30 28 26 24 30 28 16 21 24 26 30 34 34 26
100 100 100 100 100 100 100 77 52 22 12 15 12 8 6 6 5 7 8 7 7 9 10 9 10 10 10 12 16 21 24 25 24 26 28 25 24 21 21 21 25 27 27 24 22
100 100 100 98 100 100 100 66 50 29 19 13 14 11 8 7 7 9 11 10 9 9 11 12 15 16 16 16 16 18 23 27 28 24 22 20 23 22 20 22 23 22 24 27 28
100 100 100 100 100 100 91 60 41 30 25 18 17 15 13 11 11 10 12 13 14 14 14 12 12 14 18 23 27 28 24 22 25 28 29 27 23 20 20 19 20 21 22 22 22
100 100 100 100 100 100 70 48 36 31 27 23 26 24 25 21 17 14 15 17 23 23 22 23 26 20 18 20 23 24 31 40 37 34 35 34 32 28 27 25 24 25 24 21 19
100 100 100 100 100 95 55 43 37 34 31 29 32 29 31 32 29 29 25 29 30 29 29 30 32 31 36 33 26 21 18 22 26 33 43 48 43 39 34 30 27 26 26 27 26

GFSSW_250_rhum_072.txt.gz
RH
36 37 74 90 67 75 100 95 76 60 47 49 46 45 42 40 17 14 18 13 19 14 9 5 4 3 3 2 2 2 2 2 2 2 2 4 3 4 6 11 14 100 71 36 100
43 58 86 92 89 99 100 90 78 48 51 65 44 45 43 22 18 18 12 14 18 13 8 4 4 3 2 2 2 1 2 2 2 2 2 3 3 4 6 12 20 100 74 26 80
80 96 100 98 100 97 100 56 55 46 64 50 55 48 30 18 12 15 12 17 17 11 6 5 3 2 2 1 1 1 2 2 2 2 2 2 3 4 5 16 24 100 99 59 84
88 91 59 54 93 100 74 56 48 49 43 61 44 36 21 12 12 9 12 17 17 10 6 4 2 2 1 1 1 1 2 1 1 2 2 2 3 5 6 20 28 100 100 33 66
65 66 63 60 46 80 81 65 70 65 62 43 39 32 17 12 10 9 12 16 14 7 5 3 2 1 1 1 1 1 1 1 2 2 2 3 4 6 7 15 35 100 100 68 73
81 81 94 77 67 60 57 55 76 83 52 46 31 28 13 9 9 9 13 13 9 5 4 2 2 2 1 1 1 1 1 2 2 2 3 4 5 7 8 16 60 100 100 100 85
87 84 57 48 87 66 67 66 65 46 59 56 29 19 10 8 8 10 14 10 5 3 2 2 2 2 1 1 2 2 2 2 2 3 4 5 5 7 11 19 95 100 100 100 98
63 72 53 55 56 73 59 94 71 71 41 42 25 12 8 7 8 13 11 6 4 2 2 2 2 1 1 2 2 2 2 2 3 4 5 5 6 8 15 28 95 100 100 100 100
10 14 14 13 32 41 52 57 49 51 31 22 15 10 6 7 9 10 7 4 2 2 2 2 1 1 2 2 2 2 3 4 4 5 6 7 10 15 20 28 100 100 100 100 100
9 7 8 8 16 25 39 44 33 22 15 16 10 7 6 10 11 8 5 3 2 2 2 1 2 2 2 2 3 3 4 4 4 5 5 7 10 18 26 32 100 100 100 100 100
9 10 12 13 19 18 18 20 22 11 12 11 8 6 7 11 9 6 3 2 2 2 2 2 2 2 3 3 3 4 4 5 5 7 8 10 8 27 33 38 100 100 100 100 100
8 11 12 13 13 13 13 13 11 12 14 9 7 5 9 8 6 3 3 2 2 2 2 2 2 2 3 3 4 4 4 4 5 5 7 8 10 30 58 72 100 100 100 100 100
8 10 12 13 12 12 13 18 15 17 11 9 6 6 11 6 4 2 2 2 2 2 2 2 2 2 3 4 4 4 5 5 7 5 8 8 12 39 77 76 100 100 100 100 100
7 8 12 12 13 16 17 18 20 13 9 8 6 11 7 5 3 2 2 2 2 2 2 2 2 2 4 5 5 5 5 5 7 8 10 14 38 27 64 100 100 100 100 100 100
6 8 16 14 13 23 21 28 21 15 8 8 9 10 6 4 2 2 2 2 2 2 2 2 2 3 4 5 5 6 6 8 11 11 17 34 37 34 73 100 100 100 100 100 100
5 7 16 14 46 30 38 44 29 17 9 9 11 8 5 3 2 3 2 2 2 2 2 2 3 4 5 7 9 10 10 13 12 12 22 20 32 34 29 86 100 100 100 100 100
4 9 14 28 54 49 65 41 39 13 9 11 14 6 4 3 3 2 2 2 2 2 2 2 3 4 5 6 9 16 15 17 15 22 27 31 38 33 25 44 100 100 100 100 100
7 10 19 47 49 70 72 52 30 13 13 18 9 7 4 3 3 2 2 2 2 2 2 3 3 3 5 8 9 14 29 23 27 25 28 36 54 29 25 22 55 100 100 100 100
6 16 42 60 58 82 78 43 25 19 18 11 9 5 4 4 3 2 3 3 3 2 3 4 6 6 6 7 11 13 17 28 40 40 48 40 29 32 19 19 31 73 100 100 100
9 40 67 62 74 100 80 47 24 19 15 11 7 5 4 3 3 3 3 3 3 3 4 3 5 8 13 14 15 14 15 16 17 25 43 46 30 19 25 22 21 38 62 100 100
28 55 74 92 100 100 95 39 23 18 14 9 7 5 4 3 4 4 3 3 4 4 5 6 6 5 9 12 16 15 16 20 18 24 22 35 35 29 19 42 32 24 26 50 100
46 80 100 100 100 100 86 37 19 18 14 10 8 6 5 3 4 4 4 4 5 6 6 6 7 8 9 10 13 18 20 19 19 18 18 17 19 20 16 12 26 22 16 16 25
99 100 100 100 100 100 67 32 23 18 17 12 8 7 6 5 4 6 7 6 6 7 8 10 11 12 10 16 19 22 27 24 26 27 25 22 20 20 19 18 19 19 25 26 21
98 100 100 100 100 89 60 37 25 19 17 12 10 8 7 6 6 8 10 10 10 9 10 12 13 15 22 22 23 22 25 30 30 32 32 29 25 24 24 24 23 25 26 25 23
90 100 100 100 97 73 56 38 26 24 16 13 12 11 9 8 8 11 16 18 18 17 17 20 16 16 18 18 21 30 38 38 35 37 41 40 39 34 32 33 36 32 30 33 32
100 100 100 100 82 61 46 41 34 28 21 17 15 14 11 13 15 12 16 20 23 27 33 28 25 23 25 24 22 24 24 23 26 34 46 49 46 41 39 34 32 29 27 26 26
100 100 100 96 72 52 42 38 37 32 29 27 25 23 23 24 24 23 20 23 31 36 41 43 43 38 38 35 32 27 28 28 28 28 28 27 27 33 40 44 43 38 34 30 26

GFSSW_250_rhum_075.txt.gz
RH
35 36 37 45 48 43 36 34 40 48 60 59 55 77 72 89 73 43 51 32 29 18 16 14 12 13 12 11 6 4 4 4 4 5 6 6 5 4 4 4 4 6 10 12 7
56 55 62 62 62 55 47 46 45 47 41 56 56 64 52 50 77 46 45 29 26 14 13 12 12 15 8 7 5 3 3 6 3 3 4 3 5 5 5 5 4 5 10 12 8
84 75 76 87 76 72 72 77 59 55 69 67 67 66 53 49 52 43 38 26 17 11 11 12 13 12 8 5 3 2 4 4 3 3 3 3 3 4 4 4 5 6 14 18 13
100 95 94 96 89 70 85 90 85 70 72 76 70 73 61 51 56 38 36 18 12 11 11 13 13 10 6 4 2 2 3 2 2 2 2 2 2 3 3 3 7 12 16 26 14
55 61 99 100 87 94 79 96 92 87 86 86 81 64 54 47 34 32 21 12 11 10 11 15 12 8 6 4 2 3 2 2 2 1 2 2 2 2 3 4 6 14 16 71 23
16 12 20 27 54 86 47 53 90 98 82 93 80 56 37 24 21 17 12 8 9 11 14 12 7 6 4 3 2 2 2 1 1 1 1 1 1 2 3 3 5 12 38 100 41
15 14 10 10 10 18 19 36 47 84 100 71 50 19 14 14 16 12 7 8 9 14 10 6 5 4 3 3 2 1 1 1 1 1 2 2 2 2 3 3 5 14 54 100 76
13 15 13 13 8 8 9 10 15 56 57 38 24 13 12 10 8 6 7 8 11 10 7 5 4 3 2 2 1 1 1 1 1 2 2 2 2 3 3 3 8 16 94 100 100
16 10 11 13 10 8 10 7 12 12 9 9 8 7 7 8 5 6 8 8 8 6 5 4 3 2 2 1 2 2 1 2 2 2 2 3 3 4 4 5 12 26 100 100 100
12 11 11 11 10 10 10 8 9 8 7 5 5 5 5 4 5 6 8 8 6 4 4 3 2 2 2 2 2 2 2 2 2 3 4 4 5 4 5 6 20 32 100 100 100
8 8 10 11 10 13 10 10 7 7 7 7 5 4 3 4 6 6 7 7 5 4 3 3 2 2 2 2 2 2 2 3 3 4 4 4 4 5 6 12 31 86 100 100 100
6 6 8 8 11 13 9 11 9 9 9 7 4 2 4 6 6 6 5 5 4 3 2 2 2 2 2 2 2 3 3 3 3 4 6 6 6 7 10 24 46 100 100 100 100
5 5 6 7 9 9 10 10 10 9 7 4 3 3 5 7 6 5 4 4 2 2 2 2 2 2 2 2 3 4 4 4 4 6 6 8 11 13 23 28 87 77 100 100 100
4 4 6 7 8 8 10 10 10 9 7 5 4 6 5 5 4 4 4 3 2 2 2 2 2 2 2 2 4 4 5 5 4 5 6 7 10 9 27 32 100 100 100 100 100
2 3 6 8 8 8 8 10 11 8 7 6 8 6 5 6 4 4 3 2 2 2 2 2 2 2 2 3 4 5 6 6 5 6 8 13 26 12 34 43 96 100 100 100 100
2 4 6 7 8 7 9 11 9 9 7 8 8 8 6 5 4 3 2 2 2 2 2 2 2 2 3 4 5 6 6 5 6 8 9 18 17 14 38 64 49 100 100 100 100
2 3 4 7 7 7 9 9 10 8 11 12 10 9 6 5 3 3 2 2 2 2 2 2 2 3 3 5 6 8 8 8 9 9 12 9 14 25 44 65 68 100 100 100 100
2 3 4 6 6 8 9 11 12 14 20 15 10 7 5 3 3 3 2 2 2 2 2 2 2 3 4 6 8 10 11 11 14 15 14 14 20 23 36 71 63 100 100 100 100
4 5 5 5 7 12 13 15 18 29 16 12 8 5 4 4 3 2 2 2 2 2 2 2 4 4 5 7 10 12 13 15 18 19 16 33 34 26 30 69 79 89 100 100 100
5 7 6 7 12 12 18 30 34 23 13 8 6 5 4 3 2 2 2 2 2 2 3 3 4 5 6 8 11 12 12 20 21 22 22 28 27 29 20 69 87 88 100 100 100
8 9 10 18 17 28 36 35 22 13 9 7 6 5 4 3 2 2 2 3 3 3 3 4 5 5 10 10 13 12 14 14 17 19 17 22 24 29 20 22 72 100 99 100 100
10 15 26 36 41 51 54 20 14 11 9 7 6 6 4 4 4 3 4 3 4 4 4 4 5 7 8 10 13 18 22 19 18 18 17 20 26 28 36 30 30 69 90 100 100
22 58 55 53 69 59 24 19 14 11 9 9 8 6 6 5 4 5 6 6 6 7 8 6 6 7 9 12 17 17 30 32 31 29 25 21 24 25 33 34 30 37 56 100 100
67 71 59 58 62 27 23 18 14 11 12 10 8 7 6 6 6 9 10 11 11 11 11 11 12 12 12 12 12 15 23 32 38 42 41 35 36 36 30 28 32 31 29 26 84
70 56 65 58 36 24 22 18 15 14 15 10 9 8 8 8 11 13 14 16 19 22 22 21 22 19 18 19 21 19 16 16 22 29 29 32 33 31 33 36 34 28 26 35 41
59 69 57 36 30 25 22 18 15 14 12 11 8 8 9 10 11 11 14 20 24 24 24 26 30 33 33 35 38 40 36 32 29 26 26 28 26 27 29 29 30 29 26 22 20
79 65 39 35 35 30 28 20 20 18 16 16 13 13 16 18 20 20 20 26 30 39 40 38 40 48 50 45 43 45 45 40 45 49 50 51 50 44 44 41 35 31 26 26 28

GFSSW_250_rhum_078.txt.gz
RH
100 94 86 58 66 44 37 43 34 33 38 38 41 57 51 47 48 46 43 42 38 42 40 30 30 28 23 25 19 10 14 17 17 11 9 7 6 5 4 3 3 3 5 6 6
77 85 99 92 99 90 55 44 42 44 36 49 48 60 67 55 55 56 56 51 47 40 39 37 26 23 17 22 16 11 14 15 12 9 9 7 6 5 3 4 3 3 3 5 5
27 59 58 81 78 72 71 54 78 57 47 51 70 54 58 66 57 58 53 53 40 37 38 35 23 11 15 17 12 11 14 10 8 6 7 6 5 4 4 3 4 4 5 5 6
17 15 19 28 27 30 39 66 74 72 48 45 50 78 70 50 52 50 51 34 30 37 38 28 14 12 15 12 10 11 8 5 7 6 6 5 4 3 4 4 4 5 5 6 6
21 20 17 15 12 12 13 15 31 54 42 24 27 32 55 42 33 31 27 27 36 30 23 11 9 12 11 10 8 7 5 5 6 5 4 3 3 5 5 4 4 5 6 8 8
41 27 21 18 15 13 13 12 14 13 13 9 9 13 19 35 22 16 16 21 24 12 8 9 11 10 11 8 5 4 4 4 5 3 2 2 3 3 3 3 3 4 5 6 9
45 37 26 19 15 14 14 12 9 7 7 7 6 6 6 8 9 9 9 13 9 8 8 9 10 9 7 5 5 4 4 3 4 3 2 2 2 2 2 2 3 4 5 7 10
42 40 36 26 16 13 12 10 8 7 7 6 5 6 4 4 5 5 6 6 7 6 8 9 8 6 5 5 4 4 4 3 2 2 2 1 1 1 2 2 2 4 6 9 24
21 35 36 25 17 14 9 9 7 8 7 6 7 4 4 4 3 3 3 4 5 6 7 7 6 5 4 4 3 3 2 2 1 1 1 2 2 2 2 3 3 4 7 12 33
11 12 14 15 18 13 9 8 6 8 8 7 6 4 3 3 3 3 3 5 6 7 6 5 4 4 3 3 2 2 1 1 2 2 2 2 2 2 2 3 4 4 7 16 34
6 5 6 8 9 11 9 9 8 8 7 7 5 4 3 3 2 3 4 6 6 5 5 4 4 3 2 2 1 1 2 2 2 2 2 2 2 2 3 3 4 6 10 26 98
3 3 3 5 7 9 9 12 10 9 7 7 5 4 3 3 4 4 5 5 5 5 4 4 3 2 2 1 1 2 2 2 2 2 2 3 2 3 3 4 6 8 18 27 86
2 2 2 3 5 7 10 12 10 8 9 6 5 4 4 4 5 4 4 5 5 4 3 2 2 2 1 2 2 2 2 2 2 3 3 3 3 4 5 7 8 14 14 46 100
2 1 1 2 4 6 8 10 8 9 7 7 7 4 4 6 4 4 4 4 3 2 2 2 2 2 2 2 2 2 2 2 3 3 3 4 4 6 7 8 11 46 60 93 100
1 1 1 2 4 4 7 7 8 8 7 8 7 7 4 5 4 4 3 3 2 2 2 2 2 2 2 2 2 2 3 4 4 4 4 6 6 7 9 10 31 58 84 100 100
1 1 2 3 3 4 4 7 8 7 8 7 8 8 5 4 4 3 2 2 2 2 2 2 2 2 2 2 2 3 5 5 5 5 6 8 7 13 16 17 70 71 100 100 100
1 2 2 3 2 2 6 7 6 9 8 11 11 6 5 4 3 3 2 2 2 2 2 2 2 2 2 3 4 4 6 6 7 7 6 9 10 12 21 42 58 74 100 100 100
1 1 2 2 3 4 5 8 10 9 16 12 7 5 4 4 3 2 2 2 2 2 2 2 2 2 3 4 6 8 8 8 9 9 10 13 14 13 31 60 76 100 100 100 100
2 3 4 4 5 6 9 9 14 15 10 8 6 5 4 4 3 2 2 2 2 2 2 2 3 4 5 6 8 9 10 12 13 18 20 21 22 23 30 37 82 100 100 100 100
4 5 6 7 9 9 14 15 12 10 9 7 6 5 5 3 3 2 2 2 2 2 2 3 4 5 7 8 10 11 13 18 18 20 27 38 27 25 51 56 82 98 100 100 100
6 10 9 10 12 16 13 12 11 10 7 6 5 4 4 3 3 3 2 2 2 2 2 3 4 5 8 11 12 13 17 17 17 22 30 40 46 54 47 64 82 97 100 100 100
10 10 13 16 15 15 14 11 9 7 6 6 5 4 4 4 4 3 3 3 3 3 3 4 5 7 10 15 20 21 19 19 21 16 22 35 43 57 56 54 73 73 100 100 100
13 18 17 16 14 13 12 10 8 7 7 6 5 5 5 5 4 4 3 4 4 5 5 6 8 8 10 15 21 30 34 34 30 30 28 28 34 35 35 33 48 79 100 100 100
20 18 15 14 14 15 12 10 8 8 8 8 7 6 6 5 6 6 6 7 7 8 8 9 10 11 12 12 12 16 19 29 31 29 35 35 40 45 47 46 41 49 73 100 100
17 15 15 18 19 17 14 12 11 11 10 8 7 8 8 8 10 12 14 15 16 18 19 20 22 21 17 17 20 18 20 21 24 25 26 27 28 28 31 34 43 48 59 78 88
19 19 21 22 19 18 16 15 14 12 10 11 10 10 11 11 11 11 14 18 21 23 23 22 23 23 26 28 31 38 40 37 33 33 31 32 33 31 34 36 35 35 32 46 86
24 23 22 19 17 16 15 15 14 11 10 10 9 9 12 13 16 21 26 28 32 35 35 34 33 30 32 35 38 38 37 39 42 40 46 48 51 47 47 40 39 35 31 29 28

GFSSW_250_rhum_081.txt.gz
RH
18 16 16 23 37 45 38 36 42 36 30 36 34 34 30 29 38 28 27 28 33 42 43 40 40 37 33 30 27 30 32 28 32 31 40 28 17 15 10 8 6 4 4 4 6
22 20 17 13 14 12 12 12 20 35 42 36 26 27 26 28 36 36 26 26 31 34 35 35 39 38 35 26 27 26 20 21 25 28 29 15 13 12 6 6 6 5 4 4 5
37 28 24 20 17 14 12 10 10 11 23 32 40 25 24 28 25 34 26 20 25 26 28 36 28 28 24 27 34 23 16 20 24 23 15 11 8 7 5 7 8 7 5 4 6
37 37 30 25 18 16 13 12 12 11 12 18 23 31 18 22 18 28 31 24 19 22 23 20 18 16 15 17 18 13 17 20 20 15 12 9 7 5 5 8 7 6 5 4 6
54 42 42 33 25 19 16 14 11 11 12 11 11 14 18 20 14 14 21 29 21 16 12 12 11 10 11 12 12 15 11 13 18 12 8 5 5 5 5 7 6 7 4 4 6
69 74 56 31 28 26 17 17 15 11 11 10 10 7 6 5 6 8 10 13 15 12 12 8 7 7 8 8 10 11 12 12 9 5 5 4 5 3 6 6 7 6 4 4 8
69 61 61 35 25 27 24 17 18 13 11 10 9 9 6 6 6 5 8 8 8 8 8 6 6 5 7 8 7 7 9 6 5 3 4 4 4 6 5 5 4 5 5 6 8
50 33 35 31 25 22 22 21 17 15 11 11 8 7 7 8 7 6 5 4 4 5 5 4 5 6 5 7 7 6 4 3 3 4 6 3 5 5 4 5 4 5 5 6 7
32 13 9 10 12 15 16 16 16 13 11 11 8 7 8 9 7 5 4 3 3 3 4 4 4 5 6 5 4 3 2 3 4 4 4 3 5 3 3 3 3 4 4 5 6
5 4 4 4 6 8 12 12 12 12 12 10 7 8 8 8 5 4 3 3 3 3 3 4 4 3 3 3 3 3 3 4 4 4 4 3 2 2 2 2 2 3 3 4 5
2 2 3 3 3 5 8 9 9 12 10 8 8 9 6 5 5 4 4 4 4 4 3 3 3 3 2 3 4 3 3 3 3 3 2 2 2 2 2 2 2 2 3 4 5
2 2 2 2 2 2 5 7 7 9 10 10 11 7 5 6 5 5 5 5 4 3 2 2 2 3 3 4 3 3 3 2 2 2 2 2 1 2 1 1 2 2 3 5 10
2 2 1 2 2 2 3 5 6 7 10 15 8 6 6 5 5 5 5 4 3 3 3 3 3 4 4 3 3 2 2 2 2 2 2 2 2 2 2 2 2 3 4 8 17
1 1 1 1 2 2 3 4 6 7 10 7 6 6 6 5 5 5 5 4 4 3 3 4 3 3 3 2 2 2 2 2 2 2 2 2 2 3 3 2 3 4 6 10 32
1 1 1 1 2 2 2 4 6 7 7 6 7 7 7 8 8 8 7 5 4 3 4 3 3 2 2 1 2 2 2 2 2 2 3 3 3 3 3 4 4 5 8 12 51
1 1 1 2 2 2 2 4 4 5 6 6 7 9 10 11 10 7 5 4 3 3 2 2 2 2 2 2 2 2 2 2 3 4 4 4 4 4 4 5 7 8 11 36 95
1 1 1 2 2 2 3 4 4 6 6 8 10 12 12 9 6 5 4 3 2 2 2 2 2 2 2 2 2 3 3 4 4 5 5 5 5 7 6 8 22 26 38 86 100
1 1 2 2 2 3 4 5 5 8 9 10 18 15 9 6 4 4 2 2 2 2 2 2 2 2 2 3 3 4 6 6 7 7 7 8 9 11 11 20 70 100 97 100 100
2 2 2 3 3 4 4 5 8 10 18 19 12 7 4 4 3 2 2 2 2 2 2 2 2 3 3 4 6 8 9 9 12 13 11 13 16 23 44 88 90 72 100 100 100
3 4 4 4 5 5 5 7 19 21 12 8 5 4 4 3 2 2 2 2 2 2 2 2 3 4 4 6 8 9 11 13 18 20 25 28 28 49 50 100 67 90 100 100 100
6 5 6 6 6 8 12 15 12 8 6 5 4 3 3 2 2 2 2 2 2 2 3 3 4 5 7 9 12 13 13 16 18 25 38 37 31 35 71 82 94 97 100 98 100
6 19 8 12 15 12 9 8 7 6 5 4 4 3 3 3 3 3 3 3 3 3 3 4 4 6 10 15 16 16 14 17 23 41 43 52 44 55 64 73 79 100 100 100 100
17 15 11 9 7 7 7 6 6 5 5 4 3 4 3 3 3 3 3 3 3 4 4 5 5 6 9 12 16 20 26 28 33 45 40 42 42 47 74 79 92 100 100 100 100
10 9 8 7 7 6 6 6 6 5 5 5 6 5 4 4 4 5 5 5 5 5 5 6 7 8 10 11 10 16 20 25 30 39 56 62 63 61 60 59 68 98 100 100 100
11 10 9 7 5 6 6 6 6 8 8 7 6 6 6 6 8 10 11 12 13 12 11 11 11 10 12 13 14 17 19 24 24 27 33 48 59 73 62 74 75 75 97 100 100
13 12 10 9 9 9 10 11 11 11 10 8 9 9 10 12 14 16 18 21 22 22 23 22 20 23 25 28 31 32 30 25 25 24 26 27 26 28 27 25 25 43 81 100 100
17 17 16 16 15 15 14 14 13 12 11 12 13 13 15 17 19 19 21 23 23 25 28 28 29 28 29 29 31 34 34 35 37 40 38 43 43 42 44 42 35 30 42 69 88

GFSSW_250_rhum_084.txt.gz
RH
36 35 35 26 22 24 21 21 34 40 44 72 52 69 49 33 35 30 28 32 42 30 26 29 26 26 25 26 28 24 21 22 24 24 27 34 31 43 49 47 55 40 29 13 6
56 52 48 39 30 26 23 20 18 16 15 14 14 20 28 30 26 28 27 26 25 28 24 20 21 18 22 26 29 22 20 24 23 24 25 24 28 32 28 44 45 47 27 11 7
55 54 58 41 38 31 23 20 19 18 14 11 10 8 8 11 17 24 18 21 20 19 17 15 16 16 16 21 23 21 18 18 21 22 20 19 24 24 20 35 34 20 13 6 6
78 65 51 49 44 30 29 29 22 20 17 14 11 10 7 6 6 8 10 13 17 16 17 13 11 14 14 12 16 15 16 14 14 14 13 16 16 19 18 36 18 8 9 5 6
91 68 83 61 48 36 36 29 20 18 18 15 13 10 8 6 5 5 6 7 10 15 13 14 12 10 11 12 11 12 12 12 13 12 12 11 12 13 24 20 7 6 5 5 6
70 79 82 92 66 64 79 52 40 25 18 16 12 11 7 6 5 5 4 5 6 9 10 9 10 9 9 8 9 10 12 12 11 12 11 9 10 8 15 6 6 4 4 5 8
78 53 76 77 77 85 52 67 44 34 19 17 14 14 8 6 5 5 5 5 5 6 7 7 8 9 7 6 6 8 13 15 12 8 8 6 7 8 7 6 3 3 4 6 8
37 45 37 32 41 54 59 44 36 25 26 14 15 17 11 7 6 5 6 6 6 6 5 5 6 7 8 6 7 8 10 11 9 8 6 4 7 6 5 3 3 4 5 6 10
6 7 9 9 8 14 21 28 32 18 16 13 15 16 13 9 6 6 6 6 6 4 4 3 3 3 4 6 7 7 6 6 6 5 4 4 4 4 3 3 3 4 5 7 10
3 3 3 3 3 4 4 8 13 14 11 11 12 14 12 8 6 6 7 7 5 5 3 3 3 3 4 4 4 4 3 4 4 4 3 3 3 4 3 4 5 5 5 7 9
2 2 2 2 2 2 3 4 4 6 7 8 10 10 10 8 6 7 7 6 5 5 4 3 3 3 3 2 2 2 3 3 2 2 3 3 4 3 3 4 4 4 5 6 6
2 2 2 2 2 2 2 2 3 3 4 6 7 9 8 8 8 7 7 6 6 4 4 4 3 2 2 2 2 2 2 2 2 2 3 4 3 4 4 3 3 3 4 4 6
1 1 1 1 2 2 2 2 2 3 3 4 7 7 10 8 7 7 7 5 4 4 4 3 2 2 2 2 2 2 2 2 2 3 3 3 3 3 3 3 3 3 3 4 4
1 1 1 1 2 2 2 2 3 2 3 4 6 9 7 7 7 6 7 5 5 4 4 2 2 2 2 2 2 3 3 3 3 3 3 3 2 2 2 2 2 2 2 4 4
1 1 1 1 1 1 2 2 2 2 4 6 8 8 7 8 8 10 9 6 5 4 3 3 2 3 3 4 4 4 3 3 3 2 2 2 2 2 2 2 2 2 3 4 5
1 1 1 1 1 1 2 2 2 3 5 7 8 7 8 10 12 15 9 4 6 6 4 5 5 5 5 4 3 3 2 2 2 2 2 2 2 2 2 2 2 3 4 6 8
1 1 1 1 1 1 2 2 3 4 6 6 6 10 12 13 12 16 9 11 8 6 6 5 4 3 2 2 2 2 2 2 2 2 2 3 4 4 4 4 4 4 6 10 31
2 1 1 1 2 2 2 3 4 5 6 8 10 11 13 15 15 10 9 8 6 4 3 3 2 2 2 2 2 2 3 3 4 4 4 4 4 5 6 6 6 7 10 73 100
2 2 2 2 2 3 3 4 6 8 9 8 10 11 12 11 9 7 6 4 3 3 2 2 2 2 2 3 3 4 5 5 6 6 6 6 7 8 9 9 9 14 91 57 100
4 4 4 4 4 5 6 7 6 8 11 10 10 9 8 6 5 4 3 3 2 2 2 2 2 3 4 4 5 7 7 8 7 7 8 9 12 15 12 15 43 71 100 100 100
6 5 4 4 5 5 6 6 7 8 8 7 6 5 4 4 3 3 2 2 2 2 2 3 4 4 5 7 8 10 8 10 13 11 16 17 21 18 35 71 71 68 100 100 100
7 13 6 5 7 8 8 7 7 6 5 5 4 3 3 3 2 2 2 2 2 3 2 4 4 6 7 9 10 11 13 20 17 21 26 26 32 48 62 84 72 66 87 100 100
9 12 9 7 5 5 5 5 4 4 4 4 3 3 3 3 3 3 3 3 3 3 4 6 6 9 9 8 11 12 16 21 25 33 44 51 43 42 44 41 47 53 77 100 100
8 7 7 5 5 5 5 4 4 4 4 4 4 4 4 4 4 4 4 4 5 5 6 7 7 8 10 10 12 11 11 11 16 27 32 53 78 78 66 64 54 48 73 100 100
8 7 6 6 6 5 4 4 4 6 6 5 6 6 7 6 7 8 9 9 8 8 8 8 9 9 10 13 14 18 17 16 16 17 22 25 39 53 82 100 100 93 72 100 100
10 8 10 10 7 6 8 8 10 10 11 10 10 10 11 11 12 14 16 16 17 19 21 22 24 24 24 25 25 24 21 19 21 28 31 34 28 31 41 50 51 65 64 87 96
11 14 17 15 15 15 13 14 13 12 10 11 13 13 14 15 17 18 18 20 21 23 25 27 27 27 28 29 32 35 38 41 42 43 43 42 46 50 52 45 42 39 45 57 74

GFSSW_250_rhum_087.txt.gz
RH
54 56 43 44 46 49 46 27 24 23 28 28 24 26 30 46 35 38 45 33 33 32 35 33 39 56 63 49 33 38 27 30 24 28 24 20 16 20 21 32 39 45 57 65 80
72 64 63 64 66 37 41 41 38 26 25 18 13 10 10 22 46 46 39 32 31 32 26 26 25 31 26 24 30 26 28 26 20 17 20 22 17 16 16 21 32 34 42 54 68
82 83 67 74 73 62 54 38 35 34 28 27 18 14 12 10 11 15 24 35 31 24 22 16 17 16 18 18 19 20 21 16 17 16 15 18 17 16 12 18 26 30 31 39 51
82 92 88 70 78 68 72 61 44 36 33 35 29 16 15 14 11 11 9 15 22 22 19 20 15 13 13 11 11 11 14 14 15 16 14 16 20 18 16 18 19 24 28 29 47
86 85 93 87 69 77 69 66 66 44 35 26 32 22 19 15 15 11 10 8 8 8 8 10 10 10 11 10 8 8 9 11 13 13 14 16 18 20 18 15 15 16 21 21 19
89 100 85 80 74 75 75 64 60 49 45 48 36 25 20 17 18 14 11 9 8 7 6 6 6 6 8 8 8 7 7 8 10 14 12 11 15 15 20 18 18 15 18 14 17
35 47 52 49 54 54 50 58 48 51 48 40 39 31 28 22 22 14 12 10 9 6 6 5 5 5 5 5 5 5 5 6 8 9 11 10 14 14 19 17 14 12 12 10 12
8 9 10 12 20 26 29 33 48 48 38 39 32 35 27 24 28 15 12 9 8 6 6 5 5 4 4 4 4 3 4 5 5 7 7 9 14 9 7 8 9 8 9 8 8
5 5 6 6 7 7 8 13 17 40 36 28 31 33 23 27 26 16 13 10 8 6 6 5 4 4 4 3 3 3 4 4 5 6 5 5 7 7 7 6 8 8 8 8 8
3 3 3 3 4 5 5 5 6 16 13 19 23 16 18 27 19 15 14 11 8 6 6 5 5 4 3 3 3 3 3 3 3 4 3 3 3 4 5 6 8 8 8 6 5
2 2 2 2 2 2 4 3 4 6 6 6 6 13 13 15 14 13 10 10 7 8 7 6 4 3 4 3 3 3 3 3 2 2 2 2 3 3 4 4 5 5 5 5 6
1 1 1 2 2 2 2 2 3 3 4 3 4 5 7 9 10 12 9 8 9 9 6 5 5 4 3 3 3 2 2 2 2 2 2 2 2 3 3 4 4 4 5 5 7
1 1 1 1 2 2 2 2 2 3 3 3 3 4 4 7 8 8 8 11 9 6 5 5 4 4 3 2 2 2 2 2 2 2 2 2 2 3 3 3 3 4 4 5 5
1 1 1 1 1 2 2 2 2 2 2 3 3 4 5 6 7 8 11 11 7 6 6 6 4 3 3 3 2 2 2 2 2 2 2 2 2 3 3 3 4 4 4 5 6
1 1 1 1 1 1 2 2 2 2 2 3 3 4 5 6 9 11 13 9 8 8 5 4 3 3 3 2 2 2 2 2 2 2 3 3 3 3 4 4 4 4 5 5 5
1 1 1 1 1 1 2 2 2 2 2 2 4 5 7 9 11 16 13 8 6 6 4 4 5 5 4 4 4 3 3 3 3 4 4 3 3 3 3 2 3 3 3 4 4
1 1 1 1 1 1 2 2 2 2 2 4 5 7 10 12 13 12 7 6 8 9 8 7 8 7 6 5 5 4 4 3 3 2 2 2 2 2 2 2 2 3 3 4 4
2 2 1 1 1 2 2 2 3 3 4 6 7 9 10 10 8 10 9 8 13 13 9 8 6 5 4 4 3 2 2 2 2 2 2 2 2 3 3 3 4 4 4 6 7
3 2 2 2 2 2 3 3 4 4 5 6 7 8 10 11 12 11 14 11 8 6 5 4 3 3 3 3 2 2 2 3 3 3 4 4 4 4 5 6 6 5 6 8 13
6 4 3 3 3 3 3 4 4 6 7 8 9 10 14 17 14 9 7 5 4 3 3 3 3 3 3 3 3 4 4 4 5 5 5 5 6 6 7 9 20 35 35 56 99
8 10 7 5 4 5 5 4 5 6 10 12 13 12 10 8 5 4 3 3 3 4 4 4 4 4 5 5 6 6 7 7 8 8 6 7 8 7 9 18 60 81 98 87 100
7 11 11 10 7 8 8 8 8 9 8 7 5 4 3 3 3 3 3 4 4 4 4 5 6 7 6 7 8 8 8 10 12 14 13 11 9 10 12 23 61 78 88 100 100
5 6 7 7 6 6 5 4 4 4 3 3 3 3 3 3 4 4 4 4 4 5 6 8 8 8 8 8 8 7 9 18 18 22 23 24 24 26 19 28 38 51 87 100 100
4 5 5 4 4 4 4 3 3 3 4 4 4 4 5 5 5 5 5 5 6 7 8 8 8 9 10 10 10 10 10 17 16 20 32 42 48 46 46 43 50 49 76 100 100
5 6 7 5 5 4 4 4 5 6 6 6 6 6 6 6 6 6 6 6 7 8 8 8 8 9 11 12 14 16 17 20 21 23 24 26 31 54 55 67 77 61 49 75 100
10 15 16 14 12 13 12 12 12 12 12 12 12 13 13 14 15 14 13 13 15 16 18 19 22 21 22 24 24 24 24 26 24 23 21 26 33 43 46 61 60 77 79 81 70
16 19 18 17 16 16 16 15 15 15 16 15 17 17 18 18 19 21 21 21 21 23 25 28 30 30 33 35 31 35 36 35 35 39 39 40 37 35 39 41 42 42 39 66 88

GFSSW_250_rhum_093.txt.gz
RH
68 78 98 100 100 93 85 75 63 64 37 56 40 42 33 59 77 82 94 84 92 100 79 57 43 40 46 57 58 64 79 76 90 97 79 54 90 100 100 100 70 48 46 30 30
32 39 41 79 100 100 100 100 74 70 68 64 49 38 43 34 30 34 52 66 78 82 92 99 76 69 56 52 42 39 40 46 54 56 89 95 66 61 82 86 83 78 58 48 38
15 15 15 24 27 72 100 100 100 98 88 85 55 42 40 46 46 30 22 26 36 58 75 71 58 73 84 78 73 58 43 34 31 35 45 70 92 74 49 86 80 61 47 44 44
10 11 13 14 14 14 44 73 100 100 100 82 76 58 67 55 53 54 31 20 17 21 30 41 52 51 41 34 55 46 28 24 25 17 21 31 40 40 48 48 43 66 47 32 36
14 14 15 17 19 20 20 24 80 100 100 100 93 82 76 68 44 47 46 34 25 20 14 13 13 15 18 25 29 16 23 17 15 17 14 15 21 22 24 25 32 38 28 20 25
13 12 12 14 19 25 19 32 27 90 100 100 100 100 94 81 61 53 50 47 43 31 24 19 16 11 10 9 9 11 13 15 14 13 13 12 13 13 18 14 13 15 18 15 14
5 5 5 5 8 10 13 14 24 34 63 100 92 100 99 100 94 62 58 49 42 38 32 26 18 16 13 11 9 8 8 9 9 8 9 10 12 10 11 10 10 10 11 9 8
2 3 3 4 4 5 6 8 14 20 31 75 100 100 100 91 81 82 72 72 55 42 35 25 19 16 14 14 10 8 7 7 5 5 5 6 10 10 7 8 9 10 10 9 9
2 2 2 2 3 4 5 7 10 17 24 45 82 80 100 93 95 85 69 66 52 42 31 26 18 18 17 13 9 7 7 6 6 5 4 4 4 5 4 4 7 9 10 10 8
1 1 1 2 2 4 6 8 10 12 20 37 74 81 99 98 93 73 68 57 53 46 39 31 27 20 12 9 8 7 6 6 7 6 4 3 4 3 2 3 4 5 6 8 8
1 1 1 2 2 4 6 9 8 11 16 29 55 66 83 100 91 73 58 50 52 50 40 32 25 19 12 8 7 6 7 7 5 5 4 3 3 2 2 2 2 3 3 4 6
1 1 1 1 2 3 4 6 7 11 11 24 23 24 54 73 61 59 54 51 51 46 38 28 21 15 11 9 7 7 7 5 4 4 4 2 2 2 2 2 2 2 2 2 3
1 1 1 1 1 2 2 3 4 7 10 11 20 16 13 19 30 40 38 33 30 23 22 22 15 11 8 7 7 5 4 4 4 3 3 2 2 2 2 2 2 2 2 2 3
1 1 1 1 1 2 2 3 3 4 5 10 11 11 9 9 10 11 14 16 16 18 18 12 9 9 9 6 5 5 4 4 4 3 3 2 2 2 2 2 2 2 2 2 2
1 1 1 1 2 2 2 3 3 4 5 6 8 8 8 8 9 11 12 16 13 11 9 8 10 8 6 6 6 4 4 3 3 2 2 2 2 2 2 2 2 2 2 2 3
1 1 1 1 1 2 2 2 3 4 4 6 6 7 8 8 7 9 12 11 10 10 10 9 8 7 7 8 6 5 4 4 3 3 3 2 2 2 2 2 2 2 2 2 3
2 1 1 2 2 2 2 3 3 3 4 5 5 6 8 8 8 7 8 8 8 9 9 8 8 9 10 8 8 8 6 6 5 4 3 3 3 3 2 2 2 2 2 3 3
2 2 2 2 2 2 2 3 3 4 4 4 5 7 7 6 5 5 6 8 10 10 11 12 11 15 12 12 11 10 7 5 4 4 4 3 3 3 3 3 4 3 3 4 4
3 4 3 2 2 2 2 2 3 3 3 4 4 4 4 4 6 8 11 12 12 14 21 20 18 14 11 7 5 4 3 3 3 2 2 2 2 2 2 2 2 2 3 4 5
5 6 4 5 5 4 4 3 3 4 4 5 6 7 8 9 10 11 14 23 27 19 14 11 9 7 6 7 6 6 5 5 4 4 4 4 3 3 2 2 3 3 3 3 3
4 6 7 10 10 7 6 7 6 7 9 9 8 10 12 18 22 31 20 14 10 9 10 10 9 10 12 10 11 10 8 10 9 7 6 6 6 5 6 6 4 4 4 4 4
3 3 3 5 8 10 13 15 16 16 15 17 19 19 19 13 9 6 6 7 10 13 9 14 14 18 16 17 16 15 15 15 18 11 12 10 10 14 12 10 11 8 7 6 6
4 4 3 3 4 4 4 4 4 4 5 5 5 5 5 6 7 8 9 11 14 15 18 19 16 14 15 15 19 14 19 21 20 16 17 14 17 19 23 30 31 20 14 16 20
10 8 5 5 5 5 4 5 7 7 8 8 9 9 12 14 14 15 15 17 19 17 16 15 14 16 15 16 19 20 23 20 23 22 27 31 25 35 34 37 49 41 28 32 37
19 16 15 13 12 10 8 6 6 7 8 8 11 13 12 13 14 14 16 18 17 17 17 16 17 17 16 17 17 18 22 22 25 26 31 36 37 45 47 55 65 64 74 73 68
35 29 23 22 21 20 21 20 22 23 23 25 26 25 24 25 26 28 27 28 30 30 30 28 30 28 28 28 28 26 22 22 27 32 35 30 27 43 60 60 71 84 82 85 84
49 48 43 35 29 30 30 28 28 30 30 31 34 36 35 34 35 35 36 37 36 36 35 34 34 33 33 35 35 36 36 39 38 38 38 42 41 38 39 48 72 89 99 94 78

GFSSW_250_rhum_096.txt.gz
RH
24 24 27 41 37 33 34 50 69 61 54 53 54 39 40 37 38 48 64 80 68 81 69 76 58 62 67 69 57 61 72 91 86 96 84 68 55 65 73 62 52 82 100 94 82
24 27 20 23 31 32 34 36 39 61 71 80 72 68 59 47 43 38 33 38 62 58 66 84 65 67 83 95 100 88 86 89 96 94 79 70 65 65 68 62 68 58 56 61 93
18 16 20 18 27 23 21 30 52 37 67 80 79 71 80 71 53 56 44 34 26 35 56 67 74 60 56 60 82 91 85 62 69 61 53 57 59 53 68 88 86 79 73 70 49
16 14 12 13 14 22 21 17 24 48 44 57 78 94 87 91 73 60 72 52 43 31 24 37 59 70 70 64 57 60 64 75 57 46 42 33 38 53 50 47 45 71 71 50 49
13 13 14 14 14 16 20 22 16 24 39 62 50 76 100 100 97 62 79 74 51 47 32 25 21 35 59 69 76 74 67 64 62 45 34 28 35 34 32 40 32 29 43 56 30
11 12 12 11 12 16 16 18 22 16 22 41 61 77 87 100 100 90 78 73 87 64 49 39 34 24 19 17 19 28 39 48 51 45 37 28 35 30 35 16 19 26 29 29 29
5 5 6 6 12 9 9 17 19 22 21 19 51 84 86 99 100 100 98 89 86 76 58 60 52 37 25 20 15 14 12 10 11 16 17 18 26 23 16 15 22 13 12 14 14
3 2 3 3 4 6 6 12 15 26 31 29 22 42 94 100 98 100 100 100 96 96 87 68 53 41 39 32 25 19 15 12 9 8 7 6 7 6 6 6 9 9 9 8 8
2 2 2 2 2 3 4 6 12 17 28 35 45 42 58 63 98 100 100 100 100 100 86 74 70 55 38 34 33 26 17 12 9 8 7 6 7 6 4 4 5 6 6 6 6
1 1 1 1 2 2 3 4 6 7 24 42 48 53 59 67 93 98 100 100 100 100 100 84 60 48 49 40 32 22 18 11 9 7 7 6 5 5 4 4 4 4 4 4 4
1 1 1 1 2 2 2 4 4 5 13 37 43 51 62 72 69 71 100 100 100 100 100 65 62 62 54 41 29 22 16 12 10 7 6 6 5 5 4 3 3 2 2 2 2
1 2 2 1 1 2 2 3 4 5 8 26 47 57 92 81 65 55 76 99 97 100 92 67 63 55 48 39 31 23 19 11 7 6 5 5 4 4 3 3 2 2 2 2 2
2 2 2 1 1 2 2 3 4 5 8 12 37 42 52 44 57 50 58 61 83 98 93 78 71 60 44 35 23 16 12 8 8 6 5 4 4 3 3 3 2 2 2 2 2
1 1 1 2 2 2 2 3 4 5 9 11 13 15 20 33 40 46 46 46 55 63 60 57 53 44 37 27 18 12 11 8 6 5 4 4 3 3 3 3 2 2 2 2 2
1 1 1 2 2 2 2 3 5 5 7 10 11 14 22 36 44 41 42 39 38 33 33 36 33 29 21 17 13 12 8 6 5 4 4 3 3 3 3 3 2 2 2 2 2
1 1 2 2 2 3 3 3 4 6 8 9 10 12 16 17 23 25 30 30 27 29 33 34 29 22 18 12 8 8 7 6 4 4 4 3 3 2 2 2 2 2 2 2 2
2 2 2 2 2 3 4 4 5 6 7 8 10 14 14 18 20 19 17 18 20 18 13 12 11 9 9 10 9 8 6 6 6 5 4 4 4 3 3 2 2 2 2 2 2
3 2 2 2 2 2 3 4 5 6 8 9 11 12 14 14 17 14 10 8 8 8 7 8 10 12 14 11 12 10 11 10 8 7 6 5 5 5 4 4 3 3 2 2 3
4 4 3 3 3 3 3 2 4 5 5 6 8 9 9 8 7 8 8 6 7 10 13 16 22 19 17 17 14 10 7 6 5 5 3 3 3 3 3 3 4 4 4 5 4
4 6 6 5 5 4 4 4 4 4 4 4 5 5 5 6 7 7 8 12 19 25 30 23 19 16 13 11 16 11 13 8 6 5 4 4 4 4 3 3 3 3 3 4 6
4 4 4 10 12 9 8 8 8 8 8 7 7 8 10 10 15 20 29 28 25 19 16 15 14 22 22 24 22 18 15 12 10 10 8 7 8 6 6 5 5 5 5 4 4
7 6 4 3 4 5 9 16 19 20 21 21 22 26 26 22 21 21 14 12 13 14 17 26 26 38 30 31 20 19 14 13 15 15 15 16 15 14 12 13 13 12 17 13 10
19 13 7 5 6 4 5 6 8 8 8 8 9 8 9 10 11 11 14 20 22 25 24 25 27 30 27 27 27 22 19 22 26 27 27 20 23 30 26 27 27 23 28 33 25
39 25 19 15 11 9 8 8 9 9 11 13 15 14 14 15 17 20 22 27 30 32 30 30 30 33 33 32 32 25 27 25 34 42 46 39 37 40 43 44 50 43 46 47 52
53 53 38 26 22 18 17 16 15 14 13 13 14 15 15 16 19 20 19 21 23 22 22 22 24 25 27 30 33 34 36 36 38 47 44 48 58 72 78 81 83 85 84 86 92
46 48 52 52 42 31 31 29 26 25 26 26 26 28 31 32 32 34 33 34 34 34 35 34 33 32 35 39 40 39 43 37 36 36 32 44 48 45 58 78 82 89 83 86 75
46 46 45 44 52 53 48 40 34 32 32 32 33 33 35 34 33 34 36 36 37 37 39 41 44 43 43 44 42 44 44 42 40 36 34 32 34 35 35 37 42 44 46 51 55

GFSSW_250_rhum_099.txt.gz
RH
17 16 19 19 20 22 21 31 34 47 57 58 46 47 38 38 38 35 60 90 100 93 72 74 50 63 80 98 72 52 61 66 77 84 100 95 88 85 70 71 64 89 98 85 97
12 14 16 16 17 18 16 19 28 36 42 60 60 47 49 50 42 41 35 34 62 99 99 90 93 70 72 67 80 85 63 53 59 65 72 88 94 82 77 79 82 69 73 64 54
12 11 12 13 14 17 18 22 23 30 29 36 71 52 54 66 39 37 44 34 32 48 60 78 100 100 90 59 71 70 63 67 66 52 52 67 68 53 67 64 59 60 71 72 63
8 8 9 9 8 10 13 18 24 33 24 33 49 59 58 52 57 50 44 43 34 31 31 40 48 56 64 79 89 71 53 65 76 63 51 46 46 44 44 53 49 49 58 65 63
7 8 8 9 9 9 10 13 17 24 23 23 39 59 65 53 68 51 45 61 47 43 47 43 32 28 38 52 61 72 96 82 83 54 48 52 52 54 60 53 47 52 56 62 52
9 10 10 10 10 9 10 12 14 18 23 26 30 35 67 70 78 71 76 62 56 64 73 61 62 44 33 27 26 27 42 50 49 62 56 41 46 43 51 48 38 34 41 39 37
5 5 6 8 10 12 10 11 11 15 21 25 36 40 53 56 82 86 81 86 77 91 84 61 79 74 62 42 32 27 22 20 22 33 44 52 60 39 36 34 39 31 27 25 26
3 3 3 3 3 7 10 9 8 13 19 22 31 35 42 52 80 85 95 90 90 100 96 95 74 80 88 81 71 48 32 24 18 14 14 15 25 39 34 36 36 28 19 16 11
1 2 2 2 2 2 4 6 6 10 19 22 27 30 40 38 53 89 89 99 95 97 100 100 96 83 79 79 78 73 50 35 22 18 15 12 14 10 9 8 8 8 7 7 8
1 1 1 2 2 2 2 2 6 8 16 24 27 32 35 42 30 62 84 91 92 97 98 100 100 100 82 70 65 74 66 46 31 19 15 11 10 8 7 7 6 6 5 5 4
1 1 1 1 1 1 2 2 3 5 16 25 29 31 35 41 35 32 65 91 97 95 96 90 96 100 94 74 77 75 79 54 30 22 16 11 9 7 7 6 5 5 5 4 3
1 1 1 1 1 1 2 2 2 5 20 28 29 32 36 38 48 46 40 49 74 93 96 95 87 92 95 81 66 67 70 54 33 19 11 8 7 7 6 5 4 3 3 3 2
1 1 1 1 1 2 2 2 2 5 22 26 31 32 35 37 46 61 57 48 50 78 74 76 92 91 85 87 70 54 49 35 22 16 12 10 8 6 6 4 3 2 3 3 3
1 1 1 2 2 2 2 2 3 6 16 26 29 36 36 36 45 56 59 61 61 67 82 86 79 75 73 78 68 49 44 31 24 17 13 10 6 6 4 3 3 2 2 2 3
2 1 1 2 2 3 4 4 4 5 10 18 25 30 34 37 45 56 52 47 54 62 67 85 94 67 45 50 45 38 33 26 18 12 10 6 4 4 3 3 3 3 3 3 3
2 2 2 2 3 4 5 7 7 6 6 8 17 29 32 41 47 53 50 46 46 48 48 50 48 38 35 35 36 31 27 20 12 9 6 5 5 4 4 3 3 3 3 3 3
3 2 2 2 2 3 5 9 11 10 9 8 8 11 20 32 34 39 38 36 36 32 31 30 29 29 31 27 27 21 12 8 8 9 9 7 6 5 4 3 3 3 3 3 2
6 4 3 3 3 3 4 6 12 14 16 17 15 16 16 19 24 23 26 34 34 30 22 18 17 19 14 12 10 10 12 19 15 12 9 8 7 5 4 4 4 4 3 3 3
10 9 5 3 3 3 4 4 5 7 8 13 22 33 40 39 42 46 26 14 18 18 16 16 14 12 13 21 24 20 14 11 11 9 7 6 5 5 4 4 5 5 5 5 4
5 5 11 10 6 5 4 4 5 5 6 6 7 9 10 12 12 15 14 13 11 12 13 15 25 32 25 21 18 15 17 25 20 12 10 8 7 5 4 4 4 4 4 6 7
14 7 5 4 7 12 14 9 6 5 5 5 5 6 7 8 9 10 10 13 18 29 32 33 24 19 18 19 19 22 26 28 18 16 15 9 15 8 8 8 6 6 6 5 4
31 22 10 6 7 6 6 8 12 18 21 22 25 26 27 26 24 21 19 22 24 23 17 28 31 31 26 28 27 42 35 26 30 27 32 28 40 37 25 20 18 23 22 15 25
49 39 28 21 16 12 11 10 10 10 10 11 14 16 16 16 19 22 21 20 27 32 41 42 50 46 47 46 42 40 46 39 50 51 45 45 63 54 48 45 52 53 44 36 28
35 40 46 41 33 29 26 21 16 13 14 15 15 14 14 14 15 16 18 24 30 36 41 41 40 42 41 41 42 43 41 46 44 53 58 56 56 71 72 74 66 75 73 78 81
32 41 39 41 45 44 41 34 29 25 22 21 22 22 24 25 27 29 30 29 31 34 38 40 44 47 46 45 45 41 41 44 44 44 48 52 59 68 76 73 66 65 70 74 64
35 35 37 40 44 43 44 49 46 41 37 35 33 32 32 31 33 37 38 39 41 42 43 46 49 46 49 46 42 42 41 44 48 44 46 49 50 46 47 42 42 46 44 47 42
27 27 37 36 39 44 46 48 51 54 54 52 49 49 48 47 46 45 43 41 41 43 45 45 50 52 54 51 50 48 46 44 44 41 39 40 39 38 41 46 48 50 51 50 47

GFSSW_250_rhum_102.txt.gz
RH
10 9 9 12 18 18 20 25 32 41 37 46 43 40 43 42 40 26 23 32 50 87 99 97 93 87 97 100 100 89 75 55 59 79 84 96 100 100 100 85 66 64 83 80 77
5 6 8 8 11 17 19 18 21 32 40 33 40 56 51 48 51 44 27 20 20 26 44 88 88 88 92 96 93 96 86 72 81 77 75 64 77 90 96 100 100 96 71 69 74
4 4 4 7 9 11 16 19 19 20 32 39 43 35 41 51 60 57 49 34 26 26 33 41 46 57 64 84 100 99 79 87 94 85 73 64 63 61 72 78 86 99 99 82 65
7 6 5 5 7 10 12 14 19 21 23 35 39 55 40 53 66 56 68 52 36 37 34 24 22 25 40 89 92 85 85 87 89 86 62 65 64 67 57 56 61 62 72 86 90
5 7 7 6 6 7 9 10 14 18 22 22 32 52 45 49 58 70 58 61 54 41 46 45 34 35 31 54 90 90 87 68 66 78 65 56 56 57 58 54 53 56 56 61 65
3 4 6 8 8 6 7 9 11 16 19 22 26 31 38 54 80 61 73 66 62 58 60 57 47 37 34 36 43 57 80 82 90 81 91 100 76 43 49 44 40 39 39 39 49
2 2 3 5 8 8 7 8 10 13 16 20 24 29 33 36 51 56 87 88 75 62 61 62 55 54 44 32 28 27 29 32 38 37 40 75 81 54 69 60 43 32 39 34 28
2 2 2 2 3 5 8 10 9 10 12 17 20 27 34 40 48 54 89 97 88 90 74 68 61 58 52 43 41 35 31 29 24 18 17 25 38 39 46 48 42 36 27 23 25
2 2 2 2 2 3 5 10 11 10 11 17 21 23 32 35 42 43 48 96 89 96 94 92 70 66 67 55 59 56 48 44 28 22 17 16 19 17 14 13 16 18 17 18 19
2 2 2 2 2 2 2 4 10 11 13 15 20 22 26 29 33 40 43 56 93 95 99 99 96 90 86 72 58 64 58 48 40 42 30 21 21 14 12 12 10 9 9 9 9
1 2 2 2 2 2 2 2 4 11 15 14 18 20 25 27 30 39 40 52 73 85 100 100 100 100 98 94 82 88 86 59 66 56 58 44 37 15 12 9 8 8 7 6 6
1 2 2 1 2 1 2 2 3 8 16 16 17 21 23 25 30 32 45 54 62 74 78 99 98 100 98 92 80 74 85 98 79 60 45 34 32 21 17 10 8 6 7 6 6
2 2 2 2 2 2 2 2 3 5 11 18 20 21 22 24 28 36 53 54 50 53 60 79 96 93 94 91 89 83 82 80 70 49 34 23 26 24 15 10 8 7 6 5 5
2 2 2 2 2 2 2 3 3 5 10 16 18 19 23 26 29 34 36 41 51 56 53 54 64 84 84 78 77 76 69 68 66 51 44 31 28 21 18 14 7 5 4 4 4
2 2 3 2 4 3 3 3 4 6 9 15 18 21 24 26 29 31 34 42 51 58 52 54 61 68 80 78 74 67 61 47 40 32 25 21 28 28 16 4 4 4 3 3 3
3 3 4 4 4 4 4 4 5 9 11 21 22 22 24 28 32 35 38 41 50 59 66 61 48 42 39 35 35 36 40 33 28 27 28 29 20 14 6 4 3 3 3 3 3
3 3 4 5 6 5 5 6 7 11 12 18 23 24 26 27 31 34 36 39 45 57 65 67 61 54 51 49 47 47 45 43 34 20 17 15 10 9 11 7 5 5 4 4 3
8 4 4 4 5 6 7 7 7 7 9 14 17 23 26 28 32 34 35 36 40 43 39 35 36 42 41 44 43 31 26 21 18 12 14 19 13 11 10 7 6 6 7 6 5
8 11 6 4 5 5 6 6 9 9 8 8 10 11 13 18 26 30 35 41 41 45 45 35 32 31 32 30 24 20 14 19 25 22 20 17 13 11 9 6 5 6 8 9 8
17 9 7 10 7 4 6 7 7 8 10 11 11 12 13 14 14 13 22 31 26 29 30 24 18 17 15 17 24 34 34 33 31 28 36 24 24 18 9 7 6 5 7 10 12
34 24 11 8 7 15 24 16 9 7 6 7 8 9 11 11 12 13 13 12 12 12 13 14 23 25 32 40 42 41 38 40 36 45 43 47 49 36 31 26 19 15 10 14 12
38 36 26 18 14 14 12 9 11 16 21 25 26 28 28 26 26 23 29 33 32 38 41 42 36 35 44 44 43 40 39 58 52 74 69 76 73 57 56 52 45 32 28 32 33
34 31 31 39 34 30 24 18 17 16 16 14 16 19 24 29 38 40 41 42 45 39 33 30 29 39 45 50 53 58 51 54 64 70 65 72 77 72 62 61 49 52 62 56 59
23 31 34 42 40 40 42 36 31 28 25 21 20 25 25 25 28 30 35 39 40 39 39 46 56 59 51 46 46 50 53 53 51 47 51 56 60 78 74 66 65 70 75 80 71
25 24 30 35 41 43 44 50 50 46 40 36 36 35 35 38 38 40 42 43 45 50 49 48 46 49 54 56 50 47 50 48 55 53 53 57 60 59 62 65 56 56 52 47 43
28 26 26 25 33 36 41 46 49 52 53 55 53 46 45 48 50 50 54 58 60 62 62 65 70 69 69 64 65 63 61 63 61 55 50 46 47 48 48 49 50 49 51 50 51
38 24 23 22 25 26 39 41 44 47 52 52 54 60 62 63 64 66 70 71 71 71 71 70 70 69 69 69 68 66 65 64 62 62 62 60 58 57 54 52 50 47 45 44 42

GFSSW_250_rhum_105.txt.gz
RH
4 5 7 9 12 14 13 17 19 18 16 20 20 25 20 22 30 92 100 91 100 95 66 66 71 70 70 67 62 54 61 54 57 61 72 100 96 94 89 85 78 73 66 64 60
2 3 3 3 5 9 13 15 17 19 18 17 23 27 26 36 25 24 43 100 100 100 96 63 76 84 74 84 76 74 53 56 59 72 73 71 87 96 100 100 100 100 92 78 81
3 4 4 3 3 4 8 12 14 17 21 20 25 33 36 50 29 23 25 47 89 100 98 76 82 81 88 90 97 100 90 86 97 80 71 61 65 66 61 54 69 100 100 100 100
2 2 5 5 5 4 4 7 11 14 20 22 24 30 34 42 65 44 33 28 36 43 84 94 89 88 99 81 87 97 88 84 98 100 100 100 95 72 58 57 62 67 71 81 83
1 2 2 4 6 6 4 4 7 11 15 21 26 28 37 27 55 71 60 58 52 54 42 36 47 71 84 84 76 98 99 90 98 88 85 96 100 100 89 84 85 78 71 64 67
1 1 2 3 3 7 6 4 4 6 12 15 22 28 32 36 50 84 100 83 74 71 55 49 38 25 19 19 24 38 76 89 98 96 95 94 86 81 82 86 85 80 74 76 69
1 1 2 2 3 5 8 6 5 6 8 12 19 24 29 33 47 74 86 100 85 84 72 61 56 51 42 29 30 29 25 26 33 40 46 52 64 74 68 65 61 56 46 46 39
1 1 2 2 3 4 6 8 6 6 7 10 15 20 26 31 36 53 78 100 90 93 83 74 65 73 63 43 38 39 30 22 22 22 25 28 36 61 72 63 52 46 35 33 30
1 1 1 2 2 4 5 12 9 7 7 9 14 18 22 26 30 38 46 79 100 100 100 96 83 84 76 62 48 50 45 38 34 27 23 22 26 24 21 20 22 28 31 33 29
1 2 2 2 2 2 4 18 12 8 8 10 14 16 21 26 28 31 33 62 100 100 100 100 100 91 85 77 81 77 61 54 43 42 29 24 22 18 17 16 15 17 14 11 10
1 2 2 2 2 2 3 7 7 10 10 9 11 17 19 22 25 28 33 42 72 100 100 98 99 93 99 93 86 86 83 69 53 50 52 37 25 21 18 18 16 13 12 11 10
1 2 2 2 2 2 2 5 6 13 12 11 11 16 18 20 23 29 30 38 48 58 61 92 97 98 95 100 100 99 91 82 70 60 55 49 46 37 26 20 16 14 11 9 9
2 2 2 2 2 2 2 4 7 18 15 13 12 13 14 17 22 26 29 34 39 45 59 66 72 82 98 99 98 94 92 94 86 79 71 66 49 36 28 29 23 18 16 11 10
4 2 2 2 2 2 3 3 7 20 20 15 13 14 14 17 22 25 29 32 36 39 41 44 46 50 59 88 99 94 86 81 78 81 68 63 55 55 46 41 37 23 12 7 5
5 4 3 3 3 3 3 4 8 18 21 16 15 14 15 17 21 24 27 30 33 36 37 47 56 67 79 78 92 89 85 79 70 60 51 46 47 56 53 44 32 24 11 5 6
5 6 5 4 4 4 5 6 14 24 29 23 19 17 18 18 21 24 28 31 35 36 40 60 63 62 59 58 57 55 52 46 49 56 57 51 45 36 24 22 17 8 6 6 6
4 5 6 6 6 7 8 10 14 23 22 22 21 20 20 21 22 24 27 31 34 37 51 57 52 52 53 49 45 44 44 44 46 45 37 33 36 30 19 13 9 8 9 7 6
12 7 5 6 8 8 8 13 18 16 26 26 26 25 23 24 25 27 29 31 34 37 38 41 46 51 56 64 66 65 61 57 49 39 29 24 22 17 13 12 14 9 7 7 8
12 9 11 5 5 7 8 10 10 12 20 28 27 29 28 27 28 28 30 32 33 36 39 43 49 58 67 69 61 49 37 32 28 25 20 17 19 20 18 19 13 9 9 11 14
32 17 8 8 9 5 6 11 15 16 16 13 18 28 32 37 37 38 40 42 44 46 46 44 44 45 40 37 31 32 25 22 20 28 35 36 38 42 45 35 21 19 15 11 14
39 36 21 12 8 12 16 13 9 8 11 15 16 18 21 19 19 24 28 30 27 28 26 25 27 24 22 20 20 25 36 45 64 69 66 68 81 80 83 65 54 43 35 25 21
30 36 37 32 27 19 12 13 12 16 17 17 16 14 18 19 22 19 19 18 19 20 22 29 35 33 35 39 45 56 62 93 80 70 62 74 82 83 87 78 73 65 53 44 37
29 28 35 46 48 37 30 25 22 18 19 23 27 31 34 36 40 38 39 37 34 36 46 56 54 49 49 60 64 58 66 71 63 69 75 72 73 71 75 70 64 56 57 60 54
23 29 34 42 44 50 49 41 36 36 41 42 42 42 43 43 44 45 50 54 56 60 59 58 61 62 64 66 64 68 65 65 65 64 64 65 64 60 58 57 57 61 58 53 45
22 24 27 34 40 43 43 51 53 52 48 46 48 50 54 55 54 56 59 60 60 61 62 62 62 64 62 61 58 54 51 51 52 54 55 55 55 53 51 50 48 48 48 48 47
31 24 25 25 31 35 46 46 46 48 53 59 64 66 66 69 69 73 74 74 74 74 72 72 77 76 77 75 75 76 73 72 71 68 66 65 65 62 61 60 57 54 51 50 48
45 38 32 24 24 28 31 35 42 48 48 49 51 52 54 55 57 60 59 59 60 60 62 64 65 65 64 64 64 63 61 59 59 58 58 59 59 58 56 53 51 49 48 47 46

GFSSW_250_rhum_108.txt.gz
RH
3 5 7 8 11 14 15 13 16 18 18 14 10 12 18 17 21 35 30 81 96 86 88 78 70 61 53 57 86 79 98 94 100 100 100 99 74 62 66 61 62 56 54 50 51
3 3 3 3 4 6 12 16 16 18 19 22 18 14 16 18 21 20 39 53 100 100 100 94 80 68 68 59 76 68 70 75 61 66 89 100 100 100 100 92 78 74 67 62 60
1 2 2 3 4 3 4 7 12 14 19 20 22 20 19 18 18 20 24 30 54 85 86 85 98 88 73 77 66 55 55 62 52 48 56 72 90 71 71 79 96 100 100 92 75
1 1 1 1 2 3 5 4 4 8 14 18 22 23 23 24 18 22 25 27 30 41 92 100 100 100 82 92 81 69 61 59 50 56 72 71 55 60 61 50 56 61 70 93 100
1 1 1 1 1 2 4 6 4 4 8 14 18 22 25 28 19 26 26 30 32 32 38 75 100 100 100 99 99 95 79 57 58 75 80 90 82 78 61 56 57 59 55 56 59
1 1 1 1 1 2 3 7 6 4 4 9 14 19 22 27 26 31 27 28 36 37 32 28 71 100 100 100 100 99 85 65 61 73 79 85 92 97 94 87 83 82 79 78 88
1 1 1 1 1 2 2 6 8 6 4 5 10 17 20 25 29 29 41 28 38 43 37 36 37 34 42 84 100 99 99 91 86 68 87 81 89 81 84 78 74 66 78 84 82
1 1 2 2 1 2 2 4 10 10 5 4 6 10 18 22 29 32 32 33 36 52 57 50 42 37 36 40 48 60 79 86 82 78 79 81 87 70 66 82 92 81 74 74 72
1 2 2 2 2 2 2 3 8 10 6 5 5 9 16 21 24 29 34 33 39 46 62 65 54 45 41 50 47 41 37 28 28 31 26 29 26 22 25 29 45 70 72 70 55
1 2 2 2 2 2 4 8 11 12 8 6 5 7 15 22 21 28 33 32 36 47 68 80 73 61 53 70 71 67 58 52 40 41 33 30 27 23 20 18 17 14 13 14 14
2 2 2 2 2 2 4 6 9 11 9 7 6 7 12 19 20 25 32 31 36 42 64 75 78 75 94 96 87 78 73 64 58 62 58 39 36 29 22 18 19 20 18 16 13
2 2 2 2 2 2 4 7 12 11 8 7 6 7 10 16 21 26 30 33 35 37 42 68 72 84 82 85 72 71 72 66 60 63 58 49 34 32 39 41 31 24 22 17 14
3 2 2 2 2 3 6 15 16 11 9 7 7 7 10 15 19 25 26 29 34 35 38 55 80 86 98 94 90 78 72 76 71 69 64 61 54 56 52 45 29 21 17 16 17
3 3 2 2 3 5 11 18 16 13 10 9 8 9 10 13 18 22 25 28 33 36 34 40 41 52 77 95 97 98 98 93 75 72 69 64 64 59 51 31 28 32 35 29 21
5 4 4 4 6 11 19 23 20 16 12 11 10 11 14 16 18 21 25 28 32 33 33 34 42 50 61 80 96 99 100 98 94 93 75 67 67 60 51 42 38 35 28 20 12
7 7 7 7 12 16 22 26 25 18 17 14 13 13 15 17 19 22 24 26 30 32 34 36 43 45 45 50 58 60 64 66 68 70 67 69 69 68 58 48 36 27 16 13 13
9 8 9 11 11 18 24 24 19 25 20 16 16 15 15 18 20 22 24 27 31 34 36 38 41 42 43 41 41 45 52 60 62 66 64 59 56 48 41 24 21 22 20 13 8
14 8 8 8 12 17 16 19 24 24 21 19 19 18 18 20 20 23 26 27 29 32 33 37 39 40 39 40 58 60 52 49 50 46 38 30 26 30 36 33 17 12 10 12 10
15 11 11 6 9 9 9 20 22 21 22 26 24 22 22 24 24 27 29 30 31 33 36 38 37 38 42 57 53 46 50 57 57 55 48 39 30 21 17 18 26 24 18 13 12
39 19 9 10 9 8 14 12 12 17 21 24 25 27 26 27 29 30 32 34 35 36 36 37 39 42 42 42 45 52 56 51 35 27 22 20 22 33 35 37 41 34 27 21 18
33 40 26 18 16 19 19 11 10 13 14 16 22 24 26 26 26 27 27 28 29 30 32 34 36 38 39 42 42 32 26 22 26 29 35 41 55 48 60 58 47 50 52 35 25
32 32 36 38 35 33 26 24 25 24 23 20 14 12 15 20 23 26 27 29 30 32 34 31 27 24 21 18 21 27 35 35 39 40 45 58 67 67 65 53 50 45 44 46 40
32 34 32 37 45 46 41 36 35 34 38 36 33 30 28 26 27 23 24 26 27 27 29 29 33 38 42 39 42 44 54 60 58 60 59 64 68 63 61 70 61 62 67 67 60
22 24 28 32 36 38 40 46 49 46 42 41 42 42 41 42 41 43 44 46 49 49 50 50 56 64 71 64 68 73 82 86 76 65 63 65 61 60 59 57 56 56 57 56 52
31 26 23 31 32 36 36 40 40 43 46 52 55 54 52 51 48 48 51 53 53 53 55 57 58 58 59 59 60 62 62 61 60 62 61 63 62 60 55 51 50 49 47 44 43
42 41 33 28 23 32 34 37 36 37 40 44 45 50 52 52 52 54 56 59 61 62 61 60 60 59 60 58 58 58 58 56 56 56 55 55 55 54 54 53 52 51 49 49 49
70 49 48 47 36 26 26 33 32 37 40 42 40 40 43 48 52 55 56 54 54 55 55 56 55 55 56 56 58 58 62 62 61 62 60 58 54 50 49 49 48 47 46 47 48

GFSSW_250_rhum_111.txt.gz
RH
2 2 2 3 5 6 10 13 15 18 13 12 11 10 10 11 13 18 22 29 42 50 54 61 62 70 61 40 46 34 36 58 90 100 100 94 66 57 67 57 56 52 47 47 48
1 2 2 3 3 3 4 7 12 15 19 16 16 14 12 12 14 14 19 23 28 36 44 58 60 64 62 54 55 46 42 45 63 92 91 100 100 90 86 82 76 72 65 55 55
1 1 1 2 3 4 3 4 10 13 17 19 18 18 20 13 13 15 20 20 22 29 39 62 74 82 82 64 60 54 53 61 54 61 69 96 100 100 100 100 100 99 97 78 70
1 1 1 1 2 2 3 4 5 9 12 17 20 21 21 18 16 20 20 23 24 23 45 53 53 89 91 80 78 68 64 67 58 64 65 79 100 100 98 100 99 100 100 100 100
1 1 1 1 1 1 2 2 7 6 8 14 15 22 24 21 24 24 22 25 27 24 24 32 41 87 83 73 80 97 78 78 70 71 56 84 92 86 88 81 62 55 68 90 90
1 1 1 1 1 1 1 2 3 7 5 7 14 17 25 26 27 27 25 24 25 27 25 24 28 46 41 50 88 92 86 84 78 81 66 84 93 77 66 67 61 48 47 57 64
1 1 1 1 1 1 1 2 2 3 8 6 7 14 19 29 32 25 28 20 25 27 33 32 41 48 50 45 85 89 81 79 96 89 81 80 77 78 66 57 61 57 65 65 64
1 2 1 1 1 1 2 2 2 2 5 9 6 7 15 25 32 29 29 28 26 32 33 36 35 41 36 35 43 59 62 82 80 96 84 76 97 95 80 76 70 59 60 73 82
1 2 1 1 1 2 2 2 2 2 4 10 10 6 9 20 32 33 30 30 30 30 32 37 39 35 35 38 33 35 40 67 92 94 100 91 87 74 80 84 86 75 80 60 64
2 2 2 2 2 2 2 2 2 3 7 10 10 7 5 9 25 33 36 35 32 33 36 39 39 44 41 47 44 40 32 26 45 50 66 78 83 77 76 75 79 75 65 61 63
2 2 2 2 2 3 2 3 4 10 12 11 8 6 5 6 18 25 31 35 33 33 34 32 33 46 55 45 50 41 38 34 30 31 24 24 37 31 27 29 27 22 22 21 18
2 2 3 4 5 5 6 6 8 11 13 12 9 6 5 6 9 22 32 35 32 34 36 37 35 38 36 46 53 50 50 46 50 48 42 29 32 31 22 18 20 22 26 16 12
4 4 7 11 13 14 14 14 13 13 11 8 6 5 5 6 9 19 26 32 33 33 37 39 36 35 39 48 50 62 59 49 47 45 46 49 50 42 36 32 20 21 18 17 18
8 7 9 12 14 12 12 12 10 9 9 7 6 5 5 6 8 15 21 27 31 31 33 35 34 34 39 46 54 64 73 73 55 52 53 56 60 48 39 34 35 42 42 29 21
7 11 13 18 19 15 12 11 10 9 8 8 7 6 6 7 8 14 19 25 27 29 32 36 38 37 42 42 50 67 82 83 89 90 83 82 71 65 59 56 45 40 34 25 15
11 11 15 17 19 18 15 12 12 10 10 9 8 8 8 8 10 14 19 22 25 28 32 37 39 37 36 36 42 52 61 77 87 88 90 79 72 70 67 70 63 43 25 21 17
8 9 10 12 12 13 14 15 13 15 13 11 11 9 9 9 10 14 20 24 27 31 35 37 37 37 38 39 42 44 54 58 61 63 66 62 57 49 41 38 33 30 26 17 13
15 8 9 8 13 16 15 17 20 18 15 14 14 14 13 13 14 16 20 26 31 33 33 34 37 37 35 36 39 39 38 42 41 38 38 40 41 40 37 34 29 30 24 15 10
37 25 13 9 8 14 22 26 20 20 21 19 18 17 19 18 18 20 23 25 29 31 32 36 35 35 36 36 33 35 36 35 35 38 45 39 36 38 41 33 22 18 16 20 16
31 37 34 23 16 12 17 23 23 21 22 22 23 21 20 21 22 22 23 25 26 28 30 30 31 31 32 32 35 36 34 38 39 40 45 48 36 22 19 23 32 33 36 37 41
30 31 30 35 40 30 22 14 10 13 21 28 26 26 26 24 24 24 24 25 26 27 28 30 32 32 34 35 36 38 37 39 41 36 28 24 30 38 39 45 54 52 56 67 48
29 30 29 29 36 44 42 34 21 19 14 15 21 27 29 28 28 29 30 31 31 32 33 32 33 34 34 35 36 36 31 24 39 38 45 53 64 70 70 72 69 61 62 62 65
29 31 28 28 35 36 39 41 46 37 31 30 24 18 16 17 20 22 27 31 32 32 32 31 31 28 25 31 39 50 61 65 64 60 62 68 66 60 55 53 53 52 52 50 49
37 32 33 29 30 33 35 38 41 40 46 49 44 38 35 36 34 34 31 29 30 31 33 34 34 37 36 43 51 52 50 50 51 51 53 54 54 54 55 55 55 54 53 52 52
71 37 43 30 33 37 34 34 38 42 45 46 44 45 49 53 54 51 49 48 47 49 50 52 53 55 55 56 56 57 56 56 56 56 57 58 57 59 60 64 67 66 64 64 62
77 72 35 57 33 31 33 40 37 38 40 41 44 50 52 54 53 50 47 45 45 46 46 47 48 51 52 55 56 59 62 63 65 70 76 80 71 54 52 55 57 54 50 47 47
73 84 43 44 69 57 36 33 37 44 40 38 40 41 45 48 53 54 52 55 57 58 61 63 63 62 61 61 62 57 55 51 51 51 52 53 49 51 52 50 51 53 53 52 50

GFSSW_250_rhum_114.txt.gz
RH
1 1 2 2 3 3 3 8 10 9 8 8 9 9 17 19 24 29 34 37 48 52 46 51 60 62 68 75 63 49 46 45 39 39 51 63 81 72 58 55 43 44 50 45 44
1 1 1 1 2 2 2 2 6 11 11 9 10 9 9 12 12 17 21 26 34 42 46 47 45 51 52 60 64 56 46 48 46 40 37 40 55 84 88 80 73 49 38 52 51
1 1 1 1 2 2 2 2 3 5 12 15 15 11 11 11 10 11 14 16 22 28 38 40 44 46 43 53 54 61 58 45 42 44 40 38 41 54 74 88 88 92 86 62 63
1 1 1 1 1 2 2 2 2 3 6 12 16 19 17 16 12 12 12 14 15 20 25 33 34 42 41 43 53 60 61 60 54 50 49 43 40 40 55 77 90 96 100 100 95
1 1 1 1 1 2 2 1 2 3 4 6 15 20 23 20 12 14 14 16 15 16 17 25 29 34 37 36 48 58 57 63 60 62 54 53 54 59 47 54 76 88 86 97 99
1 1 1 1 1 1 1 2 2 2 5 5 7 15 22 24 22 16 17 15 16 14 17 20 22 29 34 31 36 52 56 70 69 70 66 70 63 58 59 60 66 66 66 84 100
1 1 1 1 1 1 1 1 2 2 4 6 5 9 18 26 26 22 21 16 16 18 20 24 22 29 34 37 35 40 57 79 86 86 81 76 66 68 67 62 67 70 60 70 78
1 1 1 2 2 1 1 1 1 2 3 6 6 7 15 26 25 29 35 24 20 18 20 24 26 27 30 30 26 32 64 77 79 95 93 96 98 85 74 75 79 88 97 84 77
1 2 2 2 2 2 2 2 2 2 2 3 7 7 10 24 27 32 35 30 25 22 21 22 25 27 31 34 30 32 55 45 38 59 58 44 65 99 100 96 97 96 94 84 84
4 3 3 2 2 2 2 2 2 2 2 2 6 7 6 14 24 39 29 36 31 30 27 25 24 29 36 36 32 29 26 37 34 27 27 28 61 81 82 73 76 79 88 79 75
7 8 4 3 3 2 2 2 2 2 2 2 5 8 8 11 21 26 26 32 34 36 33 33 30 32 35 35 32 32 30 33 35 35 30 31 31 26 43 58 76 69 69 74 76
12 9 10 7 5 4 4 3 3 3 2 2 3 9 9 9 12 17 19 31 36 37 35 35 35 33 36 34 35 36 34 37 36 32 33 32 32 28 22 25 28 29 26 27 27
12 13 11 10 10 10 9 8 9 9 5 4 5 10 9 9 8 9 13 24 32 35 37 36 36 33 33 33 32 34 42 44 46 43 46 45 38 34 32 30 23 19 17 18 17
13 12 11 11 10 9 10 13 13 13 14 13 11 11 10 8 7 7 11 22 27 32 40 41 37 36 35 35 39 43 44 46 50 51 58 60 57 63 39 34 34 28 24 25 25
15 12 13 12 12 10 9 8 9 9 9 9 10 10 6 7 8 7 8 17 23 29 40 44 41 38 37 37 39 41 38 39 47 58 67 68 61 63 54 48 42 49 52 43 36
11 15 12 12 12 11 11 9 8 7 8 7 7 6 6 6 6 8 9 13 21 28 35 42 42 42 40 40 41 39 36 38 43 46 48 52 61 80 75 73 59 55 51 40 33
14 10 14 15 15 15 13 13 11 12 9 7 7 7 7 8 7 8 8 10 16 24 30 34 39 40 39 41 41 39 37 39 38 38 45 48 52 58 58 58 54 50 48 42 35
32 17 12 12 19 21 19 16 17 14 12 9 9 8 8 9 8 9 10 12 17 22 29 35 36 38 40 40 42 39 34 32 33 36 39 43 42 42 42 42 41 43 41 36 31
33 35 20 14 11 18 24 25 19 16 16 16 14 12 10 12 13 12 14 17 20 25 30 33 37 40 40 40 37 35 32 31 33 36 37 37 36 36 43 43 41 41 36 25 24
30 35 38 26 22 17 32 30 24 21 20 20 19 16 15 15 16 18 18 21 25 30 34 38 38 39 38 34 34 33 32 32 32 34 36 39 42 41 41 34 25 32 38 45 55
32 36 34 38 40 34 34 21 22 26 26 25 22 21 21 21 20 20 21 23 26 29 31 35 34 34 33 33 32 31 31 33 37 38 39 38 36 38 41 47 50 48 54 55 54
34 38 34 36 37 40 42 36 30 24 19 25 30 28 26 25 25 25 25 26 26 26 28 28 30 28 30 31 32 35 37 39 41 39 42 50 52 55 59 54 48 49 50 50 49
38 33 39 35 40 40 40 38 42 38 38 37 30 24 24 29 32 31 30 30 30 31 32 32 33 35 36 36 34 34 32 35 41 43 45 54 52 52 52 51 51 51 51 51 52
21 36 31 41 41 39 41 43 40 38 41 47 47 43 41 42 39 35 31 31 31 30 30 31 34 36 39 41 45 48 49 52 54 55 55 55 54 53 55 58 59 56 53 51 49
30 24 24 36 37 38 43 43 41 42 44 42 40 41 46 49 51 51 51 51 50 50 49 49 49 49 50 49 51 52 54 57 56 55 56 50 45 45 52 52 48 48 47 46 48
48 35 26 20 32 50 39 39 42 45 45 44 48 50 48 45 44 46 49 53 55 55 55 54 56 55 52 46 45 44 47 47 48 50 54 54 59 61 60 60 60 59 54 56 54
32 38 36 29 23 26 44 43 38 45 44 48 43 43 45 46 46 44 43 42 43 47 50 51 51 53 56 61 66 70 76 69 60 58 58 63 81 89 87 66 56 55 53 54 51

GFSSW_250_rhum_117.txt.gz
RH
1 1 1 1 2 2 3 3 7 10 9 9 10 9 15 36 46 50 58 72 86 77 87 72 84 92 81 91 96 98 93 79 73 60 61 51 49 78 84 96 80 66 53 40 43
1 1 1 1 1 2 2 2 2 7 12 10 10 9 9 16 26 40 46 51 62 76 72 85 77 77 77 75 81 84 86 96 94 78 62 54 42 39 52 58 82 88 78 65 57
1 1 1 1 1 2 2 2 2 3 8 12 12 9 10 9 13 16 27 38 50 62 74 65 69 66 64 71 76 78 82 84 82 84 72 59 52 44 41 41 47 55 78 87 75
1 1 1 1 1 1 2 2 1 2 3 9 14 16 14 8 9 12 13 21 29 41 59 68 67 63 71 65 68 69 70 82 83 74 76 73 61 50 44 41 42 44 51 61 90
1 1 1 1 1 1 1 2 1 1 2 5 11 18 18 9 10 11 12 13 15 24 39 53 59 58 54 58 63 65 60 56 70 67 65 67 71 59 48 40 38 35 39 44 49
2 1 1 2 1 1 1 1 2 1 2 3 7 14 19 16 11 12 11 11 12 14 17 23 28 35 38 39 41 49 52 52 53 54 55 55 58 59 57 50 46 40 40 44 45
3 2 1 2 2 1 1 1 1 2 2 3 5 9 20 21 19 15 12 10 11 12 14 15 16 17 21 27 32 40 46 47 44 47 50 49 56 59 58 61 57 64 69 67 64
4 3 2 2 2 2 2 1 2 2 2 3 4 6 14 20 26 19 15 15 12 12 12 15 16 16 18 20 23 29 33 37 40 41 43 44 48 54 59 61 68 72 68 77 74
6 4 2 2 2 2 2 2 2 2 2 3 3 5 8 20 27 24 21 23 16 15 15 14 14 16 17 18 18 23 23 27 32 35 37 36 34 42 53 59 68 80 86 82 80
8 7 4 2 2 2 2 2 2 2 2 2 2 4 6 17 26 23 22 30 24 19 18 17 17 18 19 19 20 24 26 26 27 32 28 27 25 32 49 82 89 91 92 87 78
8 9 8 4 2 2 2 2 2 2 2 2 2 3 6 10 18 14 22 36 32 27 28 24 22 19 18 17 19 23 22 25 24 25 24 25 23 32 51 45 34 30 24 19 27
9 8 9 9 6 3 2 2 2 2 3 3 3 4 6 10 15 16 18 36 31 28 29 26 24 25 23 22 20 22 25 27 29 29 31 29 29 30 30 31 30 24 20 19 20
11 9 8 9 10 10 7 3 3 2 3 3 3 6 8 11 12 15 15 35 32 30 32 32 28 26 26 23 22 22 27 30 31 31 35 32 32 28 26 24 23 24 25 26 28
14 11 9 8 10 11 13 13 7 3 3 3 3 5 10 11 9 10 10 30 35 33 35 37 35 29 32 31 31 29 29 28 27 34 38 33 28 31 35 34 38 40 42 44 47
18 14 12 9 8 8 10 14 20 14 8 4 4 8 11 12 11 9 10 24 33 31 38 41 42 38 37 39 38 38 37 36 35 39 42 38 34 40 44 56 69 70 56 55 59
17 18 15 14 12 9 9 8 9 13 22 19 14 12 10 9 8 7 8 17 32 34 38 42 45 46 46 42 40 38 38 40 42 43 45 53 46 43 33 36 43 41 39 38 41
18 16 19 17 16 15 11 8 8 10 8 9 14 15 13 12 12 12 10 14 27 35 39 42 44 47 48 46 44 42 42 43 42 44 42 38 35 35 36 36 39 47 53 58 57
37 21 18 19 19 18 18 15 13 9 8 7 7 9 9 9 11 12 12 10 18 29 33 36 40 40 43 49 48 45 45 44 44 42 37 35 34 34 34 38 40 46 44 41 39
35 40 31 17 21 21 23 25 19 15 12 10 9 8 8 8 8 11 16 13 14 18 25 28 34 38 42 50 49 48 45 44 42 39 35 33 31 31 35 38 38 40 43 43 43
28 36 37 40 28 17 28 27 24 23 20 18 16 14 11 9 10 11 13 14 17 20 25 29 36 41 45 46 46 46 44 42 38 36 32 31 33 34 36 39 40 39 33 30 34
30 33 31 40 49 40 33 22 27 25 24 24 21 20 19 17 15 16 17 18 19 20 24 28 33 36 41 45 42 42 38 37 35 33 34 35 37 35 32 28 35 43 50 52 51
28 31 33 31 37 48 54 38 23 23 28 28 27 26 27 25 23 21 22 24 26 29 30 34 36 41 43 41 38 38 36 34 36 34 35 29 33 46 51 50 47 47 46 46 46
30 30 34 33 38 37 41 46 52 45 33 25 28 30 29 29 30 29 28 27 27 28 30 31 34 34 35 35 34 33 34 34 31 34 44 47 45 47 49 50 50 48 46 45 43
21 24 26 40 34 39 37 40 42 45 48 49 42 33 28 28 30 30 30 30 31 32 31 31 32 32 32 32 31 32 41 49 49 46 47 48 50 50 50 49 49 48 48 48 49
26 22 23 28 33 34 35 41 42 40 38 43 46 46 48 48 48 44 41 37 35 35 36 38 40 42 44 48 48 47 47 48 50 44 47 58 57 56 57 61 57 59 60 54 62
28 34 24 21 24 26 30 33 33 34 38 43 42 40 38 38 38 39 40 43 45 45 46 44 43 42 43 43 42 44 46 49 49 50 49 52 56 54 54 59 63 64 68 60 61
36 29 30 30 24 24 24 28 34 32 33 31 32 35 40 44 45 47 45 45 46 46 45 46 49 49 51 56 56 54 57 55 58 70 58 61 62 68 76 66 67 68 65 59 58

GFSSW_250_rhum_120.txt.gz
RH
2 2 2 2 1 1 2 2 3 6 10 9 9 11 13 13 26 89 100 100 100 100 100 89 77 88 100 100 100 100 96 89 80 91 87 73 67 53 52 52 50 53 60 75 81
2 2 2 2 1 1 1 2 2 3 5 10 10 10 12 12 11 25 87 100 100 100 100 100 88 79 79 90 100 100 100 100 100 99 98 88 80 71 65 58 54 56 55 73 85
2 2 2 1 1 1 1 2 2 2 2 7 12 12 11 13 12 12 29 77 100 100 100 100 100 96 85 84 84 95 100 100 100 97 97 96 94 83 68 65 58 55 54 53 56
2 2 1 1 1 1 1 1 2 2 2 3 10 13 10 12 13 11 13 26 60 91 100 100 100 100 95 95 89 85 91 100 100 91 85 89 93 90 87 88 81 67 58 52 47
3 2 1 1 1 1 1 1 1 2 2 3 6 15 16 14 13 12 12 15 23 53 85 100 100 100 100 100 95 83 68 82 96 99 90 82 73 72 80 88 84 76 68 63 56
4 2 2 1 1 1 1 1 2 2 2 2 4 14 20 18 13 10 12 12 17 27 53 64 75 91 92 89 94 86 77 70 83 80 85 93 79 74 76 83 85 76 71 76 74
5 3 2 2 1 1 1 1 2 2 2 3 5 7 17 19 14 10 12 14 14 17 34 46 51 57 58 67 70 72 73 75 71 72 69 74 80 77 73 69 82 79 66 63 60
7 3 2 2 2 2 2 1 2 2 2 4 6 6 11 21 20 15 12 14 13 16 18 28 39 41 44 52 54 54 61 70 66 62 57 54 50 59 57 57 59 58 58 55 50
7 4 2 2 2 2 2 2 2 2 3 4 7 7 8 16 20 18 14 13 14 12 15 21 24 26 28 39 45 46 46 52 55 56 53 46 41 38 39 45 45 43 46 48 49
7 8 4 2 2 2 2 2 2 2 3 4 5 7 9 15 15 17 14 19 17 14 13 16 21 21 22 26 32 36 38 37 35 33 33 30 30 28 28 30 35 37 38 37 31
7 8 9 2 2 2 2 2 2 2 2 2 3 5 9 11 10 12 11 21 21 17 16 15 15 17 17 19 19 19 22 22 22 20 21 21 26 26 26 24 22 25 22 20 18
7 7 10 8 2 2 2 2 2 2 2 2 3 4 6 7 11 9 9 21 27 26 24 20 16 14 15 16 17 18 17 17 18 18 18 20 22 27 26 25 22 20 19 21 22
9 7 8 10 7 2 2 3 3 3 3 3 3 4 5 9 9 7 9 18 28 30 25 22 20 18 15 15 15 17 17 18 18 19 19 20 21 23 26 26 24 20 22 26 28
14 8 7 6 8 9 3 3 4 4 4 4 4 4 5 8 8 6 7 16 29 30 29 23 20 18 17 17 17 18 19 19 17 19 20 20 21 25 25 23 25 35 39 42 37
19 15 10 7 6 7 12 5 4 4 4 4 4 4 5 6 7 6 6 14 26 32 34 31 31 28 26 26 25 25 26 26 26 26 24 23 20 27 33 31 36 46 39 37 36
19 20 16 11 8 7 7 11 11 6 6 5 6 6 6 7 6 6 7 16 25 32 36 37 35 32 33 30 30 32 35 34 32 31 34 37 32 45 43 38 35 36 39 40 35
18 20 20 18 15 11 10 7 10 17 12 11 11 12 11 8 8 8 8 15 22 32 40 36 36 33 39 37 38 41 42 42 41 41 42 40 39 44 42 42 42 40 38 35 36
36 21 20 21 19 18 16 13 9 8 13 16 13 18 18 15 13 10 12 17 18 26 36 42 37 38 44 48 45 45 47 49 46 43 44 44 45 43 43 40 38 34 33 32 32
31 35 31 20 22 20 22 24 15 10 9 10 13 15 17 16 14 12 18 18 19 26 38 45 40 44 48 52 52 55 55 53 51 47 47 46 45 42 39 36 34 32 29 29 29
30 31 31 34 24 24 29 25 22 19 13 11 12 12 14 13 12 14 13 15 20 25 42 48 44 44 49 56 57 52 56 56 52 51 50 46 40 37 37 35 31 29 29 32 32
24 34 31 32 35 39 28 26 24 24 23 19 15 13 14 18 14 13 13 14 18 28 41 44 41 45 48 48 48 50 54 55 53 50 44 39 35 35 32 30 31 30 30 36 41
29 26 29 31 34 39 37 40 25 25 23 24 25 23 21 19 19 20 17 16 16 19 26 34 38 40 40 40 46 50 51 51 49 38 34 35 32 32 30 37 47 46 46 46 46
29 23 25 27 28 32 35 38 42 41 32 27 27 26 28 28 26 26 25 25 25 26 26 28 30 33 37 42 47 47 46 38 34 35 32 32 35 47 48 48 47 44 42 41 44
28 33 25 23 23 27 28 30 35 37 40 44 42 37 32 30 31 32 31 31 30 30 31 31 33 37 39 39 38 38 37 35 35 37 46 48 44 42 44 47 44 47 50 54 58
34 28 28 24 23 20 22 29 28 27 33 36 36 38 43 43 40 37 34 32 31 31 31 31 32 33 34 34 34 35 41 48 47 44 44 45 49 53 60 72 65 63 63 59 59
48 46 28 31 28 27 23 22 20 22 27 27 27 32 38 39 39 40 41 43 44 44 44 43 44 43 43 44 47 46 44 45 51 48 54 56 55 65 71 67 65 61 64 63 64
99 79 55 44 38 35 31 32 28 25 28 28 26 29 28 28 32 32 37 40 43 43 45 46 46 46 43 45 49 47 50 51 51 56 56 52 52 56 48 52 61 60 68 87 99